[[{"header":{"parameterUnit":"m.s-1","parameterCategory":1,"la1":30.6,"la2":29.2853,"lo1":-89.7004,"lo2":-87.6739,"dy":0.0162,"dx":0.0183,"nx":112,"ny":82,"refTime":"2023-07-24T06:00:00:Z","depth":0,"parameterNumber":2,"parameterNumberName":"U-component_of_WINDS"},"data":[0.0,0.0,0.0,0.0,0.0,0.0,0.0,0.0,0.0,0.0,0.0,0.0,0.0,0.0,0.0,0.0,0.0,0.0,0.0,0.0,0.0,0.0,0.0,0.0,0.0,0.0,0.0,0.0,0.0,0.0,0.0,0.0,0.0,0.0,0.0,0.0,0.0,0.0,0.0,0.0,0.0,0.0,0.0,0.0,0.0,0.0,0.0,0.0,0.0,0.0,0.0,0.0,0.0,0.0,0.0,0.0,0.0,0.0,0.0,0.0,0.0,0.0,0.0,0.0,0.0,0.0,0.0,0.0,0.0,0.0,0.0,0.0,0.0,0.0,0.0,0.0,0.0,0.0,0.0,0.0,0.0,0.0,0.0,0.0,0.0,0.0,0.0,0.0,0.0,0.0,1.5287,1.4861,1.5931,1.7466,1.9459,2.0051,2.1257,2.348,0.0,0.0,0.0,0.0,0.0,0.0,0.0,0.0,0.0,0.0,0.0,0.0,0.0,0.0,0.0,0.0,0.0,0.0,0.0,0.0,0.0,0.0,0.0,0.0,0.0,0.0,0.0,0.0,0.0,0.0,0.0,0.0,0.0,0.0,0.0,0.0,0.0,0.0,0.0,0.0,0.0,0.0,0.0,0.0,0.0,0.0,0.0,0.0,0.0,0.0,0.0,0.0,0.0,0.0,0.0,0.0,0.0,0.0,0.0,0.0,0.0,0.0,0.0,0.0,0.0,0.0,0.0,0.0,0.0,0.0,0.0,0.0,0.0,0.0,0.0,0.0,0.0,0.0,0.0,0.0,0.0,0.0,0.0,0.0,0.0,0.0,0.0,0.0,0.0,0.0,0.0,0.0,0.0,0.0,0.0,0.0,0.0,0.0,0.0,0.0,0.0,0.0,0.0,0.0,1.4532,1.5301,1.6612,1.8185,2.0026,2.0005,2.1085,2.3916,0.0,0.0,0.0,0.0,0.0,0.0,0.0,0.0,0.0,0.0,0.0,0.0,0.0,0.0,0.0,0.0,0.0,0.0,0.0,0.0,0.0,0.0,0.0,0.0,0.0,0.0,0.0,0.0,0.0,0.0,0.0,0.0,0.0,0.0,0.0,0.0,0.0,0.0,0.0,0.0,0.0,0.0,0.0,0.0,0.0,0.0,0.0,0.0,0.0,0.0,0.0,0.0,0.0,0.0,0.0,0.0,0.0,0.0,0.0,0.0,0.0,0.0,0.0,0.0,0.0,0.0,0.0,0.0,0.0,0.0,0.0,0.0,0.0,0.0,0.0,0.0,0.0,0.0,0.0,0.0,0.0,0.0,0.0,0.0,0.0,0.0,0.0,0.0,0.0,0.0,0.0,0.0,0.0,0.0,0.0,0.0,0.0,0.0,0.0,0.0,0.0,0.0,0.0,1.4614,1.4546,1.5419,1.6759,1.8131,1.947,1.9718,2.0814,2.3179,2.146,0.0,0.0,0.0,0.0,0.0,0.0,0.0,0.0,0.0,0.0,0.0,0.0,0.0,0.0,0.0,0.0,0.0,0.0,0.0,0.0,0.0,0.0,0.0,0.0,0.0,0.0,0.0,0.0,0.0,0.0,0.0,0.0,0.0,0.0,0.0,0.0,0.0,0.0,0.0,0.0,0.0,0.0,0.0,0.0,0.0,0.0,0.0,0.0,0.0,0.0,0.0,0.0,0.0,0.0,0.0,0.0,0.0,0.0,0.0,0.0,0.0,0.0,0.0,0.0,0.0,0.0,0.0,0.0,0.0,0.0,0.0,0.0,0.0,0.0,0.0,0.0,0.0,0.0,0.0,0.0,0.0,0.0,0.0,0.0,0.0,0.0,0.0,0.0,0.0,0.0,0.0,0.0,0.0,0.0,0.0,0.0,0.0,0.0,0.0,0.0,0.0,0.0,1.4413,1.4879,1.5578,1.6839,1.7983,1.8916,1.951,2.0557,2.2268,2.0928,0.0,0.0,0.0,0.0,0.0,0.0,0.0,0.0,0.0,0.0,0.0,0.0,0.0,0.0,0.0,0.0,0.0,0.0,0.0,0.0,0.0,0.0,0.0,0.0,0.0,0.0,0.0,0.0,0.0,0.0,0.0,0.0,0.0,0.0,0.0,0.0,0.0,0.0,0.0,0.0,0.0,0.0,0.0,0.0,0.0,0.0,0.0,0.0,0.0,0.0,0.0,0.0,0.0,0.0,0.0,0.0,0.0,0.0,0.0,0.0,0.0,0.0,0.0,0.0,0.0,0.0,0.0,0.0,0.0,0.0,0.0,0.0,0.0,0.0,0.0,0.0,0.0,0.0,0.0,0.0,0.0,0.0,0.0,0.0,0.0,0.0,0.0,0.0,0.0,0.0,0.0,0.0,0.0,0.0,0.0,0.0,0.0,0.0,0.0,0.0,0.0,0.0,1.4972,1.5471,1.6082,1.7027,1.7969,1.8915,1.9549,2.0433,2.1671,2.0831,0.0,0.0,0.0,0.0,0.0,0.0,0.0,0.0,0.0,0.0,0.0,0.0,0.0,0.0,0.0,0.0,0.0,0.0,0.0,0.0,0.0,0.0,0.0,0.0,0.0,0.0,0.0,0.0,0.0,0.0,0.0,0.0,0.0,0.0,0.0,0.0,0.0,0.0,0.0,0.0,0.0,0.0,0.0,0.0,0.0,0.0,0.0,0.0,0.0,0.0,0.0,0.0,0.0,0.0,0.0,0.0,0.0,0.0,0.0,0.0,0.0,0.0,0.0,0.0,0.0,0.0,0.0,0.0,0.0,0.0,0.0,0.0,0.0,0.0,0.0,0.0,0.0,0.0,0.0,0.0,0.0,0.0,0.0,0.0,0.0,0.0,0.0,0.0,0.0,0.0,0.0,0.0,0.0,0.0,0.0,0.0,0.0,0.0,0.0,0.0,0.0,0.0,1.4844,1.5346,0.0,1.7233,1.821,1.8937,1.9509,2.0608,2.2408,0.0,0.0,0.0,0.0,0.0,0.0,0.0,0.0,0.0,0.0,0.0,0.0,0.0,0.0,0.0,0.0,0.0,0.0,0.0,0.0,0.0,0.0,0.0,0.0,0.0,0.0,0.0,0.0,0.0,0.0,0.0,0.0,0.0,0.0,0.0,0.0,0.0,0.0,0.0,0.0,0.0,0.0,0.0,0.0,0.0,0.0,0.0,0.0,0.0,0.0,0.0,0.0,0.0,0.0,0.0,0.0,0.0,0.0,0.0,0.0,0.0,0.0,0.0,0.0,0.0,0.0,0.0,0.0,0.0,0.0,0.0,0.0,0.0,0.0,0.0,0.0,0.0,0.0,0.0,0.0,0.0,0.0,0.0,0.0,0.0,0.0,0.0,0.0,0.0,0.0,0.0,0.0,0.0,0.0,0.0,0.0,0.0,0.0,0.0,0.0,0.0,0.0,1.5053,1.5005,1.5322,0.0,1.7423,1.8338,1.8956,1.9509,2.0627,2.2466,0.0,0.0,0.0,0.0,0.0,0.0,0.0,0.0,0.0,0.0,0.0,0.0,0.0,0.0,0.0,0.0,0.0,0.0,0.0,0.0,0.0,0.0,0.0,0.0,0.0,0.0,0.0,0.0,0.0,0.0,0.0,0.0,0.0,0.0,0.0,0.0,0.0,0.0,0.0,0.0,0.0,0.0,0.0,0.0,0.0,0.0,0.0,0.0,0.0,0.0,0.0,0.0,0.0,0.0,0.0,0.0,0.0,0.0,0.0,0.0,0.0,0.0,0.0,0.0,0.0,0.0,0.0,0.0,0.0,0.0,0.0,0.0,0.0,0.0,0.0,0.0,0.0,0.0,0.0,0.0,0.0,0.0,0.0,0.0,0.0,0.0,0.0,0.0,0.0,0.0,0.0,0.0,0.0,0.0,0.0,0.0,0.0,0.0,0.0,0.0,0.0,0.0,1.5937,1.5455,1.5476,1.667,1.7579,1.8325,1.8958,1.9547,2.04,0.0,0.0,0.0,0.0,0.0,0.0,0.0,0.0,0.0,0.0,0.0,0.0,0.0,0.0,0.0,0.0,0.0,0.0,0.0,0.0,0.0,0.0,0.0,0.0,0.0,0.0,0.0,0.0,0.0,0.0,0.0,0.0,0.0,0.0,0.0,0.0,0.0,0.0,0.0,0.0,0.0,0.0,0.0,0.0,0.0,0.0,0.0,0.0,0.0,0.0,0.0,0.0,0.0,0.0,0.0,0.0,0.0,0.0,0.0,0.0,0.0,0.0,0.0,0.0,0.0,0.0,0.0,0.0,0.0,0.0,0.0,0.0,0.0,0.0,0.0,0.0,0.0,0.0,0.0,0.0,0.0,0.0,0.0,0.0,0.0,0.0,0.0,0.0,0.0,0.0,0.0,0.0,0.0,0.0,0.0,0.0,0.0,0.0,0.0,0.0,0.0,0.0,0.0,1.5973,1.5455,1.5476,1.667,1.7568,1.8318,1.8822,1.9462,2.0399,2.1768,0.0,0.0,0.0,0.0,0.0,0.0,0.0,0.0,0.0,0.0,0.0,0.0,0.0,0.0,0.0,0.0,0.0,0.0,0.0,0.0,0.0,0.0,0.0,0.0,0.0,0.0,0.0,0.0,0.0,0.0,0.0,0.0,0.0,0.0,0.0,0.0,0.0,0.0,0.0,0.0,0.0,0.0,0.0,0.0,0.0,0.0,0.0,0.0,0.0,0.0,0.0,0.0,0.0,0.0,0.0,0.0,0.0,0.0,0.0,0.0,0.0,0.0,0.0,0.0,0.0,0.0,0.0,0.0,0.0,0.0,0.0,0.0,0.0,0.0,0.0,0.0,0.0,0.0,0.0,0.0,0.0,0.0,0.0,0.0,0.0,0.0,0.0,0.0,0.0,0.0,0.0,0.0,0.0,0.0,0.0,0.0,0.0,0.0,0.0,0.0,0.0,0.0,1.601,1.5455,1.5476,1.667,1.7472,1.8168,1.8753,1.9269,2.0159,2.1533,0.0,0.0,0.0,0.0,0.0,0.0,0.0,0.0,0.0,0.0,0.0,0.0,0.0,0.0,0.0,0.0,0.0,0.0,0.0,0.0,0.0,0.0,0.0,0.0,0.0,0.0,0.0,0.0,0.0,0.0,0.0,0.0,0.0,0.0,0.0,0.0,0.0,0.0,0.0,0.0,0.0,0.0,0.0,0.0,0.0,0.0,0.0,0.0,0.0,0.0,0.0,0.0,0.0,0.0,0.0,0.0,0.0,0.0,0.0,0.0,0.0,0.0,0.0,0.0,0.0,0.0,0.0,0.0,0.0,0.0,0.0,0.0,0.0,0.0,0.0,0.0,0.0,0.0,0.0,0.0,0.0,0.0,0.0,0.0,0.0,0.0,0.0,0.0,0.0,0.0,0.0,0.0,0.0,0.0,0.0,0.0,0.0,0.0,0.0,0.0,0.0,0.0,1.6005,1.5436,1.5447,1.6659,1.7318,1.7966,1.8717,1.9038,1.9731,2.102,0.0,0.0,0.0,0.0,0.0,0.0,0.0,0.0,0.0,0.0,0.0,0.0,0.0,0.0,0.0,0.0,0.0,0.0,0.0,0.0,0.0,0.0,0.0,0.0,0.0,0.0,0.0,0.0,0.0,0.0,0.0,0.0,0.0,0.0,0.0,0.0,0.0,0.0,0.0,0.0,0.0,0.0,0.0,0.0,0.0,0.0,0.0,0.0,0.0,0.0,0.0,0.0,0.0,0.0,0.0,0.0,0.0,0.0,0.0,0.0,1.7671,0.0,0.0,0.0,0.0,0.0,0.0,0.0,0.0,0.0,0.0,0.0,0.0,0.0,0.0,0.0,0.0,0.0,0.0,0.0,0.0,0.0,0.0,0.0,0.0,0.0,0.0,0.0,0.0,0.0,0.0,0.0,0.0,0.0,0.0,0.0,0.0,0.0,0.0,0.0,0.0,0.0,1.5981,1.5243,1.5169,1.6638,1.7085,1.7664,1.8569,1.8993,1.9515,2.029,1.9654,0.0,0.0,0.0,0.0,0.0,0.0,0.0,0.0,0.0,0.0,0.0,0.0,0.0,0.0,0.0,0.0,0.0,0.0,0.0,0.0,0.0,0.0,0.0,0.0,0.0,0.0,0.0,0.0,0.0,0.0,0.0,0.0,0.0,0.0,0.0,0.0,0.0,0.0,0.0,0.0,0.0,0.0,0.0,0.0,0.0,0.0,0.0,0.0,0.0,0.0,0.0,0.0,0.0,0.0,0.0,0.0,0.0,0.0,0.0,0.0,1.7584,0.0,0.0,0.0,0.0,0.0,0.0,0.0,0.0,0.0,0.0,0.0,0.0,0.0,0.0,0.0,0.0,0.0,0.0,0.0,0.0,0.0,0.0,0.0,0.0,0.0,0.0,0.0,0.0,0.0,0.0,0.0,0.0,0.0,0.0,0.0,0.0,0.0,0.0,0.0,0.0,1.6,1.5148,1.5034,1.6418,1.6841,1.7309,1.8097,1.8626,1.9057,1.936,1.9093,0.0,0.0,0.0,0.0,0.0,0.0,0.0,0.0,0.0,0.0,0.0,0.0,0.0,0.0,0.0,0.0,0.0,0.0,0.0,0.0,0.0,0.0,0.0,0.0,0.0,0.0,0.0,0.0,0.0,0.0,0.0,0.0,0.0,0.0,0.0,0.0,0.0,0.0,0.0,0.0,0.0,0.0,0.0,0.0,0.0,0.0,0.0,0.0,0.0,0.0,0.0,0.0,0.0,1.1113,1.1581,1.1744,1.2492,1.325,1.4155,1.6024,1.7177,1.7701,1.7922,0.0,0.0,0.0,0.0,0.0,0.0,0.0,0.0,0.0,0.0,0.0,0.0,0.0,0.0,0.0,0.0,0.0,0.0,0.0,0.0,0.0,0.0,0.0,0.0,0.8928,0.84,0.0,0.0,0.0,0.0,0.0,0.0,0.0,0.0,0.0,0.0,0.0,0.0,1.5995,1.515,1.4941,1.6172,1.6607,1.7035,1.7648,1.8197,1.8547,1.8585,1.8547,1.8535,0.0,0.0,0.0,0.0,0.0,0.0,0.0,0.0,0.0,0.0,0.0,0.0,0.0,0.0,0.0,0.0,0.0,0.0,0.0,0.0,0.0,0.0,0.0,0.0,0.0,0.0,0.0,0.0,0.0,0.0,0.0,0.0,1.8249,1.8113,0.0,0.0,0.0,0.0,0.0,0.0,0.0,0.0,0.0,0.0,0.0,0.0,0.0,0.8214,0.7723,0.8684,0.9214,0.9249,1.0246,1.1105,1.1813,1.2244,1.3411,1.5145,1.5374,0.0,1.5785,1.6864,0.0,0.0,0.0,0.0,0.0,0.0,0.0,0.0,0.0,0.0,0.0,0.0,0.0,0.0,0.0,0.0,0.0,0.0,0.0,0.0,0.0,0.0,0.7419,0.6619,0.649,0.6555,0.0,0.8143,0.9671,1.0556,1.1331,0.0,0.0,0.0,0.0,0.0,0.0,0.0,1.6018,1.5173,1.4963,1.6161,1.6586,1.7035,1.7648,1.8048,1.8351,1.8603,1.8391,1.8801,1.9964,1.9295,0.0,0.0,0.0,0.0,0.0,0.0,0.0,0.0,0.0,0.0,0.0,0.0,0.0,0.0,0.0,0.0,0.0,0.0,0.0,0.0,0.0,0.0,0.0,0.0,0.0,0.0,0.0,0.0,0.0,1.8394,1.8435,1.7823,1.777,1.7756,0.0,0.0,0.0,0.0,0.0,0.0,0.0,0.0,0.0,0.7159,0.6892,0.6613,0.6338,0.7819,0.8546,0.8546,0.9918,1.0807,1.1163,1.224,1.3203,1.4073,1.5129,1.4797,1.3526,1.4639,1.3826,1.192,0.0,0.0,0.0,0.0,0.9336,0.8527,0.8337,0.7856,0.0,0.7389,0.0,0.0,0.0,0.0,0.0,0.0,0.0,0.0,0.0,0.0,0.667,0.5807,0.5641,0.5584,0.5188,0.569,0.6694,0.0,0.924,1.0171,1.0773,0.0,0.0,0.0,0.0,1.4713,1.5651,1.5012,1.4777,1.5549,1.6172,1.6617,1.6878,1.7356,1.7693,1.7859,1.7902,1.828,1.9083,1.9742,2.0569,0.0,0.0,0.0,0.0,0.0,0.0,0.0,0.0,0.0,0.0,0.0,0.0,0.0,0.0,0.0,0.0,0.0,0.0,0.0,0.0,0.0,0.0,0.0,0.0,0.0,0.0,0.0,0.0,1.8113,1.83,1.7421,1.7485,1.7365,0.0,0.0,0.0,0.0,0.0,0.0,0.7886,0.7086,0.6519,0.6073,0.5738,0.5689,0.5812,0.7436,0.83,0.8565,0.991,1.0584,1.051,1.2235,1.291,1.2822,1.4465,1.3697,1.1404,1.2447,1.1534,0.9377,0.8456,0.7662,0.6945,0.625,0.5727,0.5274,0.5063,0.4634,0.42,0.4225,0.0,0.4748,0.5972,0.0,0.0,0.0,0.0,0.7015,0.6699,0.6484,0.6245,0.5859,0.5562,0.518,0.4807,0.4536,0.4782,0.0,0.7427,0.8315,0.8877,0.0,0.0,0.0,0.0,1.435,1.5359,1.4828,1.4538,1.5043,1.5724,1.616,1.6301,1.6802,1.7158,1.728,1.7551,1.7971,1.8589,2.0216,2.137,2.1969,0.0,0.0,0.0,0.0,0.0,0.0,0.0,0.0,0.0,0.0,0.0,0.0,0.0,0.0,0.0,0.0,0.0,0.0,0.0,0.0,0.0,0.0,0.0,0.0,0.0,0.0,0.0,0.0,0.0,1.7062,1.6569,0.0,0.0,0.0,0.0,1.0565,0.9618,0.8296,0.6379,0.578,0.5547,0.5631,0.5583,0.6066,0.6978,0.7784,0.8633,0.9432,1.0238,1.0414,1.0208,1.2126,1.2621,1.2008,1.2885,1.1802,0.9531,1.0913,0.9614,0.6569,0.512,0.4126,0.3468,0.2745,0.2538,0.2679,0.2431,0.2461,0.2589,0.2644,0.3112,0.3926,0.5412,0.5737,0.0,0.0,0.6131,0.5734,0.6431,0.6098,0.5725,0.6406,0.5935,0.5469,0.5968,0.5427,0.5161,0.0,0.6572,0.7359,0.9376,0.0,1.2215,1.3488,1.3884,1.4368,1.5361,1.4566,1.4226,1.5027,1.5418,1.5821,1.6258,1.6633,1.6952,1.7296,1.7551,1.8302,1.9648,2.1158,2.2197,2.2721,2.1511,0.0,0.0,0.0,0.0,0.0,0.0,0.0,0.0,0.0,0.0,0.0,0.0,0.0,0.0,0.0,0.0,0.0,0.0,0.0,0.0,0.0,0.0,0.0,0.0,0.0,0.0,0.0,0.0,1.6317,1.6546,0.0,1.3788,1.2257,1.0634,0.8747,0.8032,0.718,0.6032,0.5662,0.5802,0.6398,0.6511,0.69,0.7664,0.8596,0.9158,0.9403,1.0219,1.0808,1.1232,1.2174,1.2756,1.2981,1.2284,1.0716,0.8498,0.7315,0.5333,0.2959,0.2421,0.152,0.0501,0.0684,0.0812,0.088,0.0812,0.0826,0.0967,0.1418,0.2427,0.3519,0.402,0.449,0.4897,0.5171,0.5382,0.5584,0.5842,0.6054,0.6245,0.6314,0.6031,0.5766,0.5727,0.5489,0.5594,0.6662,0.6957,0.7475,0.8849,1.021,1.1608,1.2991,1.3281,1.3662,1.4499,1.4193,1.4119,1.4657,1.5058,1.5463,1.5955,1.6095,1.647,1.719,1.715,1.7766,1.9236,2.0258,2.1105,2.182,2.0977,1.811,0.0,0.0,0.0,0.0,0.0,0.0,0.0,0.0,0.0,0.0,0.0,0.0,0.0,0.0,0.0,0.0,0.0,0.0,0.0,0.0,0.0,0.0,0.0,0.0,0.0,0.0,1.6618,1.5221,1.5623,1.5106,1.2774,1.1598,1.0301,0.8649,0.825,0.7678,0.6702,0.6529,0.6716,0.7248,0.7373,0.7721,0.842,0.91,0.9563,0.9722,1.0448,1.1012,1.1428,1.2215,1.2603,1.2613,1.1527,0.9596,0.7068,0.4899,0.2526,0.0333,0.0343,-0.0114,-0.0673,-0.0459,-0.0232,0.0058,0.029,0.0352,0.0536,0.1511,0.2497,0.3398,0.3892,0.4391,0.4897,0.5117,0.555,0.5923,0.618,0.6612,0.7008,0.7062,0.6804,0.6523,0.6493,0.6239,0.6387,0.7615,0.7734,0.796,0.8881,1.0095,1.1423,1.2935,1.2946,1.3184,1.4225,1.395,1.3841,1.4238,1.4556,1.4876,1.5329,1.558,1.6077,1.6898,1.7052,1.7687,1.9003,1.9872,2.0707,2.1625,1.8578,1.3065,0.5089,0.0,0.0,0.0,0.0,0.0,0.0,0.0,0.0,0.0,0.0,0.0,0.0,0.0,0.0,0.0,0.0,0.0,0.0,0.0,0.0,0.0,0.0,0.0,1.5368,1.5396,1.5001,1.3834,1.3746,1.3253,1.2087,1.1882,1.1404,1.0148,1.0266,0.9749,0.8456,0.829,0.8122,0.8032,0.8027,0.8484,0.9338,0.9338,0.9786,1.0618,1.0974,1.1004,1.0865,1.2253,1.2113,1.0846,1.0461,0.8451,0.5325,0.3905,0.1607,-0.1006,-0.1062,-0.0615,-0.0112,-0.0783,-0.0615,0.0112,0.0895,0.1174,0.1396,0.2841,0.3342,0.3619,0.5101,0.5538,0.5706,0.6421,0.6642,0.6804,0.7509,0.7723,0.7937,0.8633,0.8152,0.769,0.8257,0.7732,0.7557,0.9114,0.8863,0.8682,0.9694,1.0624,1.1796,1.345,1.2941,0.0,1.4638,1.3879,1.3404,1.3874,1.3927,1.4092,1.4479,1.5197,1.5856,1.6447,1.7232,1.8107,1.9094,2.0033,2.0996,2.1953,1.4033,0.512,-0.4634,0.0,0.0,0.0,0.0,0.0,0.0,0.0,0.0,0.0,0.0,0.0,0.0,0.0,0.0,0.0,0.0,0.0,0.0,0.0,0.0,0.0,0.0,1.5208,1.5096,1.5332,1.5105,1.3776,1.4117,1.3719,1.1613,1.1236,1.066,0.9564,0.9227,0.8941,0.8538,0.823,0.8354,0.8947,0.8941,0.9332,1.0238,1.0238,1.0674,1.1469,1.1559,1.2059,1.2814,1.2363,1.2143,1.1895,0.9408,0.7522,0.6047,0.4142,0.2559,0.1171,0.0112,-0.0504,-0.0783,-0.0448,0.0168,0.0895,0.1619,0.2232,0.2841,0.3773,0.4436,0.5046,0.6036,0.6312,0.6367,0.6534,0.6966,0.745,0.767,0.8103,0.8482,0.8493,0.8329,0.811,0.8048,0.7839,0.8003,0.917,0.9606,1.0116,1.1099,1.1437,1.1984,1.3045,1.3015,0.0,1.3588,1.3383,1.3528,1.44,1.4458,1.4658,1.5059,1.5594,1.5965,1.613,1.6491,1.6938,1.7507,1.7272,1.6336,1.4583,0.6068,-0.2248,0.0,0.0,0.0,0.0,0.0,0.0,0.0,0.0,0.0,0.0,0.0,0.0,0.0,0.0,0.0,0.0,0.0,0.0,0.0,0.0,0.0,0.0,1.4686,1.5183,1.5134,1.5142,1.4888,1.3944,1.4003,1.3577,1.2167,1.1702,1.1216,1.0802,1.026,0.9972,0.9972,0.9661,0.9645,1.0186,1.008,1.0283,1.0742,1.0685,1.08,1.1281,1.1821,1.2344,1.2785,1.2341,1.2025,1.1645,0.883,0.6999,0.5963,0.4155,0.2899,0.0,0.0,0.0,0.0,0.0,0.1174,0.1675,0.2397,0.2954,0.3508,0.4542,0.5148,0.5706,0.6745,0.7074,0.7128,0.745,0.783,0.8156,0.8156,0.848,0.8764,0.8597,0.8557,0.8606,0.8672,0.8679,0.9018,1.018,1.0704,0.0,1.2089,1.2289,1.257,1.3249,1.3235,1.3241,1.3561,1.3348,1.3421,1.4018,1.4082,1.4158,1.438,1.4982,0.0,0.0,0.0,1.5869,1.5655,1.4896,0.0,0.0,0.0,-0.356,-1.0841,0.0,0.0,0.0,-1.4347,-1.5177,0.0,0.0,0.0,0.0,0.0,0.0,0.0,0.0,0.0,0.0,0.0,0.0,0.0,0.0,0.0,0.0,1.5334,1.515,1.5404,1.4937,1.4462,1.4168,1.3614,1.326,1.326,1.2739,1.2498,1.2802,1.2304,1.1904,1.187,0.0,0.0,0.0,0.0,1.122,1.112,1.0985,1.0961,1.1045,1.2059,1.2274,1.1886,1.2245,1.1748,1.0559,0.8397,0.6801,0.5504,0.411,0.3121,0.2454,0.2286,0.2174,0.223,0.2286,0.2343,0.2454,0.3287,0.0,0.0,0.5265,0.5756,0.6027,0.7391,0.783,0.7943,0.8593,0.8804,0.8804,0.8804,0.8804,0.8804,0.8804,0.8804,0.8956,0.9666,0.9814,1.0218,1.1566,1.1814,1.2021,1.2774,1.3008,1.3273,1.3837,1.3555,1.3468,1.4044,1.3581,1.3223,1.3286,0.0,0.0,1.3286,1.4007,1.4502,1.4708,1.5011,1.4628,1.3408,1.2361,0.8639,0.1864,0.1728,-0.1716,-0.8712,-0.9629,-1.0479,-1.1446,-1.3992,-1.4756,0.0,0.0,0.0,0.0,0.0,0.0,0.0,0.0,0.0,0.0,0.0,0.0,0.0,0.0,0.0,1.4456,1.5248,1.5678,1.5738,1.5244,1.477,1.4469,1.3921,1.3561,1.3561,1.324,1.2953,1.2835,1.2418,1.2118,1.1877,1.159,1.1423,1.1423,1.2109,1.2351,1.1999,1.2646,1.3165,1.3476,0.0,0.0,1.2795,1.2023,1.1063,0.9858,0.7741,0.6632,0.6303,0.4893,0.4184,0.3956,0.2676,0.2174,0.2286,0.2843,0.3065,0.3287,0.4608,0.5101,0.532,0.6794,0.7283,0.7444,0.8321,0.8593,0.0,0.8752,0.8804,0.8804,0.8804,0.8804,0.8804,0.8804,0.8804,0.8956,0.9666,0.9814,1.0218,1.1566,1.1814,1.2021,1.2774,1.2939,1.3162,1.3814,1.3426,1.3295,1.3998,1.356,1.3408,1.3871,1.3934,1.3934,1.3934,1.438,1.4472,1.408,1.3598,1.2316,1.0113,0.8017,0.4941,0.0842,-0.0965,-0.4184,-0.8784,-0.8956,-0.9193,-0.94,-1.2018,-1.3117,0.0,0.0,0.0,0.0,0.0,0.0,0.0,0.0,0.0,0.0,0.0,1.1682,0.0,0.0,1.3458,1.4942,1.5545,1.5832,1.5832,1.5451,1.507,1.4776,1.4088,1.3701,1.3848,1.3467,1.3206,1.3193,1.2926,1.2692,1.2545,1.2398,1.2464,1.2799,1.3138,1.337,1.3478,1.3526,1.3697,1.3882,1.3511,1.3027,1.2457,1.1603,1.0701,0.9658,0.754,0.6588,0.6534,0.5437,0.5222,0.5496,0.471,0.3999,0.34,0.379,0.4119,0.4498,0.5265,0.576,0.6253,0.7343,0.7723,0.783,0.8586,0.8804,0.8804,0.8804,0.8804,0.8804,0.8804,0.8804,0.891,0.9211,0.9309,0.9562,1.0568,1.0813,1.1124,1.2138,1.2344,1.2579,1.3236,1.3084,1.3131,1.3811,1.3915,1.3964,1.4059,1.3833,1.3647,1.3647,1.3647,1.3647,1.3647,1.3609,1.3483,1.3242,1.193,1.0264,0.8131,0.5486,0.2868,0.0311,-0.2376,-0.4648,-0.6628,-0.6645,-0.72,-0.8252,-0.9974,-1.1099,0.0,0.0,0.0,0.0,0.0,0.0,0.0,0.0,1.2007,1.0656,1.0852,1.1505,1.2338,1.3071,1.4037,1.5642,1.5865,1.5832,1.5832,1.5578,1.5311,1.5077,1.4369,1.3968,1.4155,1.3741,1.3514,1.3552,1.3427,1.3346,1.3516,1.3461,1.3768,1.4463,1.4348,1.4497,1.4951,1.4422,1.4182,1.4104,1.3414,1.2722,1.1894,1.1112,1.0374,0.9503,0.7599,0.675,0.6534,0.6023,0.6128,0.6593,0.6688,0.5968,0.4897,0.4897,0.5277,0.576,0.5869,0.6308,0.6912,0.767,0.7937,0.8049,0.8646,0.8804,0.8804,0.8804,0.8903,0.9001,0.9008,0.9106,0.9309,0.9865,1.0012,1.032,1.1566,1.1814,1.203,1.2774,1.2881,1.3045,1.3538,1.3208,1.3219,1.4079,1.4467,1.4558,1.4287,1.4141,1.3909,1.3446,1.3261,1.3198,1.3198,1.2853,1.2495,1.2198,1.0804,0.9013,0.6798,0.4093,0.1806,0.0055,-0.2369,-0.3932,-0.4498,-0.4515,-0.5367,-0.7009,-0.7641,-0.8751,1.5682,1.4492,1.338,1.3162,1.2037,1.1152,0.0,0.0,0.9605,0.9792,1.0219,1.0824,1.2047,1.3277,1.4643,1.6011,1.6005,1.5832,1.5832,1.5578,1.5384,1.5351,1.5037,1.4723,1.4496,1.4409,1.4168,1.3681,1.3532,1.387,1.4584,1.4303,1.4568,1.5626,1.6059,1.6094,1.5762,1.615,1.6196,1.5802,1.4286,1.3002,1.2022,1.088,0.985,0.8857,0.799,0.7182,0.6603,0.6855,0.6819,0.6608,0.6916,0.6759,0.6372,0.6372,0.6426,0.6588,0.7252,0.7521,0.7723,0.8427,0.8699,0.8699,0.8752,0.8804,0.8804,0.8804,0.9235,0.9666,0.9703,1.0115,1.0618,1.0661,1.0669,1.0914,1.1665,1.1814,1.203,1.2774,1.2881,1.2929,1.3007,1.292,1.3476,1.5171,1.4596,1.4217,1.4738,1.4412,1.406,1.4009,1.3521,1.3198,1.3198,1.3107,1.2464,1.1164,1.1272,0.9626,0.5738,0.3833,0.1942,0.0052,-0.0327,-0.1839,-0.4487,-0.4498,-0.4641,-0.486,-0.4938,-0.6061,1.3936,1.3207,1.2498,1.1925,1.1338,1.0915,1.0523,0.9987,0.9623,1.0096,1.0947,1.2126,1.3441,1.4817,1.5853,0.0,1.6166,1.6025,1.5852,1.6369,1.675,1.675,1.7264,1.6884,1.4994,1.5455,1.5359,1.4182,1.4155,1.4189,1.437,1.4853,1.5466,1.6327,1.6954,1.7295,1.7458,1.7234,1.7012,1.6826,1.5139,1.3809,1.2714,1.1422,0.9974,0.8452,0.8117,0.7836,0.75,0.7461,0.7827,0.8395,0.8347,0.8359,0.8247,0.7067,0.6864,0.7306,0.7574,0.8075,0.8599,0.8951,0.9328,0.9665,0.9667,0.9821,0.9977,0.9977,1.0182,1.0391,1.0356,1.0568,1.0914,1.1266,1.1366,1.1575,1.2295,1.2452,1.255,1.2822,1.2881,1.3007,1.3379,1.3132,1.3392,1.4869,1.4362,1.4081,1.4764,1.4639,1.4498,1.4576,1.4025,1.3653,1.3653,1.305,1.2182,1.1187,1.0049,0.8262,0.5804,0.3978,0.2051,0.0054,0.0,-0.0893,-0.2749,-0.301,-0.3166,-0.3166,-0.3157,-0.3865,1.2312,1.1783,1.1457,1.0833,1.0589,1.0263,0.9316,0.9547,1.0008,1.0344,1.1987,1.3718,1.5239,1.6485,1.7348,1.7126,1.7232,1.7131,1.6545,1.7456,1.8234,1.8234,1.9222,1.9011,1.648,1.661,1.6419,1.5255,1.4977,1.5176,1.5617,1.6152,1.6814,1.7562,1.7791,1.8143,1.8572,1.7803,1.7383,1.7373,1.556,1.4143,1.3174,1.1577,1.0031,0.862,0.862,0.862,0.8607,0.8428,0.8909,0.9666,0.9532,0.9566,0.951,0.8014,0.7729,0.8111,0.8139,0.8607,0.9232,0.9279,0.9827,1.049,1.0447,1.0725,1.0971,1.0976,1.1022,1.1082,1.1057,1.1225,1.1484,1.1981,1.208,1.2236,1.2774,1.2881,1.2881,1.2881,1.2881,1.3045,1.3501,1.317,1.3205,1.4093,1.3847,1.3864,1.4672,1.4809,1.47,1.4432,1.4132,1.3912,1.373,1.2777,1.1892,1.1264,0.9502,0.7603,0.5705,0.4243,0.2605,0.0835,0.0501,-0.0167,-0.1064,-0.162,-0.1953,-0.2009,-0.212,-0.2619,1.0778,0.9814,0.9071,0.9432,0.8788,0.8131,0.8031,0.9237,1.0365,1.0369,1.2936,1.5542,1.6919,1.8174,1.9127,1.9119,1.9628,1.9555,1.8251,1.8893,1.9405,1.9405,2.0477,2.0747,0.0,1.8053,1.7101,1.677,1.6275,1.7014,1.9352,1.8628,1.8678,1.9761,1.902,1.8582,1.8562,1.7803,1.7383,1.7373,1.5182,1.3822,1.3105,1.0828,0.9686,0.9666,0.9666,0.9666,0.9693,0.9907,0.992,0.9713,0.998,0.9927,0.9686,0.9601,0.9416,0.9137,0.9152,0.9182,0.9254,0.9589,1.0262,1.089,1.0864,1.1172,1.1471,1.1494,1.1601,1.1777,1.1787,1.2295,1.2822,1.2871,1.2881,1.2881,1.2881,1.2881,1.2881,1.2881,1.2881,1.2929,1.2929,1.2929,1.292,1.2958,1.292,1.3379,1.4634,1.4788,1.4381,1.3281,1.3604,1.3692,1.3065,1.2318,1.1631,1.1062,1.0457,0.8595,0.5153,0.4599,0.3926,0.2941,0.1671,0.0726,-0.0056,-0.0782,-0.1285,-0.151,-0.2009,-0.2619,0.9862,0.92,0.8979,0.8564,0.8879,0.9316,0.9316,1.0628,1.2181,1.3095,1.4276,1.5457,1.6902,1.8332,1.9175,1.885,1.9781,2.021,1.9501,2.0171,2.0657,2.0657,2.1756,0.0,0.0,0.0,0.0,1.8451,1.8225,1.821,1.8488,1.8958,1.9188,1.9316,1.9401,1.9482,1.9482,1.8643,1.8213,1.8203,1.63,1.5036,1.4285,1.2375,1.1243,1.071,1.0198,0.9973,0.9967,0.9866,1.0,1.0254,1.0154,1.0174,1.0241,1.004,0.9907,0.978,0.9613,0.9639,0.9794,0.9918,1.0816,1.1924,1.1906,1.2358,1.2805,1.2841,1.266,1.2511,1.255,1.2715,1.2881,1.2881,1.2881,1.2881,1.2881,1.2881,1.2881,1.2881,1.2881,1.2881,1.2881,1.2881,1.2881,1.2881,1.3238,1.3631,1.4095,1.4471,1.4607,1.4205,1.3969,1.3731,1.357,1.248,1.1665,1.1363,0.9923,0.83,0.6637,0.5549,0.4388,0.3049,0.2728,0.1783,0.0,-0.0223,-0.0391,-0.0504,-0.0671,-0.1174,0.93,0.9026,0.9141,0.9239,0.9892,1.059,1.0663,1.2307,1.4171,1.5083,1.6205,1.742,1.8755,1.9758,2.0263,2.0039,2.0838,2.1383,2.0797,2.1257,2.1776,2.1924,2.2589,2.2775,0.0,0.0,0.0,1.997,1.9735,1.9635,1.9574,1.9953,2.0012,1.9761,1.9832,1.9844,1.9697,1.915,1.8566,1.8109,1.677,1.5635,1.4766,1.329,1.2349,1.1809,1.0954,1.0521,1.0414,1.0227,1.0314,1.0604,1.0347,1.0388,1.0611,1.0829,1.0849,1.0641,1.0018,1.0127,1.0567,1.0667,1.1752,1.3074,1.305,1.3376,1.3681,1.3681,1.3328,1.2881,1.2881,1.2881,1.292,1.3066,1.3105,1.3145,1.3301,1.3213,1.3105,1.3105,1.2988,1.2881,1.2881,1.2881,1.2881,1.2881,1.3238,1.3494,1.3511,1.401,1.4276,1.4129,1.3711,1.3396,1.3127,1.2087,1.1382,1.1285,0.957,0.839,0.7901,0.6526,0.5038,0.3539,0.3335,0.2339,0.0558,0.0167,0.0,0.0,0.0,-0.0392,0.897,0.92,0.9753,1.1155,1.1492,1.1652,1.1971,1.4316,1.6353,1.6449,1.8631,2.0833,0.0,0.0,2.2416,2.2416,2.2909,2.2907,2.2098,2.2277,2.2695,0.0,0.0,0.0,0.0,0.0,0.0,2.148,0.0,2.1281,2.2425,2.1738,2.1279,2.123,2.042,1.9775,1.9355,1.9336,1.8638,1.7243,1.6533,1.5739,1.4806,1.3608,1.3057,1.2908,1.1894,1.133,1.0995,1.0995,1.0887,1.0681,1.0681,1.0688,1.0841,1.2018,1.2175,1.1712,1.0618,1.0739,1.1452,1.1753,1.2912,1.4182,1.4218,1.4194,1.4107,1.4087,1.3545,1.291,1.2891,1.2881,1.2988,1.3408,1.3506,1.3613,1.4014,1.3789,1.3496,1.3477,1.3154,1.2881,1.2881,1.2881,1.2881,1.2881,1.2881,1.2939,1.2998,1.3458,1.3537,1.3066,1.2939,1.2608,1.1864,1.1197,1.0797,1.0788,0.9523,0.8785,0.8791,0.7371,0.5914,0.4522,0.355,0.2561,0.156,0.0558,0.0056,0.0,0.0,-0.0392,0.9268,0.9831,1.0731,1.1154,1.2035,1.321,1.4186,1.6692,1.9153,1.9994,2.0746,2.1397,0.0,0.0,0.0,2.251,2.339,0.0,2.3769,2.3248,0.0,2.3125,0.0,2.3135,2.3135,2.3135,0.0,0.0,2.2581,2.2476,2.2529,2.2305,2.1894,2.125,2.1016,2.0693,2.0244,1.9912,1.9228,1.827,1.805,1.755,1.6684,1.5739,1.473,1.376,1.2908,1.1928,1.0995,1.0995,1.1196,1.1469,1.1469,1.1841,1.2405,1.2747,1.2776,1.2679,1.2385,1.2398,1.2578,1.2639,1.3382,1.4218,1.4195,1.4391,1.4551,1.4228,1.375,1.3271,1.2959,1.2881,1.2988,1.3408,1.3506,1.3535,1.3643,1.3584,1.3418,1.3105,1.2959,1.2881,1.2881,1.2881,1.2881,1.2881,1.2881,1.2929,1.2939,1.3066,1.3076,1.2939,1.2929,1.2608,1.1864,1.12,1.081,1.0797,0.9523,0.8785,0.8791,0.7371,0.5914,0.4522,0.4275,0.3453,0.2007,0.1394,0.0726,0.0,0.0,-0.0112,1.0666,1.1282,1.2024,1.3082,1.4096,1.5214,1.6282,1.8775,2.1051,2.1789,2.2347,2.2775,2.2938,2.3038,0.0,0.0,0.0,0.0,2.4394,2.3682,2.3213,0.0,2.3262,0.0,2.3135,2.3135,2.3135,0.0,2.3135,2.3037,2.2803,2.2617,2.2295,2.1807,2.1435,2.1016,2.0566,1.9951,1.9492,1.9199,1.8818,1.8389,1.7862,1.68,1.5904,1.5162,0.0,1.3415,1.2632,1.2632,1.276,1.2901,1.2901,1.3155,1.3622,1.4161,1.4245,1.4169,1.4489,1.4496,1.4257,1.3726,1.4085,1.4756,1.4756,1.4764,1.4736,1.4492,1.4111,1.3682,1.3262,1.3291,1.3486,1.3721,1.3926,1.4121,1.4307,1.4043,1.3603,1.2998,1.2881,1.2881,1.2881,1.2881,1.2881,1.2881,1.2881,1.2881,1.2881,1.2881,1.2881,1.2881,1.2881,1.2744,1.2311,1.158,1.0759,0.9991,0.9218,0.8606,0.8193,0.7139,0.6081,0.4973,0.4223,0.3287,0.2174,0.1282,0.0559,0.0,0.0,0.0,1.2581,1.3183,1.3586,1.5833,1.6688,1.728,1.8243,2.044,2.2408,2.2512,0.0,2.4356,2.4703,2.425,2.3889,2.4127,0.0,2.4114,2.4618,2.3898,2.3428,2.375,2.3457,2.3203,2.3144,2.3193,2.3203,2.3144,2.3193,2.3203,2.3144,2.2793,2.2549,2.2432,2.165,2.1016,2.0566,1.9824,1.9609,1.9902,1.916,1.8779,1.863,1.7399,1.6788,1.6648,1.5745,0.0,1.4678,1.4678,1.4606,1.4476,1.4476,1.4541,1.478,1.5764,1.5945,1.578,1.6398,1.6387,1.5926,1.4768,1.4805,1.541,1.541,1.5156,1.4863,1.4805,1.4512,1.4121,1.3701,1.3857,1.4097,1.4209,1.4502,1.4893,1.5254,1.4658,1.3786,1.3105,1.292,1.2881,1.2881,1.2881,1.2881,1.2881,1.2881,1.2881,1.2881,1.2881,1.2881,1.2881,1.2881,1.2881,1.2899,1.2045,1.0753,0.8909,0.8797,0.8368,0.7427,0.6902,0.6253,0.5542,0.3889,0.273,0.2119,0.0781,0.0112,0.0,0.0,0.0,1.3962,1.4926,1.5833,1.7283,1.7888,1.8407,1.9604,2.1781,0.0,0.0,2.4658,2.5229,2.4872,2.425,2.4247,2.5647,2.5007,2.4812,2.6249,2.5137,2.4092,0.0,2.3721,2.3535,2.3174,2.3467,0.0,0.0,0.0,2.3516,2.3154,2.3066,2.2715,2.2021,2.1504,2.1016,2.0566,2.042,2.0195,1.9912,1.9766,1.9512,1.916,1.8579,1.7793,1.7054,1.6571,0.0,1.4678,1.4678,1.4941,1.5321,1.5321,1.5725,1.6275,1.6542,1.6523,1.6471,1.6247,1.6133,1.5986,1.537,1.5294,1.541,1.541,1.5361,1.5234,1.4883,1.4727,1.457,1.4141,1.4029,1.4228,1.459,1.4727,1.4805,1.4873,1.4219,1.3574,1.3428,1.3125,1.2881,1.2881,1.2881,1.2881,1.2881,1.2881,1.2881,1.2881,1.2881,1.2881,1.2881,1.2881,1.2881,1.2899,1.2045,1.0753,0.8909,0.8797,0.8368,0.7427,0.6902,0.6253,0.5542,0.4058,0.2785,0.1615,0.1116,0.0615,0.0,0.0,0.0,1.661,1.7193,1.7795,1.9621,1.9849,2.013,2.1909,0.0,0.0,0.0,2.4944,2.5084,2.483,2.4676,0.0,2.5706,2.5499,2.5645,2.6629,2.541,0.0,2.4141,2.4111,2.3857,0.0,2.3535,0.0,0.0,0.0,2.3359,2.3154,2.3135,2.2852,2.2236,2.1797,2.1357,2.0918,2.0684,2.0459,2.0254,2.0019,1.9805,1.96,1.917,1.8562,1.7896,1.7689,0.0,1.6433,1.6433,1.6603,1.6826,1.6826,1.7044,1.7393,1.7393,1.7256,1.7002,1.6562,1.626,1.5986,1.5557,1.541,1.541,1.541,1.541,1.5371,1.5166,1.5107,1.501,1.458,1.4639,1.4795,1.4785,1.4951,1.499,1.4541,1.4121,1.3711,1.3271,1.3018,1.2881,1.2881,1.2881,1.2881,1.2881,1.2881,1.2881,1.2881,1.2881,1.2881,1.2881,1.2881,1.2686,1.2194,1.1781,1.0879,0.9393,0.8534,0.7765,0.7009,0.6362,0.571,0.5003,0.3953,0.3065,0.245,0.1896,0.1284,0.056,0.095,0.0727,1.9137,1.927,1.9633,2.1865,2.1981,2.2123,2.4051,2.4625,0.0,2.467,2.4513,2.4491,2.4461,2.493,2.5385,0.0,2.607,2.6504,2.7066,2.5839,2.4819,0.0,2.456,0.0,2.3486,2.3721,0.0,0.0,0.0,0.0,2.3135,2.3135,2.2949,2.2519,2.21,2.168,2.124,2.0791,2.0566,2.0634,2.0215,2.0059,2.0039,1.9619,1.918,1.8769,1.8601,0.0,0.0,1.8008,1.8008,1.8008,1.8008,1.8008,1.8008,1.8008,1.7803,1.7441,1.6914,1.6504,1.6123,1.5586,1.541,1.541,1.541,1.5478,1.5527,1.5439,1.5478,1.5459,1.5029,1.5166,1.5322,1.5,1.5107,1.5098,1.4424,1.4077,1.3799,1.3145,1.2939,1.2881,1.2881,1.2881,1.2881,1.2881,1.2881,1.2881,1.2881,1.2881,1.2881,1.2881,1.2881,1.2482,1.1437,1.1283,1.0761,0.9629,0.8271,0.7224,0.6642,0.5873,0.5164,0.4519,0.379,0.34,0.3345,0.2565,0.1898,0.1341,0.1952,0.1507,2.0281,2.0515,2.1075,2.337,2.3908,2.4051,2.4814,0.0,2.4681,2.3642,2.3482,2.337,2.3305,2.4166,0.0,0.0,0.0,2.7334,2.8266,2.7281,2.6094,2.5189,0.0,0.0,2.4346,2.4336,0.0,0.0,0.0,0.0,2.3135,2.3135,2.2949,2.2519,2.21,2.168,2.124,2.0791,2.0566,2.0566,2.0527,2.0508,2.0488,2.0059,1.9629,1.9209,1.8809,0.0,0.0,1.8008,1.8008,1.8008,1.8008,1.8008,1.8008,1.8008,1.7988,1.7842,1.7021,1.6709,1.6533,1.5684,1.541,1.541,1.541,1.5693,1.5918,1.5527,1.5693,1.5908,1.5469,1.5381,1.54,1.5361,1.5088,1.4814,1.4746,1.4111,1.3545,1.3467,1.3145,1.2881,1.2881,1.2881,1.2881,1.2881,1.2881,1.2881,1.2881,1.2881,1.2881,1.2881,1.2881,1.2355,1.0995,1.0547,0.9906,0.8968,0.81,0.7343,0.6642,0.5873,0.5164,0.4519,0.379,0.34,0.34,0.2565,0.2174,0.212,0.2174,0.1786,2.1954,2.265,2.3564,2.5182,2.5295,2.5347,2.6593,0.0,2.4481,2.4222,2.4277,2.425,2.4132,2.5619,2.6764,0.0,0.0,0.0,2.7595,2.6657,2.5892,2.5727,2.59,0.0,0.0,0.0,0.0,0.0,0.0,0.0,2.3135,2.3135,2.3066,2.2891,2.248,2.2178,2.2002,2.1318,2.0967,2.0967,2.0693,2.0566,2.0557,2.0391,2.0068,1.9639,1.9209,0.0,0.0,1.8115,1.8008,1.8008,1.8008,1.8008,1.8008,1.8008,1.7686,1.7187,1.6846,1.6387,1.5879,1.5527,1.541,1.541,1.541,1.5537,1.5635,1.5459,1.5537,1.5635,1.5459,1.541,1.541,1.541,1.5283,1.5088,1.4844,1.4316,1.3809,1.3555,1.3164,1.2881,1.2881,1.2881,1.2881,1.2881,1.2881,1.2881,1.2881,1.2881,1.2881,1.2881,1.2501,1.1864,1.0889,1.0257,0.9614,0.8849,0.77,0.6912,0.6588,0.5496,0.4787,0.4519,0.4239,0.407,0.407,0.3735,0.3345,0.2843,0.2843,0.2232,2.3764,2.4746,2.5981,2.7151,2.6804,2.6688,0.0,0.0,2.4607,2.5168,2.5149,2.5059,2.529,2.686,2.7763,0.0,0.0,2.6971,2.7122,2.6087,2.5679,0.0,0.0,2.588,0.0,0.0,0.0,0.0,0.0,0.0,2.3637,2.3299,2.3135,2.3135,2.2734,2.251,2.251,2.167,2.123,2.123,2.0781,2.0566,2.0566,2.0566,2.0322,1.9893,1.96,0.0,0.0,1.8369,1.8193,1.8184,1.8057,1.8008,1.8008,1.8008,1.7549,1.6904,1.6777,1.624,1.5586,1.5459,1.541,1.541,1.541,1.5498,1.5576,1.5449,1.541,1.541,1.541,1.541,1.541,1.541,1.5312,1.5107,1.4678,1.4258,1.3828,1.3408,1.3086,1.2881,1.2881,1.2881,1.2881,1.2881,1.2881,1.2881,1.2881,1.2881,1.2881,1.2881,1.2039,1.1316,1.0864,1.0167,0.9406,0.8533,0.7289,0.648,0.6258,0.5117,0.4519,0.4519,0.4519,0.4519,0.4519,0.4519,0.4236,0.3622,0.3456,0.2523,2.5561,2.6725,2.8155,2.9207,2.8699,2.8198,2.9214,2.7168,2.5313,2.6285,2.5712,2.5296,2.6293,2.7371,2.7763,2.6637,0.0,0.0,2.7206,2.6087,2.6009,0.0,0.0,2.5473,2.8265,0.0,0.0,0.0,0.0,0.0,2.4787,2.3714,2.3135,2.3135,2.2734,2.251,2.251,2.167,2.123,2.123,2.0781,2.0566,2.0566,2.0566,2.0322,0.0,0.0,0.0,0.0,1.8809,1.8562,1.8523,1.8174,1.8008,1.8008,1.8008,1.7744,1.7314,1.6885,1.6436,1.6047,1.5557,1.541,1.541,1.541,1.5713,1.6027,1.5537,1.541,1.541,1.541,1.541,1.541,1.541,1.5098,1.4678,1.4238,1.3809,1.3389,1.2969,1.2881,1.2881,1.2881,1.2881,1.2881,1.2881,1.2881,1.2881,1.2881,1.2881,1.2881,1.2881,1.1642,1.0813,1.0813,1.0167,0.919,0.7771,0.702,0.6258,0.5542,0.4842,0.4519,0.4519,0.4519,0.4519,0.4519,0.4519,0.4519,0.446,0.3735,0.2554,2.5724,2.6828,2.8015,2.8933,2.921,2.9133,2.8887,2.7327,2.5902,2.5872,2.5988,2.627,2.696,2.8276,2.887,2.7775,2.7855,0.0,0.0,0.0,0.0,2.8299,2.7676,2.7139,0.0,0.0,0.0,0.0,0.0,0.0,2.3637,2.3299,2.3135,2.3135,2.3008,2.2939,2.2939,2.21,2.168,2.167,2.0928,2.0566,2.0566,2.0566,2.0488,0.0,0.0,0.0,0.0,1.8936,1.8562,1.8523,1.8174,1.8008,1.8008,1.8008,1.7549,1.6914,1.6777,1.624,1.5596,1.5459,1.541,1.541,1.541,1.5508,1.5586,1.5449,1.541,1.541,1.541,1.541,1.541,1.541,1.5312,1.5176,1.5039,1.4443,1.3896,1.376,1.3271,1.2881,1.2881,1.2881,1.2881,1.2881,1.2881,1.2881,1.2881,1.2881,1.2715,1.2187,1.1325,1.0813,1.0813,0.9762,0.8732,0.7777,0.702,0.6258,0.5538,0.4838,0.4519,0.4519,0.4519,0.4519,0.4519,0.4519,0.3959,0.2899,0.2176,0.1308,2.6088,2.743,2.8768,2.9578,2.9501,0.0,2.9119,2.7507,2.5965,2.5744,2.6478,2.7233,2.7382,2.866,2.9443,2.8267,2.8096,0.0,0.0,0.0,0.0,2.7361,0.0,0.0,0.0,0.0,0.0,0.0,0.0,0.0,2.3135,2.3135,2.3135,2.3135,2.3135,2.3135,2.3135,2.2305,2.1885,2.1875,2.0986,2.0566,2.0566,2.0566,2.0478,0.0,0.0,0.0,0.0,1.8926,1.8562,1.8523,1.8174,1.8008,1.8008,1.8008,1.7568,1.6982,1.6982,1.6504,1.5889,1.5713,1.5547,1.541,1.541,1.541,1.541,1.541,1.541,1.541,1.541,1.541,1.541,1.541,1.541,1.5371,1.5215,1.4629,1.4038,1.3873,1.335,1.2881,1.2881,1.2881,1.2881,1.2881,1.2881,1.2881,1.2881,1.2881,1.2608,1.1864,1.1216,1.0602,1.0033,0.9249,0.8374,0.7348,0.7128,0.6421,0.5164,0.4948,0.4732,0.4519,0.4519,0.4546,0.4548,0.432,0.35,0.2176,0.1472,0.0696,0.0,2.8271,3.0219,3.0974,2.9752,2.8649,2.9711,2.7749,0.0,2.5853,2.7066,2.7953,2.7589,2.8802,2.9443,2.8426,2.8176,2.8274,0.0,2.7336,0.0,0.0,2.8296,0.0,0.0,0.0,0.0,0.0,0.0,0.0,2.3135,2.3135,2.3135,2.3135,2.3135,2.3135,2.3135,2.2305,2.1885,2.1875,2.0986,2.0566,2.0566,2.0566,2.0322,0.0,0.0,0.0,0.0,1.8818,1.8562,1.8523,1.8174,1.8008,1.8008,1.8008,1.7744,1.7383,1.7344,1.707,1.666,1.6211,1.5791,1.5449,1.542,1.541,1.541,1.541,1.541,1.541,1.541,1.541,1.541,1.541,1.541,1.5293,1.4873,1.4443,1.3951,1.3584,1.3164,1.2881,1.2881,1.2881,1.2881,1.2881,1.2881,1.2881,1.2881,1.2832,1.2559,1.1823,1.1141,1.0226,0.8876,0.8791,0.8156,0.6696,0.7289,0.6745,0.468,0.5164,0.5164,0.4519,0.4529,0.4555,0.4707,0.394,0.3065,0.2184,0.1389,0.0658,2.5656,0.0,2.9826,3.1087,3.0584,2.9685,0.0,2.8168,2.702,2.6427,2.7276,2.8074,2.7965,2.8962,2.9702,2.9443,2.8688,2.794,2.7542,0.0,0.0,2.8882,3.0537,0.0,0.0,0.0,0.0,0.0,0.0,2.3135,2.3135,2.3135,2.3135,2.3135,2.3135,2.3135,2.3135,2.2305,2.1885,2.1875,2.0986,2.0566,2.0566,2.0566,2.0322,0.0,0.0,0.0,1.9248,1.8818,1.8562,1.8523,1.8174,1.8008,1.8008,1.8008,1.7744,1.7334,1.7002,1.6816,1.666,1.6211,1.6056,1.585,1.5508,1.541,1.541,1.541,1.541,1.541,1.541,1.541,1.541,1.541,1.541,1.5293,1.4873,1.4443,1.3951,1.3584,1.3164,1.2881,1.2881,1.2881,1.2881,1.2881,1.2881,1.2881,1.2881,1.2403,1.1774,1.1116,1.0653,1.0087,0.9173,0.8931,0.8156,0.6696,0.7289,0.6961,0.5324,0.5433,0.5164,0.4519,0.4575,0.4711,0.4863,0.3464,0.2632,0.2376,0.0937,0.018,2.5972,2.7371,2.8727,2.9796,2.9463,2.8816,2.8498,0.0,2.656,0.0,0.0,2.7651,2.7422,2.8487,2.9312,2.9069,2.8723,0.0,0.0,0.0,2.9079,2.8914,3.0239,0.0,0.0,0.0,0.0,0.0,0.0,2.3135,2.3135,2.3135,2.3135,2.3135,2.3135,2.3135,2.3135,2.2305,2.1885,2.1875,2.0986,2.0566,2.0557,2.0361,2.0029,0.0,0.0,0.0,1.8682,1.8447,1.835,1.833,1.8105,1.8008,1.8008,1.8008,1.7871,1.7637,1.7402,1.7197,1.6992,1.6748,1.6458,1.6115,1.6025,1.5732,1.541,1.541,1.541,1.541,1.541,1.541,1.541,1.541,1.541,1.5352,1.5117,1.458,1.4009,1.3838,1.3301,1.2881,1.2881,1.2881,1.2881,1.2881,1.2881,1.2774,1.2452,1.203,1.1486,1.0637,1.0409,0.9936,0.9023,0.9125,0.8699,0.7411,0.8009,0.7729,0.6285,0.617,0.5659,0.4728,0.4816,0.4901,0.4918,0.3363,0.2532,0.2458,0.0781,0.0,2.6229,2.7002,2.7427,2.8011,2.7544,2.7033,2.7497,0.0,0.0,0.0,0.0,0.0,2.6904,2.79,0.0,0.0,0.0,0.0,2.7483,2.8156,2.8699,2.8549,2.9722,0.0,0.0,0.0,0.0,0.0,0.0,2.3387,2.3387,2.3222,2.3135,2.3135,2.3135,2.3135,2.3135,2.2305,2.1885,2.1875,2.0986,2.0527,2.0449,2.0156,1.9746,1.9268,0.0,0.0,1.8105,1.8037,1.8008,1.8008,1.8008,1.8008,1.8008,1.8008,1.8008,1.8008,1.8008,1.7734,1.7383,1.7383,1.6875,1.6328,1.6641,1.6211,1.5615,1.5615,1.5518,1.541,1.541,1.541,1.541,1.541,1.541,1.5371,1.5244,1.4648,1.4058,1.4,1.3408,1.29,1.2969,1.292,1.2881,1.2881,1.2822,1.2501,1.1864,1.1669,1.1217,1.0385,1.0294,0.9897,0.8887,0.9427,0.9453,0.8531,0.8989,0.8621,0.7198,0.6902,0.6191,0.4948,0.5067,0.5084,0.4986,0.3443,0.2672,0.2475,0.0806,0.0,2.3738,2.5146,2.6485,2.7256,2.6631,2.6039,2.6816,0.0,0.0,0.0,0.0,0.0,0.0,2.8041,2.8171,0.0,0.0,2.7392,0.0,0.0,3.0216,0.0,0.0,0.0,0.0,0.0,0.0,0.0,0.0,2.4542,2.4542,2.3637,2.3135,2.3135,2.3135,2.3135,2.3135,2.2305,2.1885,2.1875,2.0986,2.0371,2.0029,2.0322,2.0039,1.9287,0.0,1.8936,1.8516,1.8154,1.8008,1.8008,1.8008,1.8008,1.8008,1.8008,1.8008,1.8008,1.8008,1.7734,1.7383,1.7383,1.7295,1.7119,1.6826,1.6641,1.6533,1.6533,1.5996,1.541,1.541,1.541,1.541,1.541,1.541,1.5215,1.4437,1.4175,1.398,1.3672,1.3213,1.2998,1.335,1.3115,1.2881,1.2881,1.2344,1.1922,1.1814,1.1034,1.0463,1.0307,1.0193,1.0053,0.9859,1.0219,1.0294,0.982,0.9694,0.8899,0.7362,0.6652,0.5908,0.5094,0.5121,0.5182,0.5294,0.3581,0.2687,0.2612,0.0831,0.0,2.2687,2.3492,2.4331,2.4655,2.5077,2.5444,2.5115,2.4212,0.0,0.0,0.0,0.0,0.0,0.0,2.7295,2.7698,0.0,2.6403,2.8804,0.0,0.0,0.0,0.0,0.0,0.0,0.0,0.0,0.0,0.0,0.0,2.4787,2.3714,2.3135,2.3135,2.3135,2.3135,2.3135,2.2305,2.1885,2.1875,2.0986,2.0459,2.0254,1.999,1.9658,1.9268,0.0,1.8486,1.8281,1.8086,1.8008,1.8008,1.8008,1.8008,1.8008,1.8008,1.8008,1.8008,1.8008,1.7881,1.7715,1.7715,1.7568,1.7393,1.7412,1.71,1.6665,1.6665,1.6269,1.5762,1.5762,1.5586,1.541,1.541,1.541,1.5303,1.4912,1.4648,1.4424,1.4238,1.3662,1.3281,1.3477,1.3164,1.2881,1.2881,1.2295,1.1665,1.1316,1.0724,1.0217,1.0009,1.0037,1.018,1.0341,1.0481,1.0434,1.0134,0.9993,0.9184,0.7471,0.7278,0.6569,0.5319,0.5254,0.5291,0.5428,0.4082,0.3191,0.2692,0.1315,0.0462,2.1865,2.2262,2.2562,2.1892,0.0,2.4046,2.3541,0.0,0.0,0.0,0.0,0.0,0.0,2.5898,0.0,2.6786,2.5834,2.5844,0.0,0.0,0.0,0.0,0.0,0.0,0.0,0.0,0.0,0.0,0.0,0.0,2.521,2.3887,2.3135,2.3135,2.3135,2.3096,2.2988,2.2256,2.1885,2.1875,2.0986,2.0508,2.0391,1.9844,1.9482,1.9248,1.8594,1.8252,1.8144,1.8047,1.8008,1.8008,1.8008,1.8008,1.8008,1.8008,1.8008,1.8008,1.8008,1.8008,1.8008,1.8008,1.7793,1.7588,1.791,1.7549,1.6967,1.6967,1.6641,1.6172,1.5967,1.5664,1.5439,1.5537,1.5488,1.541,1.541,1.5078,1.4785,1.4785,1.417,1.3652,1.3652,1.3311,1.2939,1.2676,1.2063,1.1446,1.0791,1.0447,1.0144,0.9818,1.0047,1.0314,1.0604,1.0624,1.0398,0.992,1.0098,0.9334,0.739,0.7742,0.7181,0.5428,0.5428,0.5428,0.5428,0.4486,0.368,0.3011,0.2076,0.1275,2.0586,2.1473,2.2145,1.9899,1.991,0.0,2.2889,2.2334,0.0,2.4327,0.0,0.0,0.0,2.5505,2.543,2.5327,2.5183,2.6415,0.0,0.0,0.0,0.0,0.0,0.0,0.0,0.0,0.0,0.0,0.0,0.0,2.6389,2.4307,2.3135,2.3135,2.3135,2.2949,2.2568,2.2119,2.1885,2.1875,2.0986,2.0352,1.9971,2.0322,2.0039,1.9287,1.9219,1.8965,1.8564,1.8164,1.8008,1.8008,1.8008,1.8008,1.8008,1.8008,1.8008,1.8008,1.8008,1.8008,1.8008,1.8008,1.7988,1.7969,1.7998,1.7969,1.792,1.792,1.7324,1.6494,1.5674,1.5439,1.5508,1.5918,1.5703,1.541,1.541,1.5078,1.4785,1.4785,1.4404,1.4038,1.4038,1.374,1.3109,1.2026,1.1567,1.1112,1.0432,1.0207,1.012,1.008,1.0347,1.0598,1.0624,1.0624,1.0231,0.9436,1.0142,0.9418,0.6894,0.7562,0.7181,0.5428,0.5428,0.5428,0.5428,0.4486,0.3949,0.3882,0.3011,0.2544,2.0201,2.0563,2.074,1.9817,1.9807,0.0,0.0,2.1476,2.1635,2.2726,2.332,0.0,0.0,0.0,2.4595,2.5388,2.5254,2.6243,0.0,0.0,0.0,0.0,0.0,0.0,0.0,0.0,0.0,0.0,0.0,0.0,2.6094,2.3711,2.248,2.2744,2.2754,2.2676,2.251,2.21,2.1748,2.1475,2.0859,2.0478,2.0312,2.0215,1.9844,1.9268,1.9004,1.8643,1.8232,1.8076,1.8008,1.8008,1.8008,1.8008,1.8008,1.8008,1.8008,1.8008,1.8008,1.8008,1.8008,1.8008,1.8008,1.8008,1.8008,1.8008,1.7959,1.7695,1.7383,1.6992,1.6387,1.559,1.5177,1.5894,1.5695,1.5439,1.5749,1.5908,1.5918,1.5635,1.5225,1.4932,1.4932,1.4355,1.3566,1.259,1.2038,1.1422,1.0669,1.0265,1.0187,1.0374,1.0815,1.0955,1.0658,1.0264,0.9569,0.856,0.9326,0.8871,0.6785,0.7046,0.6597,0.5428,0.5428,0.5428,0.5428,0.5024,0.4553,0.4015,0.368,0.3211,1.9773,1.975,1.9656,1.9538,0.0,0.0,2.1091,2.1234,2.1507,2.2609,2.2988,0.0,0.0,0.0,0.0,0.0,2.5525,0.0,0.0,0.0,0.0,0.0,0.0,0.0,0.0,0.0,0.0,0.0,0.0,0.0,0.0,2.3693,2.2479,2.2768,2.2473,2.2246,2.2109,2.1826,2.1455,2.1016,2.1005,2.0867,2.0547,2.0117,1.9687,1.9268,1.8975,1.8525,1.8018,1.8154,1.8125,1.8008,1.8008,1.8008,1.8008,1.8008,1.8008,1.8008,1.8008,1.8008,1.8008,1.8008,1.8008,1.8008,1.8008,1.8008,1.7949,1.7666,1.749,1.7314,1.7012,1.6151,1.5473,1.5917,1.5869,1.588,1.6379,1.6611,1.6641,1.6338,1.5918,1.5566,1.5439,1.459,1.3616,1.2712,1.2058,1.1394,1.061,1.0368,1.0367,1.0661,1.1049,1.0995,1.04,0.9951,0.9069,0.7647,0.8156,0.7832,0.6334,0.6523,0.6268,0.5425,0.5428,0.5428,0.5428,0.5428,0.509,0.442,0.442,0.4148,1.916,1.9091,1.9158,0.0,0.0,0.0,2.2464,2.1997,2.1907,2.4251,0.0,2.4457,2.3299,0.0,0.0,0.0,0.0,0.0,0.0,0.0,0.0,0.0,0.0,0.0,0.0,0.0,0.0,0.0,0.0,0.0,0.0,2.4423,2.3311,2.3311,2.2411,2.167,2.124,2.123,2.1016,2.0644,2.1517,2.1517,2.0547,2.0107,1.9687,1.9277,1.9277,1.8799,1.8047,1.8457,1.8389,1.8008,1.8008,1.8008,1.8008,1.8008,1.8008,1.8008,1.8008,1.8008,1.8008,1.8008,1.8008,1.8008,1.8008,1.8008,1.8008,1.8008,1.7705,1.7393,1.7393,1.707,1.6581,1.6015,1.629,1.6855,1.7285,1.7051,1.6685,1.6665,1.6377,1.5928,1.5498,1.4428,1.3208,1.2081,1.1476,1.0883,1.0188,1.0388,1.0681,1.0962,1.1002,1.0659,0.9783,0.965,0.8799,0.6798,0.6719,0.6334,0.5428,0.6203,0.6268,0.5428,0.5428,0.5428,0.5428,0.5428,0.5428,0.5428,0.5428,0.5428,1.8625,1.8695,0.0,1.8603,0.0,0.0,0.0,2.223,0.0,0.0,0.0,2.3192,2.3076,0.0,0.0,0.0,0.0,0.0,0.0,0.0,0.0,0.0,0.0,0.0,0.0,0.0,0.0,0.0,0.0,0.0,0.0,2.4367,2.3275,2.2919,2.2635,2.2049,2.124,2.123,2.1016,2.0634,2.0539,2.0391,2.0098,2.07,2.0151,1.8828,1.8828,1.8516,1.8018,1.8144,1.8125,1.8008,1.8008,1.8008,1.8008,1.8008,1.8008,1.8008,1.8008,1.8008,1.8008,1.8008,1.8008,1.8008,1.8008,1.8008,1.8008,1.8008,1.792,1.7678,1.703,1.7225,1.7512,1.7063,1.6797,1.6738,1.728,1.7519,1.7451,1.6846,1.6621,1.6494,1.6367,1.5046,1.3791,1.3208,1.2399,1.1674,1.1075,1.1296,1.1356,1.1029,1.081,1.0386,0.9498,0.8482,0.753,0.6732,0.6141,0.5686,0.5428,0.562,0.5943,0.6334,0.5686,0.5686,0.6334,0.5686,0.5428,0.5428,0.5428,0.5428,1.8635,1.8697,0.0,1.9062,2.0567,2.2066,2.2172,0.0,0.0,0.0,0.0,2.2858,2.2899,0.0,0.0,0.0,0.0,0.0,0.0,0.0,0.0,0.0,0.0,0.0,0.0,0.0,0.0,0.0,0.0,0.0,0.0,2.4788,2.3734,2.3048,2.26,2.1927,2.0967,2.0801,2.0576,2.0303,2.0312,1.9929,1.9404,2.004,1.9676,1.8623,1.8457,1.834,1.8242,1.8076,1.8008,1.8008,1.8008,1.8008,1.8008,1.8008,1.8008,1.8008,1.8008,1.8008,1.8008,1.8008,1.8008,1.8008,1.8008,1.7725,1.7472,1.7735,1.7263,1.6655,1.6633,1.6919,1.7235,1.7082,1.7107,1.722,1.7552,1.7832,1.7861,1.7344,1.7109,1.6854,1.6438,1.5169,1.3945,1.334,1.2116,1.1323,1.1396,1.1222,1.1127,1.1135,1.0994,1.0384,0.9068,0.8153,0.7198,0.6214,0.5686,0.5456,0.545,0.5459,0.562,0.6203,0.5686,0.5686,0.6203,0.5686,0.5428,0.5428,0.5428,0.5428,1.8971,1.8793,0.0,1.9746,2.0399,0.0,2.1531,2.3631,2.5065,2.3433,0.0,2.3165,2.2542,0.0,0.0,0.0,0.0,0.0,0.0,0.0,0.0,0.0,0.0,0.0,0.0,0.0,0.0,0.0,0.0,0.0,0.0,2.5523,2.4541,2.3458,2.2488,2.1511,2.0594,2.0134,1.9853,1.9993,2.0422,1.9919,1.8562,1.8703,1.8684,1.8484,1.8174,1.8223,1.8555,1.8164,1.8008,1.8008,1.8008,1.8008,1.8008,1.8008,1.8008,1.8008,1.8008,1.8008,1.8008,1.8008,1.8008,1.8008,1.7862,1.7335,1.6725,1.7064,1.5972,1.5043,1.6205,1.6225,1.6017,1.6345,1.7257,1.8008,1.8008,1.8008,1.7998,1.7959,1.757,1.6959,1.6039,1.4855,1.3635,1.2751,1.1162,1.0414,1.1358,1.0635,1.0396,1.1286,1.1334,1.0436,0.8544,0.826,0.744,0.5502,0.5428,0.543,0.5583,0.5443,0.5435,0.5512,0.5435,0.5428,0.5491,0.5428,0.5428,0.5428,0.5428,0.5428,1.8577,1.8625,0.0,0.0,2.1686,2.3203,2.4525,2.4105,2.3171,2.192,2.1947,2.2225,2.2085,0.0,0.0,0.0,0.0,0.0,0.0,0.0,0.0,0.0,0.0,0.0,0.0,0.0,0.0,0.0,0.0,0.0,2.6533,2.5523,2.4377,2.3037,2.2088,2.1261,2.0617,1.9819,1.977,0.0,1.9535,1.8932,1.8633,1.9451,1.9198,1.8135,1.8047,1.8057,1.8135,1.8047,1.8008,1.8008,1.8008,1.8008,1.8008,1.8008,1.8008,1.8008,1.8008,1.8008,1.8008,1.8008,1.8008,1.7862,1.7139,1.706,1.694,1.5671,1.5283,1.5304,1.5193,1.4889,1.4754,1.5053,1.6565,1.8008,1.8008,1.8008,1.791,1.7578,1.6807,1.6181,1.5972,1.4321,1.2795,1.2158,1.1693,1.1637,1.2084,1.1768,1.1467,1.1381,1.0602,0.9554,0.8179,0.7438,0.6568,0.5495,0.5428,0.543,0.5583,0.5443,0.5744,0.6539,0.5818,0.5752,0.6396,0.5752,0.5428,0.5428,0.5428,0.5428,1.8504,0.0,0.0,2.0293,0.0,2.2988,2.3791,2.321,2.2328,2.1741,2.1223,2.1074,0.0,0.0,0.0,0.0,0.0,0.0,0.0,0.0,0.0,0.0,0.0,0.0,0.0,0.0,0.0,0.0,0.0,2.521,2.5443,2.4305,2.3142,2.1898,2.1389,2.0782,1.9981,1.9278,1.9179,1.9657,1.8745,1.833,1.834,1.8871,1.8672,1.8008,1.8008,1.8008,1.8008,1.8008,1.8008,1.8008,1.8008,1.8008,1.8008,1.8008,1.8008,1.8008,1.8008,1.8008,1.8008,1.8008,1.8008,1.7901,1.7196,1.6985,1.6777,1.5705,1.4941,1.4505,1.4675,1.4289,1.3942,1.4295,1.5321,1.6227,1.6227,1.6227,1.6218,1.6133,1.5562,1.5068,1.4877,1.3544,1.2246,1.1458,1.1405,1.1411,1.1417,1.1297,1.1198,1.1195,1.0269,0.9213,0.8112,0.7177,0.633,0.5425,0.5428,0.543,0.5583,0.5029,0.5218,0.626,0.5702,0.562,0.6075,0.5151,0.4953,0.5362,0.4956,0.4953,1.8818,0.0,1.985,2.0631,2.1359,0.0,2.2199,2.2038,2.179,2.1858,2.0818,2.0137,0.0,0.0,0.0,0.0,0.0,0.0,0.0,0.0,0.0,0.0,0.0,0.0,0.0,0.0,0.0,0.0,0.0,2.3467,2.3937,2.2685,2.1541,2.0709,2.0498,2.0042,1.934,1.8772,1.8556,1.8607,1.8135,1.7939,1.8008,1.8008,1.8008,1.8008,1.8008,1.8008,1.8008,1.8008,1.8008,1.8008,1.8008,1.8008,1.8008,1.8008,1.8008,1.8008,1.8008,1.8008,1.8008,1.8008,1.8008,1.7872,1.7388,1.6996,1.6517,1.5977,1.4655,1.3444,1.4226,1.3685,1.3102,1.3557,1.3751,1.3884,1.4213,1.4329,1.4438,1.4613,1.4338,1.3982,1.3569,1.2659,1.1768,1.0938,1.0634,1.0473,1.022,1.0294,1.0371,1.0505,1.0145,0.9294,0.7907,0.7242,0.6478,0.5466,0.5442,0.544,0.562,0.4769,0.4613,0.5375,0.5097,0.4954,0.4957,0.413,0.4275,0.5199,0.4349,0.4549,1.9541,0.0,2.1056,0.0,2.1524,2.1648,0.0,0.0,2.0901,0.0,2.0606,0.0,0.0,0.0,0.0,0.0,0.0,0.0,0.0,0.0,0.0,0.0,0.0,0.0,0.0,0.0,0.0,0.0,2.2548,2.2423,2.2491,2.1549,2.0775,2.0223,1.9333,1.9013,1.9297,1.8514,1.8295,1.8591,1.7865,1.7656,1.8008,1.8008,1.8008,1.8008,1.8008,1.8008,1.8008,1.8008,1.8008,1.8008,1.8008,1.8008,1.8008,1.8008,1.8008,1.8008,1.8008,1.8008,1.8008,1.8008,1.8008,1.7852,1.7005,1.6674,1.6474,1.5233,1.4156,1.3348,1.3185,1.2436,1.1676,1.1771,1.1758,1.2226,1.395,1.4463,1.4605,1.4405,1.3831,1.3242,1.2604,1.1687,1.0938,1.0783,1.0045,0.944,0.928,0.9712,0.9679,0.8856,0.977,0.949,0.7046,0.7437,0.7193,0.5686,0.5437,0.5484,0.5762,0.5436,0.4956,0.4394,0.3531,0.3078,0.308,0.296,0.3411,0.4373,0.4109,0.4596,2.0677,2.0998,2.1324,0.0,2.145,2.185,2.2531,0.0,2.1466,2.1701,2.0609,0.0,0.0,0.0,0.0,0.0,0.0,0.0,0.0,0.0,0.0,0.0,0.0,0.0,0.0,0.0,0.0,0.0,2.1206,2.0693,2.1022,1.9848,1.916,1.8957,1.8478,1.8389,1.8596,1.8202,1.8362,1.8984,1.8366,1.8534,1.9431,1.9431,1.8911,1.8008,1.8008,1.8008,1.8008,1.8008,1.8269,1.8654,1.8202,1.8269,1.8654,1.8212,1.8008,1.8008,1.8008,1.8008,1.8008,1.8008,1.8008,1.7891,1.7235,1.7207,1.7176,1.6141,1.5123,1.431,1.393,1.2829,1.1877,1.171,1.1359,1.1378,1.2427,1.2803,1.2735,1.2483,1.2354,1.2089,1.1646,1.1339,1.0789,0.9708,0.9646,0.9272,0.8051,0.8562,0.8821,0.8261,0.8343,0.7952,0.678,0.6597,0.6242,0.5525,0.5466,0.542,0.5549,0.4953,0.4445,0.4089,0.4177,0.371,0.2672,0.2675,0.321,0.4212,0.3621,0.4163,0.0,0.0,2.1787,2.1292,2.1845,2.2509,0.0,0.0,2.2143,0.0,2.0609,0.0,0.0,0.0,0.0,0.0,0.0,0.0,0.0,0.0,0.0,0.0,0.0,0.0,0.0,0.0,0.0,0.0,1.9822,1.9081,1.9375,1.8414,1.7793,1.7686,1.7686,1.7686,1.7686,1.7767,1.8203,1.9055,1.8839,1.9228,2.0147,2.0344,1.9566,1.8111,1.8287,1.8142,1.7861,1.7969,1.8459,1.9076,1.8287,1.8529,1.9166,1.8337,1.8008,1.8008,1.8008,1.8008,1.8008,1.8008,1.8008,1.7949,1.7637,1.7686,1.7677,1.6871,1.586,1.4895,1.4348,1.3278,1.2151,1.1644,1.1119,1.0887,1.1071,1.1211,1.1276,1.1129,1.1216,1.1269,1.1129,1.1073,1.051,0.9114,0.9324,0.9029,0.7163,0.7749,0.8076,0.74,0.7181,0.685,0.6396,0.6009,0.5656,0.5535,0.547,0.5463,0.5471,0.4824,0.4395,0.4456,0.5373,0.4878,0.272,0.2724,0.3277,0.4325,0.3661,0.4137,0.0,2.2978,0.0,2.2727,2.3372,0.0,0.0,0.0,0.0,0.0,2.0639,0.0,0.0,0.0,0.0,0.0,0.0,0.0,0.0,0.0,0.0,0.0,0.0,0.0,0.0,0.0,0.0,0.0,1.8095,1.7909,1.7537,1.7497,1.7227,1.6753,1.6797,1.6797,1.6797,1.7104,1.7666,1.852,1.8895,1.9037,1.901,1.9527,1.925,1.8487,1.8979,1.8553,1.7451,1.7842,1.8278,1.8626,1.8168,1.8529,1.9166,1.8337,1.8008,1.8008,1.8008,1.8008,1.8008,1.8008,1.8008,1.8008,1.7978,1.7715,1.7348,1.6734,1.5592,1.4368,1.3538,1.2863,1.1998,1.0761,1.0674,1.0713,1.0515,1.0773,1.1096,1.1356,1.1196,1.1096,1.1356,1.0573,0.9944,0.9875,0.9034,0.812,0.7031,0.7686,0.7544,0.5704,0.6985,0.7246,0.5624,0.6203,0.6408,0.583,0.5515,0.5488,0.5766,0.5577,0.5562,0.5672,0.6666,0.5755,0.2861,0.2867,0.3528,0.4659,0.4515,0.4963,0.0,0.0,0.0,2.3216,2.3475,2.3709,2.3337,2.2735,2.2195,2.1859,2.1041,0.0,0.0,0.0,0.0,0.0,0.0,0.0,0.0,0.0,0.0,0.0,0.0,0.0,0.0,0.0,0.0,0.0,0.0,1.7794,1.8124,1.7422,1.7076,1.7388,1.7378,1.7616,1.8086,1.7986,1.8475,1.9599,1.9472,1.9804,2.0538,2.0311,1.9681,1.8844,1.8594,1.8066,1.7393,1.7549,1.7845,1.8187,1.8048,1.7893,1.7624,1.7025,1.6401,1.5949,1.625,1.6701,1.717,1.7485,1.7793,1.8008,1.8008,1.7474,1.6816,1.6678,1.5345,1.3915,1.3637,1.249,1.0914,0.9115,0.9194,0.9685,0.9681,1.0036,1.0536,1.1266,1.1483,1.1553,1.166,1.1346,1.0945,1.0354,0.952,0.8639,0.7692,0.788,0.779,0.7125,0.7116,0.6968,0.6431,0.6109,0.5888,0.5661,0.5566,0.5555,0.5661,0.5525,0.5597,0.5775,0.6098,0.5493,0.401,0.4562,0.48,0.4704,0.4624,0.4738,2.296,0.0,0.0,0.0,0.0,2.4533,2.3621,0.0,2.311,2.2585,2.1985,0.0,0.0,0.0,0.0,0.0,0.0,0.0,0.0,0.0,0.0,0.0,0.0,0.0,0.0,0.0,0.0,0.0,0.0,0.0,1.8454,1.7677,1.7388,1.7749,1.7739,1.8051,1.8677,1.8532,1.894,1.9908,1.9968,2.0184,2.0533,2.0258,1.9518,1.8392,1.7494,1.7042,1.6953,1.71,1.7256,1.7369,1.7191,1.6674,1.5914,1.5274,1.4656,1.416,1.4518,1.5172,1.5881,1.6379,1.6652,1.6903,1.7042,1.6645,1.607,1.572,1.4736,1.36,1.331,1.205,1.0484,0.9135,0.8956,0.9242,0.9612,0.9762,1.0262,1.1601,1.1848,1.1888,1.2143,1.1958,1.1703,1.137,1.0395,0.9518,0.8918,0.8603,0.8355,0.8027,0.7502,0.7034,0.6831,0.6367,0.6087,0.6139,0.6095,0.6248,0.678,0.6272,0.6244,0.6873,0.6829,0.6607,0.619,0.6084,0.5705,0.5237,0.5237,0.4958,0.0,0.0,0.0,0.0,0.0,0.0,2.3959,0.0,2.5321,2.379,2.3492,2.3648,0.0,0.0,0.0,0.0,0.0,0.0,0.0,0.0,0.0,0.0,0.0,0.0,0.0,0.0,0.0,0.0,1.8553,1.8529,1.8416,1.8337,1.8159,1.7667,1.7633,1.7868,1.835,1.8585,1.8976,1.9432,2.0237,1.9953,1.8727,1.9262,1.8646,1.7071,1.5742,1.5517,1.6004,1.6461,1.6334,1.5957,1.5577,1.4883,1.4028,1.3197,1.2905,1.2905,1.289,1.3473,1.4197,1.447,1.4585,1.4676,1.5031,1.5084,1.4879,1.3954,1.3673,1.3455,1.2519,1.1539,1.0783,1.0783,1.0034,0.9526,1.0243,1.0077,1.033,1.2296,1.2228,1.2081,1.2887,1.2389,1.2074,1.2887,1.16,1.0604,1.0494,0.9824,0.9005,0.8156,0.8027,0.7637,0.6798,0.684,0.7022,0.727,0.7047,0.753,0.9005,0.7744,0.7668,0.8963,0.9105,0.9216,0.9221,0.7151,0.6187,0.6338,0.6261,0.5628,2.1597,0.0,0.0,0.0,0.0,0.0,0.0,0.0,0.0,2.3536,2.3665,2.3921,0.0,0.0,0.0,0.0,0.0,0.0,0.0,0.0,0.0,0.0,0.0,0.0,0.0,0.0,0.0,0.0,1.9851,1.9789,2.037,1.9643,1.9174,1.9033,1.9143,1.9275,1.9368,1.9445,1.955,1.971,1.9381,1.9083,1.8661,1.7145,1.6243,1.5732,1.3596,1.2777,1.2977,1.4024,1.3868,1.2977,1.3486,1.2412,1.0597,1.0692,1.0267,0.9734,1.0101,1.0765,1.1445,1.1881,1.234,1.2661,1.2747,1.2892,1.2961,1.2677,1.2631,1.2439,1.1465,1.1013,1.0634,0.9895,0.9447,0.951,1.0969,1.1198,1.1306,1.2196,1.2507,1.294,1.3726,1.3183,1.2757,1.2948,1.16,1.0618,1.0541,1.0358,1.0168,0.9907,0.8737,0.7956,0.7922,0.6826,0.6391,0.7145,0.658,0.6683,0.7583,0.6678,0.6434,0.7099,0.6949,0.7342,0.8237,0.833,0.8031,0.7326,0.5068,0.3439,0.0,0.0,0.0,0.0,0.0,0.0,2.5034,2.4703,2.4366,0.0,2.4232,2.4293,2.368,0.0,0.0,0.0,0.0,0.0,0.0,0.0,0.0,0.0,0.0,0.0,0.0,2.0216,2.0357,2.0724,2.0519,2.0614,2.1311,2.0494,2.0043,2.0043,1.9877,1.9798,1.9798,1.9798,1.9643,1.9319,1.8927,1.8147,1.7059,1.5441,1.4296,1.3494,1.1052,1.0027,1.0089,1.0117,1.0085,1.0101,1.0626,0.9255,0.7053,0.7292,0.7021,0.6631,0.6889,0.7583,0.8317,0.9141,0.9661,1.0084,1.0574,1.1118,1.1649,1.1649,1.1977,1.215,1.162,1.1755,1.189,1.1304,1.137,1.1839,1.2733,1.2885,1.3002,1.3404,1.3459,1.3664,1.4362,1.347,1.2741,1.2972,1.16,1.0744,1.1045,1.0478,1.0047,1.0047,0.8463,0.7489,0.7757,0.6526,0.6069,0.6635,0.6218,0.5956,0.6043,0.5038,0.4397,0.4334,0.4589,0.5588,0.7149,0.8152,0.8389,0.7706,0.4595,0.2812,0.0,0.0,0.0,0.0,0.0,0.0,2.4217,2.4381,2.4707,0.0,0.0,2.4544,2.3929,2.3816,2.3828,0.0,0.0,0.0,0.0,0.0,0.0,0.0,0.0,0.0,2.0892,2.091,2.0784,2.0534,2.095,2.1377,2.1638,2.1091,2.0806,2.0806,2.0137,1.9747,1.9695,1.9695,1.927,1.8395,1.8347,1.7026,1.4593,1.3792,1.2596,1.0945,0.8415,0.7418,0.7407,0.5726,0.5979,0.7378,0.7393,0.5925,0.3857,0.3857,0.3857,0.3857,0.3857,0.4306,0.5035,0.6254,0.6704,0.7028,0.8327,0.9658,1.0673,1.0926,1.162,1.2305,1.2305,1.3025,1.3673,1.3673,1.4442,1.5118,1.4898,1.49,1.4943,1.5133,1.4564,1.4177,1.4666,1.3235,1.2157,1.2544,1.1281,1.0534,1.1121,0.9939,0.8935,0.8865,0.7335,0.6362,0.6427,0.5734,0.5377,0.5506,0.5204,0.4732,0.3939,0.2497,0.134,0.0531,0.1675,0.3368,0.5555,0.7061,0.7706,0.7395,0.4598,0.3202,0.0,0.0,0.0,0.0,0.0,0.0,2.4054,2.4079,2.4029,0.0,2.3841,2.3853,2.2824,2.2636,2.2786,2.3238,2.2604,0.0,0.0,0.0,0.0,0.0,0.0,0.0,2.2616,2.2628,2.2603,2.2513,2.266,2.2733,2.2752,2.187,2.133,2.133,2.0338,1.9527,1.8927,1.8927,1.8084,1.6514,1.6133,1.4896,1.2854,1.1684,1.0602,0.9474,0.687,0.5741,0.5639,0.3926,0.3789,0.4766,0.4766,0.3987,0.2941,0.2941,0.2941,0.2941,0.2941,0.2599,0.2261,0.3218,0.3623,0.4132,0.6037,0.7952,0.9794,1.1483,1.215,1.2305,1.2305,1.3025,1.3673,1.3673,1.4466,1.5314,1.5622,1.5981,1.586,1.4641,1.4003,1.3738,1.3811,1.217,1.0611,1.0014,0.9151,0.8264,0.7703,0.7321,0.6867,0.6132,0.516,0.4289,0.3705,0.2917,0.2436,0.2346,0.1131,0.0142,-0.0348,-0.2532,-0.428,-0.5509,-0.3698,-0.1465,0.1273,0.5673,0.693,0.5306,0.4683,0.3904,0.0,0.0,0.0,2.3306,0.0,0.0,0.0,2.3565,2.3489,2.3128,2.3364,2.3401,2.2824,0.0,2.2811,2.3027,2.2997,2.3118,2.3655,0.0,0.0,0.0,0.0,0.0,2.3578,2.3565,2.3439,2.3103,2.2431,2.2152,2.2494,2.1115,2.0296,2.0296,1.9262,1.8555,1.8178,1.7752,1.6874,1.5427,1.4807,1.3486,1.1573,1.0185,0.9076,0.8201,0.5656,0.4608,0.4538,0.3209,0.2674,0.2667,0.2667,0.2139,0.1343,0.1343,0.1343,0.1343,0.1343,0.0736,0.02,0.1581,0.2418,0.3309,0.5709,0.8597,1.1249,1.2377,1.2832,1.2879,1.2445,1.3025,1.3818,1.4314,1.5192,1.5904,1.5977,1.6187,1.5829,1.395,1.2573,1.1553,1.1139,0.9811,0.8473,0.7431,0.6919,0.6473,0.6005,0.5556,0.496,0.4022,0.2783,0.188,0.1581,0.0209,-0.0839,-0.1383,-0.2719,-0.4388,-0.6611,-0.8245,-0.9935,-1.1713,-0.9922,-0.8006,-0.5949,-0.1083,0.2702,0.5449,0.5449,0.4908,0.0,0.0,0.0,0.0,0.0,2.338,0.0,0.0,0.0,2.3078,2.299,0.0,0.0,0.0,0.0,0.0,0.0,0.0,0.0,2.4501,0.0,0.0,0.0,0.0,2.3929,2.3929,2.3753,2.3175,2.1995,2.1459,2.1865,2.0148,1.9112,1.9112,1.8148,1.7457,1.7169,1.6472,1.5391,1.3914,1.342,1.2101,1.0116,0.9053,0.8154,0.7379,0.5258,0.4375,0.4403,0.3407,0.2473,0.1806,0.1407,0.087,0.0201,0.0269,0.0336,0.0468,0.0336,-0.0201,-0.0533,0.0973,0.2761,0.4779,0.727,1.052,1.334,1.3078,1.3294,1.3272,1.2349,1.2848,1.3765,1.4536,1.5436,1.6106,1.5784,1.5637,1.4881,1.2816,1.0712,0.9091,0.8363,0.7292,0.6104,0.4973,0.462,0.4486,0.4287,0.3508,0.2652,0.1654,0.0199,-0.0806,-0.0821,-0.2707,-0.4258,-0.5192,-0.647,-0.8715,-1.2091,-1.385,-1.5593,-1.7491,-1.622,-1.4782,-1.3391,-0.9365,-0.3287,0.4518,0.5021,0.4974,0.0,0.0,0.0,0.0,2.1392,0.0,0.0,0.0,2.2261,2.2944,0.0,0.0,0.0,0.0,0.0,0.0,0.0,0.0,2.4281,2.5694,2.6047,2.4217,2.4117,0.0,0.0,2.3703,2.3753,2.3175,2.2698,2.2305,2.1901,2.0148,1.9112,1.9112,1.8148,1.6925,1.5591,1.5213,1.3486,1.0379,1.0929,0.9847,0.7405,0.836,0.8276,0.7451,0.6647,0.6266,0.6151,0.4515,0.3791,0.3526,0.1939,0.1189,0.0974,0.113,0.1584,0.214,0.1396,0.1069,0.1128,0.187,0.542,0.9749,1.1829,1.3556,1.4516,1.3148,1.2803,1.2621,1.173,1.2272,1.3021,1.3157,1.388,1.4529,1.4486,1.3892,1.2734,1.0567,0.8727,0.7493,0.7359,0.5656,0.4071,0.3139,0.2264,0.1463,0.0733,-0.0133,-0.1065,-0.2003,-0.2996,-0.386,-0.4607,-0.6229,-0.7653,-0.8581,-1.051,-1.2312,-1.3852,-1.8311,-2.1058,-2.1881,-2.1785,-2.0606,-1.8365,-1.6094,-1.0365,-0.1624,0.0917,0.2567,0.0,0.0,0.0,0.0,0.0,0.0,2.1495,0.0,2.2013,0.0,0.0,0.0,0.0,0.0,0.0,0.0,2.3308,0.0,0.0,0.0,2.5329,0.0,0.0,0.0,0.0,0.0,0.0,0.0,2.2416,2.1476,2.0384,1.8637,1.7472,1.6934,1.6522,1.5766,1.4641,1.4064,1.268,1.0429,1.0672,1.0101,0.8867,0.9535,0.9748,0.9557,0.9261,0.877,0.8094,0.7555,0.6933,0.6116,0.5394,0.4032,0.2562,0.3097,0.3535,0.3761,0.3416,0.3445,0.407,0.7126,1.0743,1.4082,1.5381,1.5926,1.5553,1.3034,1.2181,1.1723,1.029,1.0215,1.0829,1.192,1.2034,1.2037,1.2394,1.1788,1.035,0.7673,0.6176,0.504,0.3969,0.3015,0.2139,0.1276,0.0805,0.0201,-0.0669,-0.1533,-0.2594,-0.4066,-0.5183,-0.636,-0.7815,-0.9321,-1.0901,-1.2373,-1.5366,-1.7744,-1.9284,-2.2196,-2.4353,-2.5364,-2.5845,-2.5521,-2.4487,-2.2247,-1.8665,-1.3718,-0.6957,-0.3937,1.6757,0.0,0.0,0.0,0.0,0.0,0.0,0.0,0.0,0.0,0.0,0.0,0.0,0.0,0.0,0.0,0.0,2.4155,0.0,2.4148,0.0,0.0,0.0,0.0,0.0,0.0,0.0,2.3401,2.2168,2.0875,1.9662,1.7772,1.6392,1.5725,1.5489,1.4991,1.4213,1.357,1.247,1.1077,1.1058,1.0986,1.0787,1.1056,1.1445,1.1957,1.1781,1.1191,1.0384,1.0451,0.9943,0.9205,0.9363,0.8129,0.6244,0.6067,0.615,0.6315,0.6059,0.6582,0.8162,1.2732,1.5586,1.7325,1.7604,1.6893,1.5332,1.1874,1.0549,0.9849,0.8255,0.7853,0.8186,0.9518,0.9378,0.9063,0.9408,0.8838,0.7536,0.5397,0.4061,0.2867,0.154,0.1073,0.0739,0.0067,-0.0202,-0.0672,-0.1541,-0.2666,-0.4051,-0.5836,-0.7193,-0.8657,-1.0218,-1.1833,-1.3656,-1.5721,-1.8923,-2.1257,-2.2602,-2.4389,-2.5887,-2.7018,-2.8,-2.8544,-2.8623,-2.7209,-2.5575,-2.3501,-1.4735,-1.0968,0.0,0.0,0.0,1.744,0.0,0.0,0.0,0.0,1.9057,0.0,0.0,0.0,0.0,0.0,0.0,0.0,0.0,0.0,0.0,0.0,0.0,0.0,0.0,0.0,0.0,2.4632,2.4741,2.4029,2.238,2.1171,2.0613,1.8121,1.6675,1.6665,1.5809,1.4991,1.4213,1.3892,1.3027,1.1506,1.1841,1.2028,1.2066,1.2404,1.3141,1.4173,1.3712,1.3465,1.3377,1.2559,1.236,1.2701,1.3293,1.3354,1.2833,1.0025,0.9496,1.0073,0.923,1.0768,1.3641,1.7439,1.8988,1.9118,1.8084,1.5949,1.3072,0.9056,0.7324,0.6479,0.5607,0.5418,0.5418,0.548,0.5484,0.548,0.5477,0.4769,0.4125,0.4056,0.2603,0.134,0.134,0.0605,0.0,0.0,-0.0739,-0.1608,-0.2544,-0.4132,-0.5905,-0.7648,-0.9394,-1.0732,-1.1574,-1.3563,-1.5845,-1.8342,-2.0068,-2.1236,-2.1749,-2.3984,-2.5476,-2.6159,-2.7713,-2.8779,-2.9361,-3.0583,-3.0082,-2.7858,-2.1215,-1.7728,0.0,0.0,1.5485,1.593,0.0,0.0,0.0,0.0,0.0,0.0,0.0,0.0,0.0,0.0,0.0,0.0,0.0,0.0,0.0,0.0,0.0,0.0,0.0,0.0,0.0,0.0,0.0,2.4242,2.2103,2.0542,1.9717,1.7772,1.6402,1.579,1.5549,1.4991,1.4213,1.4137,1.3462,1.2214,1.3325,1.3699,1.3506,1.4382,1.511,1.5738,1.5652,1.5187,1.4506,1.4953,1.5135,1.5174,1.5904,1.6525,1.6751,1.4382,1.3423,1.3451,1.4289,1.6748,1.9836,2.1854,2.2357,2.1743,1.9034,1.5324,1.1219,0.7239,0.5517,0.4626,0.3789,0.3593,0.3725,0.4312,0.3511,0.2781,0.3366,0.238,0.0993,-0.0132,-0.0398,-0.08,-0.1995,-0.1471,-0.0672,-0.0067,-0.0739,-0.1873,-0.3334,-0.5107,-0.7062,-0.9382,-1.0846,-1.2421,-1.4371,-1.6757,-1.8876,-2.0677,-2.1753,-2.2668,-2.3369,-2.5492,-2.6547,-2.6366,-2.8561,-2.9713,-2.9815,-3.1362,-3.2033,-3.1794,-2.9808,-2.7829,1.351,1.3876,0.0,1.4732,1.5248,0.0,1.6121,0.0,0.0,0.0,0.0,0.0,0.0,0.0,0.0,0.0,0.0,0.0,0.0,2.2379,0.0,0.0,0.0,0.0,0.0,0.0,2.4439,2.382,2.1818,2.0158,0.0,0.0,1.6325,1.5631,1.5473,1.5167,1.4628,1.4628,1.4431,1.399,1.4932,1.5485,1.5786,1.6028,1.6507,1.7098,1.6961,1.6432,1.5802,1.7042,1.7539,1.7594,1.8546,1.9157,1.932,1.7439,1.6492,1.6429,1.8236,2.1015,2.384,2.4734,2.4147,2.2372,1.835,1.3555,0.8667,0.489,0.3249,0.2403,0.1537,0.1271,0.1268,0.1192,0.0265,-0.053,-0.0263,-0.1119,-0.2244,-0.3364,-0.3107,-0.3113,-0.424,-0.3259,-0.1939,-0.1074,-0.1141,-0.2072,-0.4191,-0.5944,-0.7999,-1.0642,-1.211,-1.396,-1.6555,-1.8759,-2.0712,-2.2258,-2.3328,-2.4259,-2.505,-2.6828,-2.7725,-2.7587,-2.9396,-3.0443,-3.075,-3.2022,-3.3045,-3.3836,-3.4331,-3.3742]},{"header":{"parameterUnit":"m.s-1","parameterCategory":1,"la1":30.6,"la2":29.2853,"lo1":-89.7004,"lo2":-87.6739,"dy":0.0162,"dx":0.0183,"nx":112,"ny":82,"refTime":"2023-07-24T06:00:00:Z","depth":0,"parameterNumber":3,"parameterNumberName":"V-component_of_WINDS"},"data":[0.0,0.0,0.0,0.0,0.0,0.0,0.0,0.0,0.0,0.0,0.0,0.0,0.0,0.0,0.0,0.0,0.0,0.0,0.0,0.0,0.0,0.0,0.0,0.0,0.0,0.0,0.0,0.0,0.0,0.0,0.0,0.0,0.0,0.0,0.0,0.0,0.0,0.0,0.0,0.0,0.0,0.0,0.0,0.0,0.0,0.0,0.0,0.0,0.0,0.0,0.0,0.0,0.0,0.0,0.0,0.0,0.0,0.0,0.0,0.0,0.0,0.0,0.0,0.0,0.0,0.0,0.0,0.0,0.0,0.0,0.0,0.0,0.0,0.0,0.0,0.0,0.0,0.0,0.0,0.0,0.0,0.0,0.0,0.0,0.0,0.0,0.0,0.0,0.0,0.0,1.7585,1.3617,1.0645,0.8566,0.7567,0.7497,0.7009,0.5854,0.0,0.0,0.0,0.0,0.0,0.0,0.0,0.0,0.0,0.0,0.0,0.0,0.0,0.0,0.0,0.0,0.0,0.0,0.0,0.0,0.0,0.0,0.0,0.0,0.0,0.0,0.0,0.0,0.0,0.0,0.0,0.0,0.0,0.0,0.0,0.0,0.0,0.0,0.0,0.0,0.0,0.0,0.0,0.0,0.0,0.0,0.0,0.0,0.0,0.0,0.0,0.0,0.0,0.0,0.0,0.0,0.0,0.0,0.0,0.0,0.0,0.0,0.0,0.0,0.0,0.0,0.0,0.0,0.0,0.0,0.0,0.0,0.0,0.0,0.0,0.0,0.0,0.0,0.0,0.0,0.0,0.0,0.0,0.0,0.0,0.0,0.0,0.0,0.0,0.0,0.0,0.0,0.0,0.0,0.0,0.0,0.0,0.0,0.0,0.0,0.0,0.0,0.0,0.0,1.5584,1.3419,1.1311,0.9977,0.9821,0.7281,0.5208,0.4056,0.0,0.0,0.0,0.0,0.0,0.0,0.0,0.0,0.0,0.0,0.0,0.0,0.0,0.0,0.0,0.0,0.0,0.0,0.0,0.0,0.0,0.0,0.0,0.0,0.0,0.0,0.0,0.0,0.0,0.0,0.0,0.0,0.0,0.0,0.0,0.0,0.0,0.0,0.0,0.0,0.0,0.0,0.0,0.0,0.0,0.0,0.0,0.0,0.0,0.0,0.0,0.0,0.0,0.0,0.0,0.0,0.0,0.0,0.0,0.0,0.0,0.0,0.0,0.0,0.0,0.0,0.0,0.0,0.0,0.0,0.0,0.0,0.0,0.0,0.0,0.0,0.0,0.0,0.0,0.0,0.0,0.0,0.0,0.0,0.0,0.0,0.0,0.0,0.0,0.0,0.0,0.0,0.0,0.0,0.0,0.0,0.0,0.0,0.0,0.0,0.0,0.0,0.0,1.8047,1.5944,1.3462,1.1954,1.0894,1.0352,0.7817,0.548,0.3723,0.3929,0.0,0.0,0.0,0.0,0.0,0.0,0.0,0.0,0.0,0.0,0.0,0.0,0.0,0.0,0.0,0.0,0.0,0.0,0.0,0.0,0.0,0.0,0.0,0.0,0.0,0.0,0.0,0.0,0.0,0.0,0.0,0.0,0.0,0.0,0.0,0.0,0.0,0.0,0.0,0.0,0.0,0.0,0.0,0.0,0.0,0.0,0.0,0.0,0.0,0.0,0.0,0.0,0.0,0.0,0.0,0.0,0.0,0.0,0.0,0.0,0.0,0.0,0.0,0.0,0.0,0.0,0.0,0.0,0.0,0.0,0.0,0.0,0.0,0.0,0.0,0.0,0.0,0.0,0.0,0.0,0.0,0.0,0.0,0.0,0.0,0.0,0.0,0.0,0.0,0.0,0.0,0.0,0.0,0.0,0.0,0.0,0.0,0.0,0.0,0.0,0.0,0.0,1.7959,1.5955,1.3187,1.2011,1.0912,0.9638,0.7489,0.546,0.3726,0.2477,0.0,0.0,0.0,0.0,0.0,0.0,0.0,0.0,0.0,0.0,0.0,0.0,0.0,0.0,0.0,0.0,0.0,0.0,0.0,0.0,0.0,0.0,0.0,0.0,0.0,0.0,0.0,0.0,0.0,0.0,0.0,0.0,0.0,0.0,0.0,0.0,0.0,0.0,0.0,0.0,0.0,0.0,0.0,0.0,0.0,0.0,0.0,0.0,0.0,0.0,0.0,0.0,0.0,0.0,0.0,0.0,0.0,0.0,0.0,0.0,0.0,0.0,0.0,0.0,0.0,0.0,0.0,0.0,0.0,0.0,0.0,0.0,0.0,0.0,0.0,0.0,0.0,0.0,0.0,0.0,0.0,0.0,0.0,0.0,0.0,0.0,0.0,0.0,0.0,0.0,0.0,0.0,0.0,0.0,0.0,0.0,0.0,0.0,0.0,0.0,0.0,0.0,1.6055,1.3991,1.2119,1.1005,0.9554,0.7403,0.5147,0.3787,0.3627,0.2466,0.0,0.0,0.0,0.0,0.0,0.0,0.0,0.0,0.0,0.0,0.0,0.0,0.0,0.0,0.0,0.0,0.0,0.0,0.0,0.0,0.0,0.0,0.0,0.0,0.0,0.0,0.0,0.0,0.0,0.0,0.0,0.0,0.0,0.0,0.0,0.0,0.0,0.0,0.0,0.0,0.0,0.0,0.0,0.0,0.0,0.0,0.0,0.0,0.0,0.0,0.0,0.0,0.0,0.0,0.0,0.0,0.0,0.0,0.0,0.0,0.0,0.0,0.0,0.0,0.0,0.0,0.0,0.0,0.0,0.0,0.0,0.0,0.0,0.0,0.0,0.0,0.0,0.0,0.0,0.0,0.0,0.0,0.0,0.0,0.0,0.0,0.0,0.0,0.0,0.0,0.0,0.0,0.0,0.0,0.0,0.0,0.0,0.0,0.0,0.0,0.0,0.0,1.5988,1.4186,0.0,1.0303,0.8686,0.7128,0.4909,0.3587,0.3599,0.0,0.0,0.0,0.0,0.0,0.0,0.0,0.0,0.0,0.0,0.0,0.0,0.0,0.0,0.0,0.0,0.0,0.0,0.0,0.0,0.0,0.0,0.0,0.0,0.0,0.0,0.0,0.0,0.0,0.0,0.0,0.0,0.0,0.0,0.0,0.0,0.0,0.0,0.0,0.0,0.0,0.0,0.0,0.0,0.0,0.0,0.0,0.0,0.0,0.0,0.0,0.0,0.0,0.0,0.0,0.0,0.0,0.0,0.0,0.0,0.0,0.0,0.0,0.0,0.0,0.0,0.0,0.0,0.0,0.0,0.0,0.0,0.0,0.0,0.0,0.0,0.0,0.0,0.0,0.0,0.0,0.0,0.0,0.0,0.0,0.0,0.0,0.0,0.0,0.0,0.0,0.0,0.0,0.0,0.0,0.0,0.0,0.0,0.0,0.0,0.0,0.0,1.7089,1.5675,1.404,0.0,1.0212,0.86,0.7134,0.4909,0.3591,0.3609,0.0,0.0,0.0,0.0,0.0,0.0,0.0,0.0,0.0,0.0,0.0,0.0,0.0,0.0,0.0,0.0,0.0,0.0,0.0,0.0,0.0,0.0,0.0,0.0,0.0,0.0,0.0,0.0,0.0,0.0,0.0,0.0,0.0,0.0,0.0,0.0,0.0,0.0,0.0,0.0,0.0,0.0,0.0,0.0,0.0,0.0,0.0,0.0,0.0,0.0,0.0,0.0,0.0,0.0,0.0,0.0,0.0,0.0,0.0,0.0,0.0,0.0,0.0,0.0,0.0,0.0,0.0,0.0,0.0,0.0,0.0,0.0,0.0,0.0,0.0,0.0,0.0,0.0,0.0,0.0,0.0,0.0,0.0,0.0,0.0,0.0,0.0,0.0,0.0,0.0,0.0,0.0,0.0,0.0,0.0,0.0,0.0,0.0,0.0,0.0,0.0,0.0,1.6648,1.4924,1.3276,1.1945,1.0825,0.9337,0.7183,0.4919,0.3643,0.0,0.0,0.0,0.0,0.0,0.0,0.0,0.0,0.0,0.0,0.0,0.0,0.0,0.0,0.0,0.0,0.0,0.0,0.0,0.0,0.0,0.0,0.0,0.0,0.0,0.0,0.0,0.0,0.0,0.0,0.0,0.0,0.0,0.0,0.0,0.0,0.0,0.0,0.0,0.0,0.0,0.0,0.0,0.0,0.0,0.0,0.0,0.0,0.0,0.0,0.0,0.0,0.0,0.0,0.0,0.0,0.0,0.0,0.0,0.0,0.0,0.0,0.0,0.0,0.0,0.0,0.0,0.0,0.0,0.0,0.0,0.0,0.0,0.0,0.0,0.0,0.0,0.0,0.0,0.0,0.0,0.0,0.0,0.0,0.0,0.0,0.0,0.0,0.0,0.0,0.0,0.0,0.0,0.0,0.0,0.0,0.0,0.0,0.0,0.0,0.0,0.0,0.0,1.6613,1.4924,1.3276,1.1945,1.0504,0.9133,0.7893,0.595,0.537,0.6759,0.0,0.0,0.0,0.0,0.0,0.0,0.0,0.0,0.0,0.0,0.0,0.0,0.0,0.0,0.0,0.0,0.0,0.0,0.0,0.0,0.0,0.0,0.0,0.0,0.0,0.0,0.0,0.0,0.0,0.0,0.0,0.0,0.0,0.0,0.0,0.0,0.0,0.0,0.0,0.0,0.0,0.0,0.0,0.0,0.0,0.0,0.0,0.0,0.0,0.0,0.0,0.0,0.0,0.0,0.0,0.0,0.0,0.0,0.0,0.0,0.0,0.0,0.0,0.0,0.0,0.0,0.0,0.0,0.0,0.0,0.0,0.0,0.0,0.0,0.0,0.0,0.0,0.0,0.0,0.0,0.0,0.0,0.0,0.0,0.0,0.0,0.0,0.0,0.0,0.0,0.0,0.0,0.0,0.0,0.0,0.0,0.0,0.0,0.0,0.0,0.0,0.0,1.6578,1.4924,1.3276,1.1945,1.055,0.9257,0.8057,0.6729,0.6211,0.6789,0.0,0.0,0.0,0.0,0.0,0.0,0.0,0.0,0.0,0.0,0.0,0.0,0.0,0.0,0.0,0.0,0.0,0.0,0.0,0.0,0.0,0.0,0.0,0.0,0.0,0.0,0.0,0.0,0.0,0.0,0.0,0.0,0.0,0.0,0.0,0.0,0.0,0.0,0.0,0.0,0.0,0.0,0.0,0.0,0.0,0.0,0.0,0.0,0.0,0.0,0.0,0.0,0.0,0.0,0.0,0.0,0.0,0.0,0.0,0.0,0.0,0.0,0.0,0.0,0.0,0.0,0.0,0.0,0.0,0.0,0.0,0.0,0.0,0.0,0.0,0.0,0.0,0.0,0.0,0.0,0.0,0.0,0.0,0.0,0.0,0.0,0.0,0.0,0.0,0.0,0.0,0.0,0.0,0.0,0.0,0.0,0.0,0.0,0.0,0.0,0.0,0.0,1.6719,1.4972,1.331,1.1993,1.0874,0.9603,0.8041,0.7356,0.6459,0.5144,0.0,0.0,0.0,0.0,0.0,0.0,0.0,0.0,0.0,0.0,0.0,0.0,0.0,0.0,0.0,0.0,0.0,0.0,0.0,0.0,0.0,0.0,0.0,0.0,0.0,0.0,0.0,0.0,0.0,0.0,0.0,0.0,0.0,0.0,0.0,0.0,0.0,0.0,0.0,0.0,0.0,0.0,0.0,0.0,0.0,0.0,0.0,0.0,0.0,0.0,0.0,0.0,0.0,0.0,0.0,0.0,0.0,0.0,0.0,0.0,1.92,0.0,0.0,0.0,0.0,0.0,0.0,0.0,0.0,0.0,0.0,0.0,0.0,0.0,0.0,0.0,0.0,0.0,0.0,0.0,0.0,0.0,0.0,0.0,0.0,0.0,0.0,0.0,0.0,0.0,0.0,0.0,0.0,0.0,0.0,0.0,0.0,0.0,0.0,0.0,0.0,0.0,1.7516,1.5444,1.3539,1.2255,1.1308,1.0147,0.8659,0.7578,0.7199,0.7637,0.7495,0.0,0.0,0.0,0.0,0.0,0.0,0.0,0.0,0.0,0.0,0.0,0.0,0.0,0.0,0.0,0.0,0.0,0.0,0.0,0.0,0.0,0.0,0.0,0.0,0.0,0.0,0.0,0.0,0.0,0.0,0.0,0.0,0.0,0.0,0.0,0.0,0.0,0.0,0.0,0.0,0.0,0.0,0.0,0.0,0.0,0.0,0.0,0.0,0.0,0.0,0.0,0.0,0.0,0.0,0.0,0.0,0.0,0.0,0.0,0.0,1.9358,0.0,0.0,0.0,0.0,0.0,0.0,0.0,0.0,0.0,0.0,0.0,0.0,0.0,0.0,0.0,0.0,0.0,0.0,0.0,0.0,0.0,0.0,0.0,0.0,0.0,0.0,0.0,0.0,0.0,0.0,0.0,0.0,0.0,0.0,0.0,0.0,0.0,0.0,0.0,0.0,1.7233,1.5482,1.3776,1.2484,1.1737,1.0816,0.9521,0.844,0.804,0.8569,0.8105,0.0,0.0,0.0,0.0,0.0,0.0,0.0,0.0,0.0,0.0,0.0,0.0,0.0,0.0,0.0,0.0,0.0,0.0,0.0,0.0,0.0,0.0,0.0,0.0,0.0,0.0,0.0,0.0,0.0,0.0,0.0,0.0,0.0,0.0,0.0,0.0,0.0,0.0,0.0,0.0,0.0,0.0,0.0,0.0,0.0,0.0,0.0,0.0,0.0,0.0,0.0,0.0,0.0,2.6664,2.6165,2.6071,2.5612,2.5184,2.4642,2.2157,2.0745,2.0274,2.0079,0.0,0.0,0.0,0.0,0.0,0.0,0.0,0.0,0.0,0.0,0.0,0.0,0.0,0.0,0.0,0.0,0.0,0.0,0.0,0.0,0.0,0.0,0.0,0.0,2.1162,2.0155,0.0,0.0,0.0,0.0,0.0,0.0,0.0,0.0,0.0,0.0,0.0,0.0,1.6348,1.515,1.3933,1.2579,1.2066,1.1383,1.0292,0.9372,0.8797,0.8716,0.8797,0.909,0.0,0.0,0.0,0.0,0.0,0.0,0.0,0.0,0.0,0.0,0.0,0.0,0.0,0.0,0.0,0.0,0.0,0.0,0.0,0.0,0.0,0.0,0.0,0.0,0.0,0.0,0.0,0.0,0.0,0.0,0.0,0.0,2.0179,2.1208,0.0,0.0,0.0,0.0,0.0,0.0,0.0,0.0,0.0,0.0,0.0,0.0,0.0,2.8183,2.9332,2.9083,2.9001,2.9113,2.8736,2.8373,2.8,2.7023,2.6464,2.61,2.4132,0.0,2.1726,2.0825,0.0,0.0,0.0,0.0,0.0,0.0,0.0,0.0,0.0,0.0,0.0,0.0,0.0,0.0,0.0,0.0,0.0,0.0,0.0,0.0,0.0,0.0,2.2664,2.1994,2.191,2.1952,0.0,2.1352,2.1221,2.2382,2.2,0.0,0.0,0.0,0.0,0.0,0.0,0.0,1.5069,1.4399,1.3651,1.2401,1.1995,1.1383,1.0292,0.9697,0.9199,0.8724,0.9119,0.9735,1.0504,1.0098,0.0,0.0,0.0,0.0,0.0,0.0,0.0,0.0,0.0,0.0,0.0,0.0,0.0,0.0,0.0,0.0,0.0,0.0,0.0,0.0,0.0,0.0,0.0,0.0,0.0,0.0,0.0,0.0,0.0,2.0073,2.1395,2.1147,2.1749,2.1635,0.0,0.0,0.0,0.0,0.0,0.0,0.0,0.0,0.0,2.8449,2.9559,3.0142,3.0142,3.0236,3.0302,3.0302,2.9428,2.8905,2.8707,2.7817,2.7373,2.7178,2.5179,2.4147,2.3786,2.2328,2.1807,2.1953,0.0,0.0,0.0,0.0,2.3402,2.4247,2.4561,2.5497,0.0,2.5981,0.0,0.0,0.0,0.0,0.0,0.0,0.0,0.0,0.0,0.0,2.385,2.3291,2.3271,2.3486,2.3896,2.3701,2.3539,0.0,2.3608,2.3115,2.2841,0.0,0.0,0.0,0.0,1.7612,1.6137,1.5012,1.4023,1.3221,1.2579,1.2018,1.1546,1.074,1.0215,1.0001,0.9923,0.9925,1.004,0.9736,0.9866,0.0,0.0,0.0,0.0,0.0,0.0,0.0,0.0,0.0,0.0,0.0,0.0,0.0,0.0,0.0,0.0,0.0,0.0,0.0,0.0,0.0,0.0,0.0,0.0,0.0,0.0,0.0,0.0,2.1973,2.2903,2.1706,2.2994,2.3255,0.0,0.0,0.0,0.0,0.0,0.0,2.8195,2.8688,2.9103,2.9518,3.0957,3.1462,3.0983,3.0975,3.0977,3.0885,2.9617,2.8883,2.8682,2.8139,2.7685,2.7187,2.5567,2.4966,2.5024,2.3532,2.2883,2.2922,2.3713,2.3756,2.3446,2.4388,2.5057,2.5635,2.6354,2.7325,2.8106,2.745,0.0,2.6928,2.5361,0.0,0.0,0.0,0.0,2.4463,2.4572,2.4629,2.459,2.4404,2.4093,2.3858,2.3896,2.389,2.4041,0.0,2.4484,2.4321,2.4225,0.0,0.0,0.0,0.0,1.796,1.7209,1.5762,1.4602,1.3967,1.3135,1.2626,1.2508,1.1656,1.1089,1.1008,1.0494,0.9961,0.9421,0.9001,0.8526,0.7996,0.0,0.0,0.0,0.0,0.0,0.0,0.0,0.0,0.0,0.0,0.0,0.0,0.0,0.0,0.0,0.0,0.0,0.0,0.0,0.0,0.0,0.0,0.0,0.0,0.0,0.0,0.0,0.0,0.0,2.4031,2.5033,0.0,0.0,0.0,0.0,2.5664,2.7735,2.8932,2.8774,2.9736,3.0674,3.1532,3.166,3.1949,3.2481,3.1514,3.0866,3.0611,2.9525,2.8613,2.7857,2.7888,2.7065,2.5605,2.5153,2.4882,2.4668,2.3809,2.3795,2.4304,2.435,2.4657,2.5074,2.5065,2.5774,2.6604,2.5843,2.6154,2.6887,2.6843,2.6792,2.6666,2.6305,2.5615,0.0,0.0,2.482,2.4835,2.4643,2.4688,2.4797,2.4771,2.3803,2.2348,2.0476,2.008,2.0895,0.0,2.4525,2.4647,2.4267,0.0,2.2036,2.1903,2.0295,1.864,1.7286,1.632,1.5256,1.4013,1.3403,1.2926,1.2532,1.2029,1.1542,1.1019,1.0494,0.9885,0.9162,0.7597,0.7212,0.827,1.0608,0.0,0.0,0.0,0.0,0.0,0.0,0.0,0.0,0.0,0.0,0.0,0.0,0.0,0.0,0.0,0.0,0.0,0.0,0.0,0.0,0.0,0.0,0.0,0.0,0.0,0.0,0.0,0.0,2.7291,2.795,0.0,2.7061,2.8022,2.8824,2.9064,2.9978,3.0795,3.1398,3.1309,3.1303,3.1446,3.2001,3.1779,3.0739,3.0735,3.0429,2.9822,2.9263,2.8717,2.8154,2.7504,2.6743,2.5893,2.4909,2.4646,2.4857,2.4498,2.4564,2.5001,2.5726,2.5775,2.5522,2.6104,2.6589,2.688,2.657,2.7038,2.7678,2.7053,2.6412,2.5855,2.5743,2.5466,2.5192,2.5138,2.5053,2.4929,2.481,2.4739,2.4369,2.3159,2.2507,2.1708,2.0139,2.0306,2.1249,2.2857,2.33,2.3529,2.3986,2.3482,2.2538,2.1199,1.9971,1.8633,1.7052,1.5972,1.5141,1.4594,1.398,1.3441,1.2978,1.2803,1.2187,1.1004,1.1137,1.0361,0.8414,0.7776,0.7629,0.7834,0.6065,0.8301,0.0,0.0,0.0,0.0,0.0,0.0,0.0,0.0,0.0,0.0,0.0,0.0,0.0,0.0,0.0,0.0,0.0,0.0,0.0,0.0,0.0,0.0,0.0,0.0,0.0,0.0,3.0448,2.9553,3.0334,3.0464,2.9203,3.0214,3.101,3.1186,3.1617,3.1982,3.222,3.1738,3.1259,3.0779,3.1312,3.0966,2.9607,2.9998,2.9874,2.9267,2.8705,2.8136,2.759,2.665,2.584,2.516,2.458,2.4517,2.4854,2.4913,2.5088,2.5408,2.617,2.6113,2.5714,2.6305,2.6542,2.6562,2.6541,2.6912,2.728,2.6617,2.5935,2.5379,2.5288,2.5226,2.5192,2.5149,2.5037,2.4911,2.4788,2.4676,2.4242,2.2921,2.2428,2.2023,2.1073,2.1231,2.1737,2.2434,2.2621,2.2956,2.3912,2.3638,2.2785,2.1211,1.9935,1.8569,1.7028,1.5978,1.5238,1.5003,1.4556,1.4117,1.3682,1.3365,1.2731,1.1723,1.1394,1.0263,0.8066,0.7529,0.7231,0.7079,0.6397,1.0116,1.835,0.0,0.0,0.0,0.0,0.0,0.0,0.0,0.0,0.0,0.0,0.0,0.0,0.0,0.0,0.0,0.0,0.0,0.0,0.0,0.0,0.0,0.0,0.0,3.1163,3.2645,3.3108,3.0891,3.2188,3.2394,3.0106,3.1568,3.2428,3.1942,3.256,3.2393,3.1016,3.094,3.058,2.9715,2.9696,2.9589,2.9392,2.9392,2.9246,2.8975,2.7858,2.6898,2.6069,2.5402,2.4427,2.3259,2.4203,2.4543,2.4526,2.5009,2.5359,2.5605,2.5603,2.5637,2.5683,2.5633,2.5637,2.5683,2.5629,2.5598,2.5567,2.5428,2.5386,2.5348,2.5072,2.4979,2.4962,2.4828,2.479,2.4746,2.4561,2.4495,2.4426,2.421,2.3675,2.3151,2.2996,2.2456,2.2103,2.2417,2.2644,2.3069,2.3994,2.3448,2.266,2.1949,2.0216,0.0,1.7215,1.6323,1.5624,1.5208,1.5133,1.498,1.4606,1.3683,1.3129,1.3083,1.1298,0.9628,0.8253,0.6849,0.607,0.5985,1.2199,1.7855,2.2776,0.0,0.0,0.0,0.0,0.0,0.0,0.0,0.0,0.0,0.0,0.0,0.0,0.0,0.0,0.0,0.0,0.0,0.0,0.0,0.0,0.0,0.0,3.6489,3.5349,3.6119,3.6468,3.5654,3.5162,3.4606,3.3968,3.3827,3.3808,3.3911,3.2992,3.224,3.1864,3.0713,2.9869,2.9493,2.9474,2.9373,2.9112,2.9112,2.8934,2.8565,2.8254,2.7406,2.6128,2.5631,2.4761,2.3728,2.4192,2.4414,2.4479,2.509,2.5418,2.554,2.5625,2.5659,2.5633,2.566,2.5644,2.5629,2.5554,2.5508,2.5428,2.5247,2.5159,2.5083,2.4904,2.4855,2.4842,2.4818,2.47,2.4559,2.4512,2.4393,2.4118,2.3492,2.3198,2.2903,2.2262,2.1984,2.1987,2.2415,2.236,2.2456,2.314,2.3193,2.2539,2.0775,1.9115,0.0,1.6338,1.5949,1.598,1.6493,1.6128,1.5788,1.5731,1.4863,1.3817,1.2602,1.2092,1.1318,1.0107,1.0276,0.8962,0.5929,1.5306,1.7985,0.0,0.0,0.0,0.0,0.0,0.0,0.0,0.0,0.0,0.0,0.0,0.0,0.0,0.0,0.0,0.0,0.0,0.0,0.0,0.0,0.0,0.0,3.7521,3.9298,3.917,3.8937,3.8532,3.8053,3.6717,3.5835,3.5843,3.4722,3.4266,3.4787,3.3299,3.2366,3.2366,3.1113,3.036,3.0224,2.9909,2.9654,2.9512,2.9159,2.8887,2.8639,2.8018,2.7086,2.5925,2.5164,2.4384,2.3613,2.4097,2.4407,2.46,2.5167,2.5441,0.0,0.0,0.0,0.0,0.0,2.5598,2.5551,2.5473,2.5434,2.5364,2.512,2.5023,2.4962,2.4741,2.467,2.4654,2.4559,2.4461,2.4375,2.4375,2.4284,2.408,2.3621,2.3511,2.3326,2.2738,2.261,2.2603,2.2598,2.2441,0.0,2.2616,2.2752,2.2105,1.9922,1.805,1.672,1.6233,1.5978,1.5994,1.6486,1.62,1.6003,1.6041,1.518,0.0,0.0,0.0,1.2679,1.2509,1.2723,0.0,0.0,0.0,1.9442,1.5774,0.0,0.0,0.0,2.0972,2.1082,0.0,0.0,0.0,0.0,0.0,0.0,0.0,0.0,0.0,0.0,0.0,0.0,0.0,0.0,0.0,0.0,4.0474,4.1625,4.2323,4.1038,3.9735,3.8927,3.7404,3.6431,3.6431,3.5,3.4339,3.4935,3.3578,3.2706,3.2614,0.0,0.0,0.0,0.0,3.021,3.0143,2.9381,2.8931,2.8773,2.7406,2.6322,2.549,2.4427,2.3692,2.3305,2.4045,2.4524,2.4827,2.5234,2.5415,2.5488,2.5484,2.5493,2.5489,2.5484,2.5498,2.5488,2.5394,0.0,0.0,2.5038,2.493,2.4866,2.4556,2.4461,2.4445,2.4266,2.419,2.419,2.419,2.419,2.419,2.419,2.419,2.4113,2.3774,2.3692,2.35,2.2822,2.2695,2.2608,2.2349,2.2304,2.1553,1.9399,1.7194,1.598,1.6516,1.6114,1.5829,1.5903,0.0,0.0,1.5903,1.5086,1.4693,1.4902,1.4059,1.4065,1.5155,1.4995,1.6333,1.9364,2.0258,2.1808,2.4099,2.3536,2.3127,2.2708,2.114,2.0783,0.0,0.0,0.0,0.0,0.0,0.0,0.0,0.0,0.0,0.0,0.0,0.0,0.0,0.0,0.0,3.9717,4.1611,4.3075,4.324,4.1882,4.0579,3.9753,3.8248,3.7257,3.7257,3.6376,3.5587,3.5027,3.4119,3.3293,3.2632,3.1843,3.1384,3.1384,3.0937,3.0378,2.9699,2.9259,2.8557,2.7631,0.0,0.0,2.5112,2.4515,2.3998,2.3653,2.4366,2.4752,2.4818,2.5173,2.534,2.5337,2.5465,2.5493,2.5484,2.5447,2.5421,2.5394,2.5168,2.5072,2.5027,2.4708,2.4588,2.454,2.4339,2.4266,0.0,2.4209,2.419,2.419,2.419,2.419,2.419,2.419,2.419,2.4113,2.3774,2.3692,2.35,2.2822,2.2695,2.2608,2.2349,2.2299,2.169,1.9821,1.7418,1.5845,1.5962,1.5876,1.5979,1.6458,1.6532,1.6532,1.6532,1.6041,1.5587,1.5098,1.5921,1.6568,1.6914,1.9595,2.1189,2.1429,2.3261,2.435,2.4633,2.4113,2.3794,2.3712,2.2366,2.1831,0.0,0.0,0.0,0.0,0.0,0.0,0.0,0.0,0.0,0.0,0.0,3.705,0.0,0.0,4.1115,4.1618,4.2708,4.3497,4.3497,4.2451,4.1405,4.0598,3.8707,3.7643,3.8046,3.7,3.6285,3.6248,3.5514,3.4871,3.4468,3.4064,3.3561,3.2911,3.2314,3.1498,3.0451,2.9509,2.8717,2.815,2.7397,2.6416,2.526,2.5169,2.461,2.3756,2.447,2.4804,2.4818,2.5041,2.5107,2.5049,2.5109,2.5252,2.5398,2.5363,2.5292,2.5187,2.5038,2.4949,2.485,2.4591,2.4495,2.4461,2.4247,2.419,2.419,2.419,2.419,2.419,2.419,2.419,2.4151,2.3996,2.3937,2.3816,2.3323,2.3189,2.3063,2.259,2.25,2.2347,2.1919,2.2101,2.164,1.9633,1.8299,1.7091,1.5961,1.6054,1.6263,1.6263,1.6263,1.6263,1.6263,1.6219,1.6069,1.5711,1.7277,1.8517,1.9273,2.1801,2.336,2.3748,2.4671,2.5081,2.4955,2.4586,2.4308,2.4136,2.3498,2.301,0.0,0.0,0.0,0.0,0.0,0.0,0.0,0.0,3.6411,3.7784,3.8804,3.9796,4.0996,4.1772,4.2569,4.3566,4.3589,4.3497,4.3497,4.28,4.2066,4.1423,3.9478,3.8377,3.8891,3.7753,3.7129,3.7489,3.689,3.6421,3.615,3.6003,3.5405,3.4281,3.3396,3.2371,3.117,2.9734,2.8917,2.8759,2.7965,2.6823,2.5508,2.5709,2.5046,2.3819,2.4472,2.476,2.4818,2.5088,2.5042,2.4823,2.4959,2.5101,2.5192,2.5192,2.5096,2.4949,2.4924,2.4836,2.4716,2.4512,2.4426,2.441,2.4247,2.419,2.419,2.419,2.4133,2.4075,2.4094,2.4036,2.3937,2.3671,2.3588,2.3455,2.2822,2.2695,2.2625,2.2349,2.231,2.2147,2.1665,2.1982,2.1678,1.9922,1.9374,1.8467,1.6436,1.6484,1.6502,1.6024,1.5873,1.5799,1.5799,1.623,1.6507,1.6485,1.8525,2.0125,2.1079,2.2919,2.4308,2.5137,2.5182,2.5183,2.5187,2.4966,2.4717,2.4445,2.4418,2.4043,3.2877,3.4141,3.6512,3.9053,3.9373,3.9876,0.0,0.0,4.2022,4.284,4.4265,4.5086,4.4188,4.4466,4.4735,4.4595,4.3975,4.3497,4.3497,4.28,4.2268,4.2176,4.1313,4.0451,3.9827,3.9588,3.8927,3.7588,3.7434,3.6851,3.5648,3.4961,3.4321,3.3702,3.2564,3.1585,3.0768,2.9591,2.8626,2.793,2.6868,2.6079,2.5491,2.5171,2.469,2.417,2.4409,2.4639,2.4861,2.5582,2.545,2.4879,2.5586,2.5446,2.4861,2.4861,2.4847,2.4804,2.4679,2.4599,2.4495,2.4303,2.4228,2.4228,2.4209,2.419,2.419,2.419,2.3903,2.3627,2.3717,2.3544,2.33,2.3259,2.3277,2.3141,2.2772,2.2695,2.2625,2.2349,2.231,2.2282,2.2192,2.2265,2.2208,2.197,2.0369,1.8781,1.7642,1.7024,1.6682,1.6622,1.6114,1.5799,1.5799,1.6701,1.7235,1.7109,1.9923,2.1369,2.0866,2.3537,2.467,2.3926,2.4978,2.55,2.5447,2.5187,2.5042,2.5001,2.4826,2.4536,3.6784,3.7819,3.9044,4.0915,4.1588,4.2205,4.3833,4.4138,4.4319,4.5074,4.6041,4.6471,4.5742,4.5602,4.5397,0.0,4.4415,4.403,4.3552,4.2922,4.2523,4.2523,4.1937,4.127,4.0643,4.0261,3.9753,3.8964,3.8891,3.8462,3.7434,3.6761,3.5998,3.5013,3.382,3.27,3.1658,3.0306,2.9465,2.9144,2.8028,2.7248,2.6806,2.6426,2.5816,2.5079,2.5169,2.5237,2.5319,2.5188,2.5403,2.5838,2.569,2.5727,2.5763,2.5058,2.4749,2.4663,2.4582,2.4854,2.5153,2.4427,2.462,2.5014,2.4384,2.4006,2.3793,2.3793,2.3558,2.3338,2.3397,2.3323,2.3141,2.2972,2.2923,2.284,2.2527,2.2463,2.2409,2.2321,2.231,2.2192,2.1832,2.2073,2.1961,2.0942,2.0606,2.0016,1.8728,1.8078,1.7588,1.7294,1.6863,1.6563,1.6563,1.7239,1.8146,1.9183,2.0719,2.1808,2.2243,2.3771,2.4681,2.4805,2.5293,2.557,2.5615,2.5428,2.533,2.533,2.5253,2.5114,3.9349,4.0427,4.0967,4.2267,4.3274,4.4015,4.4304,4.4914,4.5614,4.618,4.677,4.7065,4.6554,4.6231,4.5789,4.5204,4.4599,4.4052,4.367,4.2935,4.244,4.244,4.1937,4.1476,4.1307,4.0854,4.0384,4.0002,3.9794,3.9279,3.8411,3.7595,3.6682,3.5612,3.4359,3.3242,3.233,3.0835,3.0108,3.0091,2.9265,2.8522,2.7776,2.7273,2.6651,2.595,2.595,2.595,2.5912,2.556,2.5872,2.6557,2.619,2.6282,2.6489,2.5611,2.5086,2.478,2.4504,2.482,2.5364,2.5493,2.5768,2.5801,2.4613,2.3809,2.3395,2.3673,2.3371,2.2975,2.3052,2.3014,2.2908,2.2652,2.2599,2.2537,2.2349,2.231,2.231,2.231,2.231,2.2147,2.1711,2.2027,2.1869,2.0602,2.1119,2.1248,2.0194,1.9213,1.848,1.8144,1.8007,1.7807,1.7652,1.8163,1.9124,2.0531,2.1468,2.2397,2.3316,2.4062,2.4785,2.5494,2.5522,2.5585,2.5661,2.5574,2.5531,2.5526,2.5517,2.5451,3.8865,4.0488,4.178,4.3441,4.4691,4.553,4.5547,4.5916,4.6275,4.6294,4.7043,4.7482,4.6801,4.6433,4.6176,4.6158,4.4346,4.3159,4.379,4.2685,4.1853,4.1853,4.1296,4.1161,0.0,4.1518,4.1032,4.0239,3.9535,3.8668,3.7575,3.6168,3.5128,3.4575,3.3109,3.2347,3.2313,3.0835,3.0108,3.0091,3.0121,2.9306,2.7787,2.697,2.6612,2.6557,2.6557,2.6557,2.6631,2.7405,2.7255,2.6686,2.742,2.7273,2.6612,2.656,2.6046,2.5274,2.4478,2.4237,2.4752,2.7848,2.7816,2.6291,2.4837,2.3689,2.3133,2.4098,2.3395,2.2384,2.2643,2.2527,2.2321,2.2293,2.231,2.231,2.231,2.231,2.231,2.231,2.231,2.2282,2.2282,2.2282,2.2265,2.222,2.2265,2.2266,2.2215,2.0447,1.9171,1.9145,1.961,1.9645,1.901,1.9617,2.0145,2.0374,2.2299,2.3455,2.3484,2.4514,2.5144,2.5318,2.5492,2.5595,2.5605,2.5593,2.5593,2.56,2.5526,2.5451,3.9188,4.1072,4.2699,4.4575,4.5151,4.5282,4.5282,4.6035,4.6679,4.6431,4.7062,4.7571,4.7077,4.6539,4.6008,4.5508,4.4428,4.3589,4.3291,4.2053,4.1206,4.1206,4.0703,0.0,0.0,0.0,0.0,4.0486,4.0224,3.9501,3.8116,3.7206,3.6471,3.5761,3.4466,3.3744,3.3744,3.229,3.1546,3.1529,3.0818,2.9669,2.8188,2.8461,2.8003,2.7017,2.7277,2.7402,2.7383,2.7108,2.7475,2.8172,2.7897,2.7952,2.8136,2.7585,2.7218,2.6869,2.6057,2.6484,2.7466,2.7816,2.7815,2.7422,2.6276,2.4785,2.3584,2.3898,2.3196,2.2341,2.2409,2.236,2.231,2.231,2.231,2.231,2.231,2.231,2.231,2.231,2.231,2.231,2.231,2.231,2.231,2.231,2.2032,2.1814,2.1704,2.0958,2.0385,2.0382,2.071,2.0845,2.06,2.1187,2.1824,2.2422,2.3095,2.3768,2.4346,2.4276,2.4572,2.5286,2.542,2.5504,2.5605,2.5604,2.5622,2.5679,2.5636,2.5598,3.9887,4.157,4.3004,4.442,4.462,4.4539,4.4843,4.5534,4.5991,4.5741,4.6081,4.6283,4.5843,4.5441,4.4983,4.4484,4.3444,4.2655,4.264,4.1273,4.0315,4.059,4.0336,4.0254,0.0,0.0,0.0,4.0718,4.0463,3.9816,3.8624,3.7724,3.705,3.6586,3.5231,3.437,3.4117,3.3169,3.2649,3.2502,3.121,3.0196,2.9455,2.9851,2.9449,2.851,2.8912,2.8906,2.8613,2.8099,2.8338,2.8938,2.8429,2.8539,2.8957,2.8584,2.8263,2.7903,2.7156,2.7449,2.8077,2.7789,2.7687,2.7564,2.7056,2.5559,2.4058,2.4058,2.3202,2.231,2.231,2.231,2.2378,2.2632,2.2699,2.2767,2.3038,2.2885,2.2699,2.2699,2.2496,2.231,2.231,2.231,2.231,2.231,2.2032,2.1807,2.1728,2.1573,2.1467,2.1448,2.1625,2.1753,2.1848,2.2262,2.2828,2.3527,2.3687,2.4026,2.4684,2.4356,2.4487,2.5182,2.5328,2.5459,2.556,2.5585,2.5625,2.5703,2.5703,2.5661,4.0883,4.1932,4.2669,4.3132,4.3265,4.3485,4.429,4.4389,4.4326,4.429,4.416,4.3923,0.0,0.0,4.3291,4.3291,4.1543,4.0695,4.2002,4.0397,3.9309,0.0,0.0,0.0,0.0,0.0,0.0,4.0827,0.0,3.9606,3.9037,3.7652,3.6857,3.6772,3.5368,3.4252,3.3525,3.3491,3.3281,3.2948,3.1424,3.0889,3.1217,3.0927,3.0761,3.0782,3.1188,3.0919,3.021,3.021,2.9709,2.8952,2.8952,2.897,2.8997,2.9375,2.9035,2.8276,2.7661,2.709,2.6817,2.7857,2.7533,2.6813,2.7168,2.6007,2.4557,2.4523,2.346,2.2361,2.2327,2.231,2.2496,2.3224,2.3393,2.3579,2.4272,2.3883,2.3376,2.3342,2.2784,2.231,2.231,2.231,2.231,2.231,2.231,2.2299,2.2288,2.2287,2.2308,2.2293,2.2299,2.2398,2.2669,2.2832,2.3153,2.3673,2.4021,2.4301,2.4485,2.4685,2.4873,2.5005,2.526,2.5438,2.5499,2.556,2.5625,2.5703,2.5703,2.5661,4.0957,4.1749,4.2252,4.2365,4.2671,4.2874,4.2706,4.2923,4.3019,4.2634,4.2535,4.2451,0.0,0.0,0.0,4.3242,4.2415,0.0,4.2227,4.0883,0.0,4.0054,0.0,4.007,4.007,4.007,0.0,0.0,4.0116,3.9727,3.9022,3.8633,3.7922,3.6806,3.64,3.5842,3.5064,3.4489,3.3643,3.2457,3.2066,3.1338,3.0411,3.056,3.0539,3.0368,3.0782,3.0672,3.021,3.021,2.9552,2.8565,2.8565,2.8412,2.8192,2.8297,2.8198,2.7984,2.7817,2.7683,2.7601,2.7895,2.759,2.7168,2.7269,2.6367,2.5203,2.4644,2.3816,2.2987,2.2446,2.231,2.2496,2.3224,2.3393,2.3444,2.363,2.3528,2.3241,2.2699,2.2446,2.231,2.231,2.231,2.231,2.231,2.231,2.2282,2.2299,2.2293,2.231,2.2299,2.2282,2.2398,2.2669,2.3091,2.3448,2.3691,2.4021,2.4301,2.4485,2.4685,2.4873,2.5005,2.5206,2.5372,2.5507,2.5528,2.5595,2.5703,2.5703,2.5683,4.1241,4.138,4.1252,4.0867,4.1231,4.1519,4.107,4.0961,4.0874,4.0552,4.0314,4.0254,4.0543,4.1561,0.0,0.0,0.0,0.0,4.2252,4.1018,4.0206,0.0,4.029,0.0,4.007,4.007,4.007,0.0,4.007,3.9901,3.9495,3.9174,3.8616,3.777,3.7127,3.64,3.5622,3.4556,3.3761,3.3254,3.2594,3.185,3.1094,3.1104,3.1046,3.0916,0.0,3.1224,3.0685,3.0685,3.006,2.9147,2.9147,2.9034,2.8882,2.9035,2.8886,2.8574,2.8436,2.8146,2.783,2.7682,2.7348,2.7036,2.7036,2.6362,2.5524,2.5101,2.4441,2.3697,2.297,2.3021,2.3359,2.3765,2.412,2.4458,2.478,2.4323,2.3562,2.2513,2.231,2.231,2.231,2.231,2.231,2.231,2.231,2.231,2.231,2.231,2.231,2.231,2.231,2.2411,2.2674,2.31,2.3472,2.3682,2.4014,2.4302,2.4486,2.4692,2.4853,2.4998,2.5235,2.5394,2.5493,2.5534,2.5599,2.5703,2.5703,2.5703,4.1474,4.0876,4.0023,3.9188,3.9553,3.998,3.9572,3.9057,3.8618,3.8603,0.0,3.8048,3.8776,4.016,4.1169,4.1165,0.0,4.1557,4.2213,4.1186,4.0578,4.1136,4.0629,4.0189,4.0087,4.0172,4.0189,4.0087,4.0172,4.0189,4.0087,3.9478,3.9056,3.8853,3.7499,3.64,3.5622,3.4336,3.3964,3.4472,3.3186,3.2527,3.2432,3.2046,3.1908,3.1981,3.2283,0.0,3.1299,3.1299,3.0794,3.0011,3.0011,2.998,2.9972,3.0283,2.9989,2.9369,2.8983,2.8383,2.7724,2.7341,2.6987,2.6691,2.6691,2.6251,2.5744,2.5642,2.5135,2.4458,2.3731,2.4002,2.454,2.4611,2.5118,2.5795,2.642,2.5389,2.3998,2.2699,2.2378,2.231,2.231,2.231,2.231,2.231,2.231,2.231,2.231,2.231,2.231,2.231,2.231,2.2423,2.2683,2.3015,2.3324,2.3672,2.4005,2.4303,2.4484,2.4678,2.485,2.4998,2.5269,2.544,2.5498,2.5574,2.5625,2.5703,2.5703,2.5703,4.1132,4.0189,3.9188,3.8592,3.9025,3.9474,3.8893,3.8303,0.0,0.0,3.7432,3.7404,3.8668,4.016,4.1163,4.1044,4.1619,4.2122,4.2211,4.2043,4.1728,0.0,4.1085,4.0764,4.0138,4.0646,0.0,0.0,0.0,4.073,4.0104,3.9952,3.9343,3.8142,3.7246,3.64,3.5622,3.5368,3.4979,3.4489,3.4235,3.3795,3.3186,3.2507,3.2432,3.276,3.2175,0.0,3.1299,3.1299,3.0633,2.9589,2.9589,2.942,2.921,2.9238,2.9204,2.8965,2.8283,2.7943,2.7689,2.7029,2.6758,2.6691,2.6691,2.6607,2.6387,2.5778,2.5507,2.5236,2.4492,2.4421,2.4644,2.527,2.5507,2.5642,2.5761,2.4628,2.3511,2.3257,2.2733,2.231,2.231,2.231,2.231,2.231,2.231,2.231,2.231,2.231,2.231,2.231,2.231,2.2423,2.2683,2.3015,2.3324,2.3672,2.4005,2.4303,2.4484,2.4678,2.485,2.4998,2.5262,2.5434,2.5496,2.5562,2.5637,2.5703,2.5703,2.5703,4.0854,4.0018,3.9046,3.8096,3.8747,3.9085,3.7009,0.0,0.0,0.0,3.6464,3.6841,3.8602,3.9877,0.0,4.0545,4.1205,4.1849,4.2204,4.2289,0.0,4.1813,4.1762,4.1322,0.0,4.0764,0.0,0.0,0.0,4.046,4.0104,4.007,3.958,3.8514,3.7753,3.6992,3.6231,3.5825,3.5436,3.5081,3.4675,3.4303,3.3947,3.3203,3.2808,3.262,3.2244,0.0,3.1234,3.1234,3.09,3.0355,3.0355,3.0279,3.0125,3.0125,2.9888,2.9448,2.8687,2.8163,2.7689,2.6945,2.6691,2.6691,2.6691,2.6691,2.6623,2.6268,2.6167,2.5998,2.5253,2.5355,2.5625,2.5609,2.5896,2.5964,2.5186,2.4458,2.3748,2.2987,2.2547,2.231,2.231,2.231,2.231,2.231,2.231,2.231,2.231,2.231,2.231,2.231,2.231,2.2422,2.2693,2.2998,2.333,2.3694,2.41,2.4441,2.4648,2.4823,2.4981,2.5152,2.5318,2.5421,2.5449,2.5516,2.5573,2.5658,2.5607,2.5634,4.0577,3.9951,3.9163,3.7872,3.8458,3.8512,3.5489,3.5332,0.0,3.5894,3.6002,3.6653,3.8768,3.9511,3.9847,0.0,4.0336,4.1009,4.1878,4.2166,4.2345,0.0,4.254,0.0,4.0679,4.1085,0.0,0.0,0.0,0.0,4.007,4.007,3.9749,3.9005,3.8278,3.755,3.6789,3.6011,3.5622,3.556,3.5013,3.4742,3.4709,3.3981,3.322,3.251,3.2381,0.0,0.0,3.119,3.119,3.119,3.119,3.119,3.119,3.119,3.0835,3.0209,2.9296,2.8586,2.7926,2.6996,2.6691,2.6691,2.6691,2.681,2.6894,2.6742,2.681,2.6776,2.6031,2.6268,2.6539,2.5981,2.6167,2.615,2.4983,2.4506,2.39,2.2767,2.2412,2.231,2.231,2.231,2.231,2.231,2.231,2.231,2.231,2.231,2.231,2.231,2.231,2.2402,2.2691,2.3007,2.3342,2.3684,2.4192,2.4586,2.479,2.4943,2.5099,2.5303,2.5363,2.5398,2.5406,2.5477,2.5535,2.559,2.5511,2.5561,4.0236,3.9832,3.9428,3.8136,3.7892,3.7571,3.5937,0.0,3.5911,3.658,3.6682,3.74,3.9564,3.9435,0.0,0.0,0.0,3.9585,4.0935,4.1808,4.2582,4.3192,0.0,0.0,4.2168,4.2151,0.0,0.0,0.0,0.0,4.007,4.007,3.9749,3.9005,3.8278,3.755,3.6789,3.6011,3.5622,3.5622,3.5554,3.552,3.5487,3.4742,3.3998,3.3271,3.2577,0.0,0.0,3.119,3.119,3.119,3.119,3.119,3.119,3.119,3.1157,3.0903,2.9482,2.8941,2.8636,2.7165,2.6691,2.6691,2.6691,2.7182,2.7571,2.6894,2.7182,2.7554,2.6793,2.664,2.6674,2.6607,2.6133,2.5659,2.5541,2.4441,2.346,2.3325,2.2767,2.231,2.231,2.231,2.231,2.231,2.231,2.231,2.231,2.231,2.231,2.231,2.231,2.2405,2.2669,2.301,2.3336,2.3671,2.4208,2.4591,2.479,2.4943,2.5099,2.5303,2.5363,2.5398,2.5398,2.5477,2.5493,2.5517,2.5493,2.5543,4.0018,3.9628,3.9023,3.8046,3.7501,3.6708,3.4814,0.0,3.5289,3.608,3.6161,3.6812,3.8997,3.8342,3.7695,0.0,0.0,0.0,3.9594,4.0466,4.1236,4.1982,4.2472,0.0,0.0,0.0,0.0,0.0,0.0,0.0,4.007,4.007,3.9952,3.9648,3.8937,3.8413,3.8108,3.6924,3.6315,3.6315,3.5842,3.5622,3.5605,3.5318,3.4759,3.4015,3.3271,0.0,0.0,3.1376,3.119,3.119,3.119,3.119,3.119,3.119,3.0632,2.977,2.9178,2.8383,2.7503,2.6894,2.6691,2.6691,2.6691,2.6911,2.708,2.6776,2.6911,2.708,2.6776,2.6691,2.6691,2.6691,2.6471,2.6133,2.571,2.4797,2.3917,2.3477,2.2801,2.231,2.231,2.231,2.231,2.231,2.231,2.231,2.231,2.231,2.231,2.231,2.2436,2.2669,2.2959,2.3312,2.3648,2.3986,2.442,2.4716,2.4804,2.5049,2.5214,2.5303,2.5331,2.5339,2.5339,2.5371,2.5406,2.5447,2.5447,2.5508,3.897,3.8656,3.7979,3.72,3.6389,3.5256,0.0,0.0,3.434,3.5284,3.5584,3.6291,3.8209,3.7483,3.6843,0.0,0.0,3.7812,3.8734,3.9601,4.0308,0.0,0.0,4.2232,0.0,0.0,0.0,0.0,0.0,0.0,3.9731,3.9952,4.007,4.007,3.9377,3.8988,3.8988,3.7533,3.6772,3.6772,3.5994,3.5622,3.5622,3.5622,3.5199,3.4455,3.3947,0.0,0.0,3.1816,3.1512,3.1495,3.1275,3.119,3.119,3.119,3.0395,2.9279,2.9059,2.8129,2.6996,2.6776,2.6691,2.6691,2.6691,2.6843,2.6979,2.6759,2.6691,2.6691,2.6691,2.6691,2.6691,2.6691,2.6522,2.6167,2.5423,2.4695,2.3951,2.3224,2.2665,2.231,2.231,2.231,2.231,2.231,2.231,2.231,2.231,2.231,2.231,2.231,2.2643,2.2947,2.3165,2.3522,2.3878,2.4266,2.4607,2.4832,2.4869,2.5149,2.5303,2.5303,2.5303,2.5303,2.5303,2.5303,2.5312,2.5368,2.5391,2.5618,3.6846,3.6616,3.6199,3.5431,3.4203,3.3015,3.2304,3.2377,3.2989,3.441,3.5228,3.6126,3.755,3.716,3.6843,3.769,0.0,0.0,3.8674,3.9601,4.005,0.0,0.0,4.1977,4.1126,0.0,0.0,0.0,0.0,0.0,3.8908,3.9662,4.007,4.007,3.9377,3.8988,3.8988,3.7533,3.6772,3.6772,3.5994,3.5622,3.5622,3.5622,3.5199,0.0,0.0,0.0,0.0,3.2577,3.2313,3.2246,3.1478,3.119,3.119,3.119,3.0734,2.9989,2.9245,2.8467,2.7654,2.6945,2.6691,2.6691,2.6691,2.7215,2.762,2.6911,2.6691,2.6691,2.6691,2.6691,2.6691,2.6691,2.615,2.5423,2.4661,2.3917,2.319,2.2462,2.231,2.231,2.231,2.231,2.231,2.231,2.231,2.231,2.231,2.231,2.231,2.231,2.2849,2.3189,2.3189,2.3522,2.3941,2.4459,2.4685,2.4869,2.4998,2.5203,2.5303,2.5303,2.5303,2.5303,2.5303,2.5303,2.5303,2.5293,2.5371,2.5929,3.5244,3.4806,3.4136,3.3284,3.2017,3.1105,3.1386,3.1575,3.2129,3.3717,3.4488,3.518,3.6103,3.603,3.6133,3.6859,3.6798,0.0,0.0,0.0,0.0,4.0603,4.2414,4.3221,0.0,0.0,0.0,0.0,0.0,0.0,3.9731,3.9952,4.007,4.007,3.9851,3.9732,3.9732,3.8278,3.755,3.7533,3.6248,3.5622,3.5622,3.5622,3.5487,0.0,0.0,0.0,0.0,3.2797,3.2313,3.2246,3.1478,3.119,3.119,3.119,3.0395,2.9296,2.9059,2.8129,2.7012,2.6776,2.6691,2.6691,2.6691,2.686,2.6996,2.6759,2.6691,2.6691,2.6691,2.6691,2.6691,2.6691,2.6522,2.6285,2.6048,2.5017,2.4069,2.3833,2.2987,2.231,2.231,2.231,2.231,2.231,2.231,2.231,2.231,2.231,2.236,2.2563,2.2965,2.3189,2.3189,2.3714,2.4154,2.4478,2.4685,2.4869,2.4979,2.5184,2.5303,2.5303,2.5303,2.5303,2.5303,2.5303,2.5357,2.5441,2.5513,2.6041,3.2505,3.1975,3.1257,3.0898,3.0021,0.0,3.0418,3.0819,3.1498,3.3249,3.3891,3.439,3.5365,3.555,3.5718,3.6508,3.6615,0.0,0.0,0.0,0.0,4.1733,0.0,0.0,0.0,0.0,0.0,0.0,0.0,0.0,4.007,4.007,4.007,4.007,4.007,4.007,4.007,3.8633,3.7905,3.7889,3.6349,3.5622,3.5622,3.5622,3.547,0.0,0.0,0.0,0.0,3.278,3.2313,3.2246,3.1478,3.119,3.119,3.119,3.0429,2.9414,2.9414,2.8586,2.752,2.7215,2.6928,2.6691,2.6691,2.6691,2.6691,2.6691,2.6691,2.6691,2.6691,2.6691,2.6691,2.6691,2.6691,2.6623,2.6353,2.5338,2.4438,2.415,2.3122,2.231,2.231,2.231,2.231,2.231,2.231,2.231,2.231,2.231,2.2398,2.2669,2.2996,2.3264,2.3494,2.3939,2.4321,2.461,2.4654,2.4828,2.5099,2.5163,2.5224,2.5303,2.5303,2.5457,2.5793,2.5813,2.572,2.5513,2.5915,2.6592,0.0,2.8518,2.7934,2.8383,2.8233,2.8277,2.9453,3.0151,0.0,3.2942,3.3423,3.3909,3.5154,3.541,3.5718,3.6384,3.6554,3.6847,0.0,3.9774,0.0,0.0,4.1365,0.0,0.0,0.0,0.0,0.0,0.0,0.0,4.007,4.007,4.007,4.007,4.007,4.007,4.007,3.8633,3.7905,3.7889,3.6349,3.5622,3.5622,3.5622,3.5199,0.0,0.0,0.0,0.0,3.2594,3.2313,3.2246,3.1478,3.119,3.119,3.119,3.0734,3.0108,3.004,2.9567,2.8856,2.8078,2.7351,2.6759,2.6708,2.6691,2.6691,2.6691,2.6691,2.6691,2.6691,2.6691,2.6691,2.6691,2.6691,2.6488,2.5761,2.5017,2.4286,2.3528,2.2801,2.231,2.231,2.231,2.231,2.231,2.231,2.231,2.231,2.2338,2.2426,2.2712,2.3098,2.3518,2.4059,2.4153,2.4375,2.4775,2.4607,2.4741,2.5253,2.5099,2.5099,2.5303,2.536,2.5832,2.6697,2.6762,2.6385,2.561,2.6507,2.7414,2.6568,0.0,2.7092,2.7024,2.7417,2.8048,0.0,2.9813,3.0675,3.1775,3.2796,3.3606,3.3924,3.4823,3.5554,3.5718,3.6228,3.7077,3.8435,0.0,0.0,4.3021,4.2031,0.0,0.0,0.0,0.0,0.0,0.0,4.007,4.007,4.007,4.007,4.007,4.007,4.007,4.007,3.8633,3.7905,3.7889,3.6349,3.5622,3.5622,3.5622,3.5199,0.0,0.0,0.0,3.3339,3.2594,3.2313,3.2246,3.1478,3.119,3.119,3.119,3.0734,3.0023,2.9448,2.9127,2.8856,2.8078,2.7671,2.7452,2.686,2.6691,2.6691,2.6691,2.6691,2.6691,2.6691,2.6691,2.6691,2.6691,2.6691,2.6488,2.5761,2.5017,2.4286,2.3528,2.2801,2.231,2.231,2.231,2.231,2.231,2.231,2.231,2.231,2.249,2.2738,2.3045,2.3927,2.4657,2.5032,2.4538,2.4375,2.4775,2.4607,2.4682,2.5046,2.5022,2.5099,2.5303,2.5947,2.6717,2.7582,2.7714,2.7334,2.6495,2.6839,2.7441,2.6314,2.6088,2.6094,2.6246,2.688,2.7827,2.9254,0.0,3.0689,0.0,0.0,3.3246,3.3863,3.4557,3.5244,3.5897,3.6598,0.0,0.0,0.0,4.1917,4.3069,4.1813,0.0,0.0,0.0,0.0,0.0,0.0,4.007,4.007,4.007,4.007,4.007,4.007,4.007,4.007,3.8633,3.7905,3.7889,3.6349,3.5622,3.5605,3.5267,3.4692,0.0,0.0,0.0,3.2357,3.1952,3.1782,3.1749,3.136,3.119,3.119,3.119,3.0954,3.0548,3.0142,2.9786,2.9431,2.9008,2.8364,2.7772,2.7757,2.7249,2.6691,2.6691,2.6691,2.6691,2.6691,2.6691,2.6691,2.6691,2.6691,2.659,2.6184,2.5253,2.4388,2.3968,2.3038,2.231,2.231,2.231,2.231,2.231,2.231,2.2349,2.2463,2.2625,2.3038,2.3891,2.4523,2.5223,2.6019,2.559,2.5263,2.5223,2.5019,2.5086,2.5446,2.5454,2.5793,2.6476,2.7313,2.7794,2.789,2.8415,2.8226,2.7409,2.7528,2.8066,2.6691,2.619,2.5688,2.6121,2.695,2.8116,2.9746,0.0,0.0,0.0,0.0,0.0,3.4127,3.4607,0.0,0.0,0.0,0.0,4.2119,4.1743,4.1562,4.2726,4.0909,0.0,0.0,0.0,0.0,0.0,0.0,3.9901,3.9901,4.002,4.007,4.007,4.007,4.007,4.007,3.8633,3.7905,3.7889,3.6349,3.5554,3.5419,3.4912,3.4201,3.3372,0.0,0.0,3.136,3.1241,3.119,3.119,3.119,3.119,3.119,3.119,3.119,3.119,3.119,3.0717,3.0108,3.0108,2.9228,2.8281,2.8822,2.8078,2.7046,2.7046,2.6877,2.6691,2.6691,2.6691,2.6691,2.6691,2.6691,2.6623,2.6404,2.5372,2.4472,2.4371,2.3224,2.2344,2.2462,2.2378,2.231,2.231,2.2321,2.2436,2.2669,2.2902,2.3517,2.4766,2.5163,2.5783,2.6951,2.6995,2.6696,2.6061,2.5741,2.5764,2.6177,2.6216,2.6814,2.8063,2.8736,2.8832,2.8275,2.9094,2.9077,2.829,2.8426,2.8887,2.5905,2.6731,2.7667,2.7019,2.831,2.9692,2.9522,0.0,0.0,0.0,0.0,0.0,0.0,3.5095,3.6384,0.0,0.0,4.1385,0.0,0.0,4.1588,0.0,0.0,0.0,0.0,0.0,0.0,0.0,0.0,3.9086,3.9086,3.9731,4.007,4.007,4.007,4.007,4.007,3.8633,3.7905,3.7889,3.6349,3.5284,3.4692,3.5199,3.4709,3.3406,0.0,3.2797,3.207,3.1444,3.119,3.119,3.119,3.119,3.119,3.119,3.119,3.119,3.119,3.0717,3.0108,3.0108,2.9956,2.9651,2.9144,2.8822,2.8636,2.8636,2.7706,2.6691,2.6691,2.6691,2.6691,2.6691,2.6691,2.6353,2.5133,2.4675,2.4337,2.368,2.2885,2.2513,2.3122,2.2716,2.231,2.231,2.25,2.266,2.2695,2.3797,2.4649,2.4883,2.6381,2.7435,2.765,2.8268,2.8282,2.754,2.6817,2.6597,2.7003,2.7186,2.7797,2.889,2.9044,2.939,3.0025,3.0257,2.9958,2.9121,2.9305,2.9473,2.6214,2.7505,2.8868,2.8488,2.9362,3.0458,3.1433,3.184,0.0,0.0,0.0,0.0,0.0,0.0,3.7916,3.9927,0.0,4.2667,4.3518,0.0,0.0,0.0,0.0,0.0,0.0,0.0,0.0,0.0,0.0,0.0,3.8908,3.9662,4.007,4.007,4.007,4.007,4.007,3.8633,3.7905,3.7889,3.6349,3.5436,3.5081,3.4624,3.4049,3.3372,0.0,3.2019,3.1664,3.1326,3.119,3.119,3.119,3.119,3.119,3.119,3.119,3.119,3.119,3.097,3.0683,3.0683,3.0429,3.0125,3.0159,2.9617,2.9011,2.9011,2.818,2.73,2.73,2.6996,2.6691,2.6691,2.6691,2.6505,2.5828,2.5372,2.4983,2.4661,2.3663,2.3004,2.3342,2.2801,2.231,2.231,2.2527,2.2772,2.2947,2.4088,2.5131,2.5739,2.7024,2.797,2.8411,2.8796,2.8668,2.7842,2.7457,2.7449,2.7883,2.8398,2.9032,2.9783,2.9794,3.0006,3.0398,3.049,3.036,3.0016,3.0127,3.0231,2.6525,2.7987,2.9537,2.9721,0.0,3.1056,3.3157,0.0,0.0,0.0,0.0,0.0,0.0,3.7681,0.0,4.2866,4.3423,4.344,0.0,0.0,0.0,0.0,0.0,0.0,0.0,0.0,0.0,0.0,0.0,0.0,3.8635,3.9558,4.007,4.007,4.007,4.0003,3.9817,3.8548,3.7905,3.7889,3.6349,3.552,3.5318,3.437,3.3744,3.3339,3.2205,3.1613,3.1427,3.1258,3.119,3.119,3.119,3.119,3.119,3.119,3.119,3.119,3.119,3.119,3.119,3.119,3.0818,3.0463,3.1021,3.0395,2.9536,2.9536,2.8822,2.801,2.7655,2.7131,2.6742,2.6911,2.6826,2.6691,2.6691,2.6116,2.5609,2.5609,2.4543,2.3646,2.3646,2.3054,2.2525,2.2405,2.2807,2.321,2.3543,2.4761,2.5918,2.6793,2.7603,2.8338,2.8938,2.8994,2.8764,2.8209,2.8125,2.8305,2.8834,2.9408,2.9912,3.0398,3.0398,3.0398,3.0398,3.0472,3.0521,3.0575,3.0652,3.0735,2.6349,2.7984,2.9656,3.0207,3.0806,0.0,3.3303,3.3584,0.0,3.5395,0.0,0.0,0.0,3.8535,4.0696,4.2997,4.3399,4.353,0.0,0.0,0.0,0.0,0.0,0.0,0.0,0.0,0.0,0.0,0.0,0.0,3.7863,3.9279,4.007,4.007,4.007,3.9749,3.9089,3.8311,3.7905,3.7889,3.6349,3.525,3.459,3.5199,3.4709,3.3406,3.3288,3.2848,3.2154,3.1461,3.119,3.119,3.119,3.119,3.119,3.119,3.119,3.119,3.119,3.119,3.119,3.119,3.1157,3.1123,3.1173,3.1123,3.1038,3.1038,3.0006,2.8569,2.7148,2.6742,2.686,2.7571,2.7199,2.6691,2.6691,2.6116,2.5609,2.5609,2.4949,2.4438,2.4438,2.3799,2.317,2.2738,2.3586,2.4384,2.4725,2.6417,2.7618,2.7695,2.8429,2.892,2.8994,2.8994,2.9093,2.9258,2.9042,2.9202,2.9859,2.9777,2.9912,3.0398,3.0398,3.0398,3.0398,3.0472,3.0507,3.0516,3.0575,3.0617,2.6326,2.8564,3.0749,3.0958,3.2164,0.0,0.0,3.5218,3.583,3.6904,3.7684,0.0,0.0,0.0,4.1547,4.3753,4.3741,4.3246,0.0,0.0,0.0,0.0,0.0,0.0,0.0,0.0,0.0,0.0,0.0,0.0,3.7093,3.8131,3.8937,3.9394,3.9411,3.9276,3.8988,3.8278,3.7669,3.7195,3.6129,3.547,3.5182,3.5013,3.437,3.3372,3.2916,3.229,3.1579,3.1309,3.119,3.119,3.119,3.119,3.119,3.119,3.119,3.119,3.119,3.119,3.119,3.119,3.119,3.119,3.119,3.119,3.1106,3.0649,3.0108,2.9431,2.8383,2.7981,2.7808,2.7809,2.8169,2.8288,2.7555,2.7554,2.7571,2.708,2.637,2.5862,2.5862,2.4864,2.41,2.4185,2.4682,2.5209,2.56,2.6918,2.7989,2.8503,2.9714,3.0099,2.9085,2.9599,2.9893,2.9608,2.9355,2.9475,2.9984,2.9924,3.0066,3.0398,3.0398,3.0398,3.0398,3.0428,3.0462,3.0498,3.0521,3.0554,2.66,2.8871,3.1153,3.1573,0.0,0.0,3.545,3.6228,3.7064,3.8002,3.864,0.0,0.0,0.0,0.0,0.0,4.2903,0.0,0.0,0.0,0.0,0.0,0.0,0.0,0.0,0.0,0.0,0.0,0.0,0.0,0.0,3.7011,3.7784,3.827,3.8535,3.8531,3.8294,3.7804,3.7161,3.64,3.566,3.5424,3.5588,3.4844,3.41,3.3372,3.2865,3.2087,3.1207,3.1444,3.1393,3.119,3.119,3.119,3.119,3.119,3.119,3.119,3.119,3.119,3.119,3.119,3.119,3.119,3.119,3.119,3.1089,3.0598,3.0294,2.9989,2.9465,2.8988,2.8647,2.8715,2.9076,2.9248,2.8657,2.8772,2.8822,2.8298,2.7571,2.6962,2.6742,2.5788,2.5077,2.522,2.5711,2.6204,2.6594,2.7547,2.8484,2.9292,3.0356,3.0625,2.9572,3.0179,3.0374,2.9836,2.9661,2.9748,3.0122,3.0042,3.0136,3.0379,3.0398,3.0398,3.0398,3.0398,3.0417,3.0482,3.0482,3.0481,2.7237,2.8844,3.0659,0.0,0.0,0.0,3.5432,3.625,3.7191,3.8623,0.0,3.9139,3.9952,0.0,0.0,0.0,0.0,0.0,0.0,0.0,0.0,0.0,0.0,0.0,0.0,0.0,0.0,0.0,0.0,0.0,0.0,3.6039,3.6768,3.6768,3.7483,3.7533,3.6789,3.6772,3.64,3.5577,3.4941,3.4941,3.5588,3.4827,3.41,3.3389,3.3389,3.256,3.1258,3.1968,3.185,3.119,3.119,3.119,3.119,3.119,3.119,3.119,3.119,3.119,3.119,3.119,3.119,3.119,3.119,3.119,3.119,3.119,3.0666,3.0125,3.0125,2.9567,2.9306,3.0439,2.9848,2.9194,2.9939,2.9533,2.9045,2.9011,2.8366,2.7588,2.6843,2.6436,2.6063,2.5614,2.6552,2.7453,2.7801,2.8539,2.9347,3.0118,3.0228,3.0309,3.0562,3.0605,3.0433,3.0041,2.9999,3.0122,3.0398,3.015,3.0136,3.0398,3.0398,3.0398,3.0398,3.0398,3.0398,3.0398,3.0398,3.0398,2.8543,3.0211,0.0,3.2222,0.0,0.0,0.0,3.6634,0.0,0.0,0.0,3.9177,3.9969,0.0,0.0,0.0,0.0,0.0,0.0,0.0,0.0,0.0,0.0,0.0,0.0,0.0,0.0,0.0,0.0,0.0,0.0,3.4319,3.4998,3.5976,3.6224,3.6515,3.6789,3.6772,3.64,3.556,3.4869,3.4617,3.481,3.4113,3.3372,3.2611,3.2611,3.207,3.1207,3.1427,3.1393,3.119,3.119,3.119,3.119,3.119,3.119,3.119,3.119,3.119,3.119,3.119,3.119,3.119,3.119,3.119,3.119,3.119,3.1038,3.093,3.1202,3.0916,3.0484,3.0313,3.0617,3.0827,3.0234,3.0345,3.0226,2.9178,2.8789,2.8569,2.8349,2.7568,2.7213,2.7847,2.8515,2.9261,3.0222,3.1035,3.1201,3.0301,3.1394,3.1496,2.9895,3.0584,3.0772,3.0056,3.0182,3.0311,3.0398,3.0323,3.0222,3.0122,3.0311,3.0311,3.0122,3.0311,3.0398,3.0398,3.0398,3.0398,2.9534,3.0965,0.0,3.3017,3.4399,3.5658,3.6006,0.0,0.0,0.0,0.0,3.8421,3.9462,0.0,0.0,0.0,0.0,0.0,0.0,0.0,0.0,0.0,0.0,0.0,0.0,0.0,0.0,0.0,0.0,0.0,0.0,3.3045,3.3738,3.4821,3.5136,3.5607,3.6315,3.6028,3.5639,3.5165,3.4141,3.3664,3.3609,3.3188,3.2746,3.2256,3.1968,3.1765,3.1596,3.1309,3.119,3.119,3.119,3.119,3.119,3.119,3.119,3.119,3.119,3.119,3.119,3.119,3.119,3.119,3.119,3.1329,3.1359,3.0874,3.0984,3.116,3.0795,3.0839,3.0933,3.0817,3.1182,3.1387,3.0709,3.0886,3.0937,3.004,2.9634,2.9488,2.9655,2.8985,2.875,2.9614,3.0178,3.0693,3.1311,3.1912,3.1863,3.0803,3.1703,3.1723,3.013,3.0693,3.0871,3.0207,3.0311,3.0552,3.091,3.0571,3.0323,3.015,3.0311,3.0311,3.015,3.0311,3.0398,3.0398,3.0398,3.0398,3.0361,3.1431,0.0,3.4201,3.5155,0.0,3.637,3.6563,3.6641,3.6783,0.0,3.7252,3.8653,0.0,0.0,0.0,0.0,0.0,0.0,0.0,0.0,0.0,0.0,0.0,0.0,0.0,0.0,0.0,0.0,0.0,0.0,3.2231,3.2864,3.3502,3.4137,3.4761,3.5313,3.4699,3.4387,3.4283,3.3001,3.2347,3.2313,3.2232,3.2198,3.2178,3.1478,3.1562,3.2138,3.1461,3.119,3.119,3.119,3.119,3.119,3.119,3.119,3.119,3.119,3.119,3.119,3.119,3.119,3.119,3.1252,3.1435,3.1455,3.0469,3.0681,3.0843,2.9538,2.9883,3.0768,3.1566,3.1456,3.119,3.119,3.119,3.1173,3.1106,3.0586,3.0282,3.0647,3.0457,3.0446,3.0974,3.152,3.1815,3.1636,3.1784,3.176,3.1434,3.1354,3.1191,3.081,3.0827,3.0693,3.0424,3.0398,3.0794,3.166,3.0871,3.0436,3.0482,3.0436,3.0398,3.0367,3.0398,3.0398,3.0398,3.0398,3.0398,3.1695,3.2097,0.0,0.0,3.5914,3.6073,3.4542,3.5074,3.6023,3.6662,3.7259,3.773,3.806,0.0,0.0,0.0,0.0,0.0,0.0,0.0,0.0,0.0,0.0,0.0,0.0,0.0,0.0,0.0,0.0,0.0,3.1482,3.2231,3.2645,3.2748,3.3372,3.3535,3.3155,3.348,3.3395,0.0,3.2512,3.2302,3.2273,3.1741,3.1483,3.141,3.1258,3.1275,3.141,3.1258,3.119,3.119,3.119,3.119,3.119,3.119,3.119,3.119,3.119,3.119,3.119,3.119,3.119,3.1252,3.1565,3.1096,3.056,3.0924,3.0485,3.0037,3.0639,3.0527,3.0419,3.1208,3.1319,3.119,3.119,3.119,3.1021,3.0446,3.0478,3.0594,3.0681,3.0712,3.1083,3.209,3.2346,3.2636,3.3201,3.2776,3.2157,3.1483,3.1011,3.0532,2.9999,3.0111,3.0252,3.0386,3.0398,3.0794,3.166,3.0871,3.0618,3.1097,3.0644,3.0299,3.0089,3.0299,3.0398,3.0398,3.0398,3.0398,3.2212,0.0,0.0,3.5148,0.0,3.5398,3.4294,3.4572,3.5217,3.5652,3.603,3.6502,0.0,0.0,0.0,0.0,0.0,0.0,0.0,0.0,0.0,0.0,0.0,0.0,0.0,0.0,0.0,0.0,0.0,3.1131,3.142,3.1818,3.2146,3.2465,3.2779,3.2937,3.2927,3.2892,3.2723,3.2393,3.1982,3.1749,3.1765,3.1407,3.123,3.119,3.119,3.119,3.119,3.119,3.119,3.119,3.119,3.119,3.119,3.119,3.119,3.119,3.119,3.119,3.119,3.119,3.119,3.1162,3.1022,3.0959,3.0739,2.9851,3.0132,3.0582,3.0088,3.0468,3.095,3.0831,3.0728,3.068,3.068,3.068,3.0663,3.0663,3.0541,3.0723,3.1724,3.2103,3.2537,3.3278,3.3358,3.3377,3.3395,3.3044,3.2293,3.0968,3.0691,3.0372,2.9754,2.9893,3.0103,3.0379,3.0398,3.0794,3.166,3.0882,3.0772,3.1473,3.0765,3.0323,3.0196,3.0783,3.0835,3.041,3.0854,3.0835,3.2594,0.0,3.4209,3.52,3.5198,0.0,3.4512,3.4592,3.4703,3.4475,3.4476,3.4878,0.0,0.0,0.0,0.0,0.0,0.0,0.0,0.0,0.0,0.0,0.0,0.0,0.0,0.0,0.0,0.0,0.0,3.0861,3.1337,3.1512,3.1787,3.2196,3.2331,3.2546,3.2833,3.235,3.1979,3.1746,3.1252,3.1072,3.119,3.119,3.119,3.119,3.119,3.119,3.119,3.119,3.119,3.119,3.119,3.119,3.119,3.119,3.119,3.119,3.119,3.119,3.119,3.119,3.119,3.1111,3.0578,3.082,3.0902,2.8972,2.9881,3.1105,2.933,3.038,3.1632,3.063,3.035,3.029,3.0137,3.0211,3.0441,3.0985,3.0747,3.1039,3.2961,3.3634,3.3935,3.4171,3.4246,3.3989,3.3168,3.29,3.2158,3.0508,3.032,3.0163,2.9769,2.9877,3.0152,3.0609,3.0475,3.0852,3.1872,3.0983,3.0868,3.1696,3.0871,3.0419,3.0439,3.137,3.141,3.0656,3.1439,3.1371,3.3846,0.0,3.6106,0.0,3.5646,3.6028,0.0,0.0,3.5132,0.0,3.4125,0.0,0.0,0.0,0.0,0.0,0.0,0.0,0.0,0.0,0.0,0.0,0.0,0.0,0.0,0.0,0.0,0.0,3.1322,3.1291,3.1387,3.1947,3.1991,3.144,3.2018,3.18,3.0733,3.112,3.0751,2.9608,3.0029,3.0581,3.119,3.119,3.119,3.119,3.119,3.119,3.119,3.119,3.119,3.119,3.119,3.119,3.119,3.119,3.119,3.119,3.119,3.119,3.119,3.119,3.119,3.1235,3.1482,3.0551,2.9568,3.0554,3.0185,2.9632,3.0324,3.0976,3.1437,3.1276,3.1239,3.1038,3.026,3.0667,3.0967,3.037,3.1064,3.2166,3.3488,3.3943,3.4171,3.42,3.4464,3.4331,3.3463,3.2526,3.1659,3.0884,2.9848,2.9425,2.9924,2.9829,3.025,3.1443,3.0833,3.1102,3.2679,3.1229,3.0854,3.1768,3.0991,3.0568,3.0587,3.1463,3.179,3.1613,3.1747,3.17,3.3578,3.4435,3.4968,0.0,3.5349,3.5309,3.4366,0.0,3.4858,3.4228,3.3963,0.0,0.0,0.0,0.0,0.0,0.0,0.0,0.0,0.0,0.0,0.0,0.0,0.0,0.0,0.0,0.0,0.0,3.0999,3.0969,3.1313,3.1609,3.1575,3.1241,3.1527,3.1375,3.0797,3.1055,3.0711,2.9799,2.9679,2.9805,3.0208,3.0208,3.0559,3.119,3.119,3.119,3.119,3.119,3.1015,3.074,3.1055,3.1015,3.074,3.1072,3.119,3.119,3.119,3.119,3.119,3.119,3.119,3.1145,3.0933,3.0568,3.0204,3.004,3.0499,3.104,3.1105,3.1954,3.2632,3.2173,3.2527,3.2582,3.1148,3.1101,3.1128,3.0324,3.0966,3.1699,3.1781,3.2244,3.272,3.3037,3.3095,3.2878,3.2293,3.1676,3.1016,3.03,2.9832,2.9676,2.9965,3.0066,3.0341,3.0936,3.0609,3.0737,3.1468,3.0835,3.0656,3.106,3.0694,3.0773,3.1331,3.2194,3.2596,3.2541,3.3064,3.2724,0.0,0.0,3.3871,3.5261,3.5129,3.4661,0.0,0.0,3.4757,0.0,3.3963,0.0,0.0,0.0,0.0,0.0,0.0,0.0,0.0,0.0,0.0,0.0,0.0,0.0,0.0,0.0,0.0,0.0,3.0816,3.0684,3.1007,3.0952,3.0818,3.0632,3.0632,3.0632,3.0632,3.0314,3.0145,3.0054,2.9149,2.8777,2.8906,2.9054,2.9701,3.0746,3.0891,3.0954,3.0937,3.1123,3.0721,3.0087,3.0891,3.0838,3.0377,3.0975,3.119,3.119,3.119,3.119,3.119,3.119,3.119,3.1089,3.0548,3.0632,3.0772,2.9972,3.0959,3.2125,3.1667,3.2658,3.3613,3.2882,3.3475,3.3757,3.2151,3.144,3.098,3.0577,3.0815,3.0962,3.0577,3.1054,3.164,3.2049,3.1989,3.1749,3.134,3.108,3.0673,2.9959,2.9912,2.9969,3.0089,3.0209,3.0515,3.0994,3.0629,3.059,3.1025,3.0895,3.0782,3.0733,3.0864,3.1242,3.1896,3.2778,3.3276,3.3413,3.412,3.3692,0.0,3.3123,0.0,3.5333,3.5145,0.0,0.0,0.0,0.0,0.0,3.4013,0.0,0.0,0.0,0.0,0.0,0.0,0.0,0.0,0.0,0.0,0.0,0.0,0.0,0.0,0.0,0.0,0.0,3.1185,3.0864,3.0222,3.0154,2.9837,2.9163,2.9093,2.9093,2.9093,2.7911,2.7998,2.9353,2.8012,2.7442,2.7531,2.8148,2.8809,2.9443,3.0079,3.0275,3.0226,3.0903,3.0419,2.9378,3.069,3.0838,3.0377,3.0975,3.119,3.119,3.119,3.119,3.119,3.119,3.119,3.119,3.114,3.0683,3.0353,3.1472,3.1618,3.1529,3.1894,3.2865,3.3647,3.312,3.3599,3.3976,3.3096,3.151,3.0485,3.1201,3.076,3.0485,3.1201,3.1598,3.1781,3.1803,3.2032,3.1973,3.139,3.1116,3.0829,3.0407,2.9958,2.9896,3.0343,3.015,3.0805,3.2648,3.1275,3.1121,3.2699,3.2038,3.1545,3.1366,3.2048,3.2225,3.1903,3.2765,3.3565,3.4235,3.4294,3.4232,0.0,0.0,0.0,3.4097,3.4156,3.4018,3.4274,3.4676,3.4839,3.4312,3.3673,0.0,0.0,0.0,0.0,0.0,0.0,0.0,0.0,0.0,0.0,0.0,0.0,0.0,0.0,0.0,0.0,0.0,0.0,3.0207,2.9576,2.9429,2.9134,2.8515,2.8498,2.8329,2.7984,2.7046,2.6881,2.7476,2.6556,2.6162,2.6287,2.6832,2.7465,2.807,2.8633,2.9337,3.0125,3.0395,2.9699,2.8685,3.0488,3.0376,2.9331,3.0401,3.1008,3.1133,3.0402,3.0759,3.1459,3.0747,3.0818,3.119,3.119,3.1202,3.1296,3.17,3.2172,3.2583,3.2721,3.3405,3.4096,3.4318,3.4014,3.3776,3.4041,3.2571,3.1261,3.1379,3.0111,2.9141,2.9414,2.9557,2.9667,2.9857,3.0195,3.0377,3.0288,3.02,3.0122,2.9965,2.9927,3.0183,3.092,3.1065,3.1386,3.2102,3.1564,3.1506,3.2102,3.1333,3.134,3.234,3.2121,3.2389,3.3255,3.3519,3.4156,3.5136,3.5126,3.4816,3.1457,0.0,0.0,0.0,0.0,3.3307,3.3578,0.0,3.4262,3.4284,3.3533,0.0,0.0,0.0,0.0,0.0,0.0,0.0,0.0,0.0,0.0,0.0,0.0,0.0,0.0,0.0,0.0,0.0,0.0,0.0,2.8281,2.8152,2.7827,2.7202,2.7185,2.7143,2.7049,2.6102,2.5831,2.6181,2.5444,2.5148,2.5243,2.5812,2.6498,2.7267,2.746,2.8223,2.9364,2.9617,2.9005,2.8068,2.9926,2.9926,2.9007,3.014,3.0727,3.0894,3.0099,3.0431,3.1168,3.0643,3.0829,3.1293,3.1551,3.1806,3.2057,3.223,3.2713,3.3243,3.3361,3.3795,3.4292,3.4696,3.4319,3.3899,3.4081,3.2695,3.1351,3.1236,2.9696,2.835,2.8264,2.8342,2.8428,2.8499,2.8952,2.9293,2.94,2.9514,2.9626,2.9696,2.9813,3.0167,3.0814,3.1292,3.1686,3.1955,3.1724,3.1774,3.2244,3.1531,3.1755,3.3043,3.2832,3.3216,3.423,3.407,3.4552,3.5574,3.5574,3.5278,0.0,0.0,0.0,0.0,0.0,0.0,3.3435,0.0,3.345,3.3507,3.355,3.3153,0.0,0.0,0.0,0.0,0.0,0.0,0.0,0.0,0.0,0.0,0.0,0.0,0.0,0.0,0.0,0.0,2.9263,2.8396,2.6423,2.631,2.5934,2.523,2.5182,2.5518,2.6206,2.5001,2.473,2.5439,2.4879,2.4531,2.4405,2.5102,2.6021,2.7057,2.6724,2.7013,2.7859,2.8655,2.8435,2.7638,2.899,2.9528,2.9576,3.017,3.0402,3.0402,3.0366,3.0261,3.0274,3.103,3.1278,3.1473,3.2234,3.2533,3.2648,3.3075,3.3214,3.3302,3.3707,3.3993,3.42,3.42,3.4427,3.4348,3.3243,3.1719,3.065,3.0821,2.9521,2.829,2.7954,2.8156,2.8272,2.7954,2.8533,2.8938,2.8833,2.9151,2.9455,2.9661,2.9696,2.9799,3.0041,3.0852,3.1672,3.2457,3.1787,3.1977,3.3316,3.2889,3.2887,3.3449,3.428,3.4695,3.4714,3.4381,3.4647,3.5493,3.5507,3.5534,3.0417,0.0,0.0,0.0,0.0,0.0,0.0,0.0,0.0,3.1518,3.1836,3.1888,0.0,0.0,0.0,0.0,0.0,0.0,0.0,0.0,0.0,0.0,0.0,0.0,0.0,0.0,0.0,0.0,2.835,2.8131,2.7154,2.6186,2.5561,2.5373,2.4502,2.4124,2.4349,2.4013,2.3927,2.4124,2.4365,2.4425,2.443,2.5659,2.6376,2.6707,2.742,2.7875,2.8149,2.8754,2.8592,2.8149,2.9591,2.9782,2.9315,2.9987,3.0465,3.0639,2.9758,3.0189,3.1023,3.0355,3.093,3.1937,3.2155,3.2728,3.333,3.346,3.3561,3.3716,3.4018,3.4147,3.4246,3.4508,3.4066,3.344,3.2784,3.1403,3.0241,2.9998,2.8936,2.7908,2.753,2.7794,2.7992,2.7926,2.8533,2.8975,2.8962,2.9048,2.9115,2.9185,2.9495,3.022,3.1479,3.2114,3.2502,3.2565,3.3082,3.3221,3.2847,3.2824,3.3489,3.4891,3.4542,3.4541,3.4981,3.4698,3.4788,3.5223,3.5499,3.5714,0.0,0.0,0.0,0.0,0.0,0.0,2.9834,3.0235,3.0632,0.0,3.0464,3.054,2.9904,0.0,0.0,0.0,0.0,0.0,0.0,0.0,0.0,0.0,0.0,0.0,0.0,2.8738,2.8278,2.7131,2.7604,2.7606,2.6672,2.565,2.5085,2.5085,2.4113,2.3595,2.3595,2.3595,2.3724,2.3964,2.4225,2.4524,2.482,2.5698,2.633,2.6772,2.7701,2.8316,2.8688,2.9175,2.9082,2.8725,2.9596,2.9807,2.9661,3.0086,3.0411,3.0538,2.984,3.0135,3.0771,3.0373,3.1113,3.2229,3.2544,3.3228,3.3832,3.3832,3.3821,3.3842,3.3986,3.3899,3.381,3.4031,3.3494,3.275,3.2119,3.1299,3.0445,2.9757,2.9195,2.8646,2.7886,2.8241,2.8449,2.7979,2.8533,2.8929,2.8773,2.8984,2.9178,2.9178,2.9514,3.0319,3.1701,3.2436,3.2743,3.2613,3.355,3.3776,3.3006,3.3214,3.3974,3.5301,3.4855,3.4788,3.5139,3.4961,3.4944,3.5122,3.5505,3.5729,0.0,0.0,0.0,0.0,0.0,0.0,2.8861,2.9056,2.9445,0.0,0.0,2.925,2.8517,2.8382,2.8397,0.0,0.0,0.0,0.0,0.0,0.0,0.0,0.0,0.0,2.9289,2.918,2.8476,2.676,2.7179,2.6995,2.5901,2.5136,2.4686,2.4686,2.3999,2.3638,2.3681,2.3681,2.3903,2.4411,2.457,2.489,2.5404,2.5803,2.6408,2.726,2.796,2.8685,2.9434,2.9806,2.9717,2.932,2.9377,2.9787,3.0322,3.0322,3.0322,3.0322,3.0322,3.0163,3.0089,3.0737,3.1541,3.2371,3.3089,3.3682,3.4111,3.4134,3.3986,3.3807,3.3807,3.3494,3.3214,3.3214,3.2822,3.2237,3.1411,3.1238,3.0979,2.9861,2.986,2.9722,2.863,2.904,2.917,2.8174,2.8639,2.8943,2.8597,2.9071,2.9456,2.9456,2.9693,3.0256,3.124,3.2109,3.2567,3.2466,3.3327,3.3673,3.3283,3.3599,3.4095,3.4781,3.4882,3.4975,3.5071,3.5097,3.5122,3.5168,3.5524,3.5696,0.0,0.0,0.0,0.0,0.0,0.0,2.8667,2.8697,2.8637,0.0,2.8412,2.8427,2.72,2.6976,2.7156,2.7694,2.829,0.0,0.0,0.0,0.0,0.0,0.0,0.0,2.8054,2.7944,2.7788,2.7433,2.7489,2.7455,2.7235,2.6063,2.542,2.542,2.4238,2.3794,2.4225,2.4225,2.4327,2.4482,2.557,2.6063,2.6065,2.7525,2.8356,2.8732,2.9464,2.9883,3.0061,3.0333,3.0311,3.0094,3.0094,3.0285,3.0542,3.0542,3.0542,3.0542,3.0542,3.0475,3.0424,3.0613,3.1196,3.1921,3.257,3.3121,3.3602,3.3827,3.3842,3.3807,3.3807,3.3494,3.3214,3.3214,3.2684,3.1927,3.0993,3.1029,3.0959,3.0018,2.9523,2.913,2.8793,2.8846,2.8957,2.8879,2.9246,2.955,2.9519,2.9637,2.9745,2.9805,3.0029,3.052,3.1305,3.1741,3.184,3.1573,3.2383,3.2578,3.1912,3.2166,3.2512,3.2921,3.3095,3.3562,3.4312,3.4834,3.5243,3.5504,3.5572,3.5646,0.0,0.0,0.0,2.8399,0.0,0.0,0.0,2.8083,2.7993,2.7685,2.7844,2.7889,2.72,0.0,2.7186,2.7565,2.8147,2.8804,2.9474,0.0,0.0,0.0,0.0,0.0,2.8225,2.8083,2.7934,2.7655,2.7576,2.7725,2.8027,2.7026,2.645,2.645,2.5102,2.4511,2.4792,2.5003,2.5017,2.4929,2.5776,2.6184,2.6147,2.724,2.8143,2.8837,2.9442,2.994,3.0366,3.0535,3.0567,3.0489,3.0489,3.0589,3.0752,3.0752,3.0752,3.0752,3.0752,3.0675,3.0546,3.0173,3.0725,3.1487,3.1181,3.1808,3.2668,3.2885,3.3213,3.355,3.3734,3.3494,3.3154,3.2921,3.2396,3.1725,3.0855,3.0767,3.0734,3.026,2.98,2.9519,2.9594,2.9752,2.9795,2.9529,2.9673,2.9813,2.9851,2.9978,3.0042,3.0044,3.0283,3.0743,3.1484,3.1952,3.204,3.1669,3.2719,3.2774,3.1441,3.1598,3.1272,3.0316,3.0764,3.1236,3.1712,3.3088,3.4327,3.5403,3.5403,3.5482,0.0,0.0,0.0,0.0,0.0,2.8237,0.0,0.0,0.0,2.7625,2.752,0.0,0.0,0.0,0.0,0.0,0.0,0.0,0.0,2.9591,0.0,0.0,0.0,0.0,2.8517,2.8517,2.8308,2.7619,2.7776,2.8093,2.8496,2.7731,2.7294,2.7294,2.5918,2.5281,2.5454,2.5609,2.5615,2.5493,2.5779,2.595,2.6012,2.6669,2.7529,2.8534,2.9079,2.9719,3.0366,3.0494,3.0564,3.063,3.069,3.0671,3.0644,3.08,3.076,3.0641,3.0799,3.0761,3.0523,2.9711,3.0049,3.0606,2.9709,3.0337,3.1427,3.1769,3.2293,3.285,3.325,3.3039,3.2625,3.2268,3.1825,3.1272,3.0647,3.0525,3.051,3.0376,3.0249,3.0205,3.0414,3.0668,3.0688,3.012,3.0018,3.0018,3.0027,3.0207,3.0314,3.0287,3.0448,3.0771,3.1356,3.174,3.1806,3.1449,3.2527,3.2524,3.1091,3.0927,2.9954,2.7992,2.8523,2.8856,2.8882,3.0632,3.2647,3.4904,3.5171,3.5394,0.0,0.0,0.0,0.0,2.7504,0.0,0.0,0.0,2.8238,2.771,0.0,0.0,0.0,0.0,0.0,0.0,0.0,0.0,2.6732,2.7314,2.8054,2.8861,2.8869,0.0,0.0,2.8248,2.8308,2.7619,2.8664,2.9069,2.8542,2.7731,2.7294,2.7294,2.5918,2.557,2.6337,2.5698,2.5633,2.6182,2.6063,2.599,2.6038,2.7344,2.8165,2.8555,2.9375,2.9798,2.9901,3.0211,3.033,3.0362,3.0603,3.027,2.975,3.0467,3.0232,2.9669,3.0456,3.0626,3.0389,2.9511,2.889,2.8516,2.8735,2.9237,2.9927,3.0787,3.1101,3.1238,3.1583,3.1356,3.1052,3.0995,3.0635,3.029,3.0201,3.0308,3.0368,3.0259,3.0434,3.062,3.0652,3.0515,3.0412,3.0503,3.0463,3.0453,3.0518,3.0507,3.0509,3.0559,3.0419,3.0341,3.0375,2.9945,2.9593,2.9439,2.9678,2.9909,3.0047,2.9161,2.82,2.7142,2.7144,2.7221,2.7356,2.7875,3.0101,3.3809,3.5007,3.5591,0.0,0.0,0.0,0.0,0.0,0.0,2.8654,0.0,2.8431,0.0,0.0,0.0,0.0,0.0,0.0,0.0,2.6345,0.0,0.0,0.0,2.7281,0.0,0.0,0.0,0.0,0.0,0.0,0.0,2.9082,2.9832,2.9383,2.8698,2.8372,2.8605,2.6961,2.6369,2.6965,2.6874,2.6584,2.6141,2.6085,2.5808,2.5391,2.6376,2.7151,2.7756,2.915,2.9607,2.9435,3.0021,3.003,2.9729,2.9829,2.9629,2.9283,2.9467,2.9319,2.9054,2.9412,2.9664,2.9427,2.7066,2.5463,2.4638,2.5347,2.6637,2.8203,2.9622,3.0531,3.1148,3.1671,3.1675,3.1449,3.1052,3.0946,3.0755,3.0107,3.0119,3.0272,3.0213,3.0355,3.0524,3.0662,3.0614,3.0589,3.0755,3.0751,3.0702,3.0657,3.0528,3.0417,3.0373,3.056,3.0576,3.0217,3.0727,3.0783,3.0243,2.9676,2.9098,2.8456,2.7288,2.6001,2.4709,2.4206,2.4008,2.3958,2.4278,2.5573,2.7817,3.0746,3.2654,2.7344,0.0,0.0,0.0,0.0,0.0,0.0,0.0,0.0,0.0,0.0,0.0,0.0,0.0,0.0,0.0,0.0,2.5678,0.0,2.5335,0.0,0.0,0.0,0.0,0.0,0.0,0.0,2.7889,2.9418,3.0231,2.9848,2.9287,2.9121,2.942,2.7657,2.6906,2.7303,2.7367,2.7049,2.6255,2.6051,2.5572,2.4956,2.5733,2.648,2.7173,2.8797,2.9345,2.9122,2.972,2.9502,2.8758,2.8604,2.835,2.8164,2.8542,2.8324,2.7908,2.8504,2.8227,2.7119,2.4199,2.2467,2.1683,2.2532,2.4579,2.6961,2.8843,2.9996,3.0767,3.1353,3.1497,3.1371,3.0891,3.0914,3.0844,3.0066,3.0076,3.0227,3.0225,3.0335,3.0471,3.0664,3.0723,3.0792,3.0898,3.0878,3.0793,3.0684,3.0469,3.0257,3.0024,3.025,3.019,2.9677,3.0626,3.1035,3.0525,2.942,2.8466,2.7663,2.6154,2.4673,2.328,2.2372,2.1705,2.1374,2.0879,2.1082,2.2108,2.6177,2.8573,0.0,0.0,0.0,2.6984,0.0,0.0,0.0,0.0,2.8656,0.0,0.0,0.0,0.0,0.0,0.0,0.0,0.0,0.0,0.0,0.0,0.0,0.0,0.0,0.0,0.0,2.7964,2.7842,2.851,2.9699,3.0096,2.9438,2.9141,2.9028,2.9011,2.7521,2.6906,2.7303,2.6545,2.6416,2.6943,2.5984,2.5359,2.5015,2.6153,2.6795,2.7082,2.8428,2.9042,2.9018,2.9233,2.8596,2.7394,2.6807,2.6208,2.588,2.7923,2.7385,2.5903,2.799,2.632,2.3042,2.144,2.0721,2.0681,2.1362,2.3756,2.6654,2.8723,2.9374,2.9532,2.9889,2.9963,2.9963,2.9932,2.9951,2.9932,2.9913,3.0113,3.0306,3.0296,3.0514,3.0693,3.0693,3.0814,3.0898,3.0898,3.0792,3.068,3.0617,3.0365,3.003,2.9574,2.9128,2.8704,2.829,2.8435,2.8733,2.9211,2.8005,2.7551,2.8216,2.6289,2.4818,2.3866,2.2541,2.1491,2.0655,1.7925,1.7193,1.8351,2.2356,2.374,0.0,0.0,2.9746,2.8887,0.0,0.0,0.0,0.0,0.0,0.0,0.0,0.0,0.0,0.0,0.0,0.0,0.0,0.0,0.0,0.0,0.0,0.0,0.0,0.0,0.0,0.0,0.0,2.7161,2.8805,2.9749,2.9789,2.9287,2.9138,2.9386,2.7624,2.6906,2.7303,2.7013,2.6854,2.6801,2.5872,2.5099,2.4491,2.5164,2.5781,2.6454,2.8237,2.8866,2.8624,2.8878,2.7875,2.6151,2.5576,2.4616,2.3702,2.5164,2.5512,2.5298,2.5911,2.3919,2.0811,1.8831,1.8843,1.9664,2.0145,2.3373,2.7254,2.9033,2.9766,3.0056,3.0311,3.0354,3.0338,3.0202,3.0226,3.0263,3.0125,3.0238,3.0335,3.0254,3.0407,3.0536,3.0442,3.0629,3.0793,3.0898,3.0792,3.0626,3.0443,3.0117,2.9699,2.9091,2.9203,2.891,2.7903,2.8166,2.8518,2.8722,2.7842,2.7255,2.7121,2.4942,2.3903,2.416,2.1522,2.0041,1.9641,1.694,1.4768,1.317,1.3194,1.4641,2.9816,3.0272,0.0,3.0039,3.0087,0.0,2.9384,0.0,0.0,0.0,0.0,0.0,0.0,0.0,0.0,0.0,0.0,0.0,0.0,2.4104,0.0,0.0,0.0,0.0,0.0,0.0,2.6322,2.6805,2.8434,2.9468,0.0,0.0,2.9002,2.8939,2.7487,2.6808,2.7083,2.7083,2.6857,2.645,2.5862,2.5146,2.4308,2.4919,2.554,2.6204,2.7677,2.8176,2.793,2.7674,2.6499,2.478,2.3952,2.3239,2.2721,2.3784,2.445,2.4704,2.4311,2.1953,1.8879,1.7319,1.7868,1.9277,2.0114,2.3837,2.8129,2.9619,3.0275,3.0531,3.0606,3.0638,3.0579,3.0348,3.037,3.0366,3.0136,3.0155,3.019,3.0106,3.0192,3.025,3.0172,3.0372,3.0603,3.0762,3.074,3.0594,3.0297,2.9883,2.9339,2.8654,2.8702,2.8307,2.7147,2.704,2.7115,2.7364,2.6484,2.5902,2.5714,2.3735,2.2957,2.3666,2.0775,1.9208,1.8936,1.6053,1.31,1.0103,0.7297,0.7249]}]]